     2              OBSERVATION DATA    GPS                 RINEX VERSION / TYPE
teqc 2000Feb29 Duncan Agnew 20030513 23:33:28UTC            PGM / RUN BY / DATE
                                                            COMMENT
L2: 1 -> 1; 150 -> 5; 250 -> 9                              COMMENT
L2: 1 -> 1; 150 -> 5; 250 -> 9                              COMMENT
L2: 1 -> 1; 150 -> 5; 250 -> 9                              COMMENT
L2: 1 -> 1; 150 -> 5; 250 -> 9                              COMMENT
L2: 1 -> 1; 150 -> 5; 250 -> 9                              COMMENT
Original Marker Name: CG09                                  COMMENT
Campaign Name: Baja 2002-3                                  COMMENT
4-Character Station Name: CG09                              COMMENT
6-Character Antenna Code: DMRCHT                            COMMENT
Vertical Measurement Point: BCR                             COMMENT
Vertical Offset to Rinex Ref. Point: 0.0348                 COMMENT
Radial Measurement Point: ECF                               COMMENT
Radial Offset to Rinex Ref. Point: 0.1897                   COMMENT
Antenna Height from Field Measurement: 1.1400 m             COMMENT
Additional Antenna Identification Info.:                    COMMENT
Turborogue and Ashtech Choke Ring                           COMMENT
Original XYZ: -2297862.8122 -4875674.7443 3398577.9637      COMMENT
New XYZ position is based on association with SCEC monument COMMENT
E1C9D2S1+0011. Position of that monument is believed to be  COMMENT
valid to within 1 m horizontally; vertical accuracy         COMMENT
should be no worse than 3-times this value.                 COMMENT
                                                            COMMENT
Revised Rinex header created by UCSD GPS archive for        COMMENT
GSAC on 11-Jul-2003 (2003:192) 16:04:52 GMT                 COMMENT
For assistance contact dagnew@ucsd.edu                      COMMENT
or anderson@python.ucsd.edu                                 COMMENT
                                                            COMMENT
CAMPO GEOTERMICO 09                                         MARKER NAME
JGG CICESE (ENSENADA)                                       OBSERVER / AGENCY
734 ASHTECH Z-XII3 CC00                                     REC # / TYPE / VERS
003 DORNE-MARGOL. TYPE T                                    ANT # / TYPE
 -2297858.3129 -4875660.8560  3398561.9802                  APPROX POSITION XYZ
        1.0893        0.0000        0.0000                  ANTENNA: DELTA H/E/N
     1     1     0                                          WAVELENGTH FACT L1/2
     7    C1    L1    L2    P1    P2    S1    S2            # / TYPES OF OBSERV
     0                                                      INTERVAL
  2003     2     8     0     0   30.000000                  TIME OF FIRST OBS
  2003     2     8    19     7   30.000000                  TIME OF LAST OBS
                                                            END OF HEADER
 03  2  8  0  0 30.0000000  0 11G30G15G17G 6G24G23G18G10G29G 5G26
  21157259.771   -23954514.02949 -18647063.43447  21157260.423    21157268.636
       240.000         202.000
  24615159.428    -3770099.85549  -2918242.44844  24615156.662    24615174.551
       206.000         130.000
  22359231.066   -10495111.40549  -8151097.40247  22359230.347    22359240.199
       232.000         188.000
  20747790.557   -23953588.35049 -18650927.52347  20747790.304    20747797.979
       245.000         212.000
  24840938.042      729369.12149    625039.49345  24840936.178    24840949.189
       211.000         143.000
  21670394.316   -16951224.54649 -13171115.88747  21670393.499    21670403.207
       236.000         197.000
  24732253.315    -1513373.29749  -1160210.48645  24732252.748    24732270.592
       209.000         140.000
  21691208.349   -17580553.13549 -13684964.33947  21691207.669    21691216.222
       237.000         194.000
  23494503.379   -10177248.14749  -7883641.86745  23494503.044    23494513.288
       212.000         152.000
  23294536.792    -9916509.05749  -7387627.87446  23294536.558    23294548.548
       220.000         164.000
  23542122.104    -6906504.83549  -5348795.42145  23542120.369    23542134.877
       208.000         147.000
 03  2  8  0  1  0.0000000  0 11G30G15G17G 6G24G23G18G10G29G 5G26
  21169309.833   -23891190.94149 -18597720.78747  21169310.371    21169318.717
       240.000         202.000
  24600483.975    -3847218.42249  -2978334.51044  24600482.870    24600497.813
       207.000         131.000
  22350011.315   -10543561.04049  -8188850.25147  22350010.859    22350020.116
       233.000         188.000
  20739693.065   -23996140.84849 -18684085.26647  20739693.119    20739700.383
       246.000         212.000
  24854967.303      803094.26449    682487.68045  24854967.544    24854979.084
       212.000         142.000
  21656273.763   -17025427.76349 -13228936.45047  21656273.154    21656282.609
       237.000         198.000
  24711467.374    -1622603.06749  -1245324.02645  24711466.218    24711485.173
       209.000         141.000
  21705046.114   -17507835.42349 -13628301.18447  21705045.100    21705053.717
       236.000         194.000
  23483266.916   -10236295.07649  -7929652.20445  23483265.743    23483276.859
       212.000         152.000
  23314058.274    -9813923.66249  -7307691.35046  23314058.863    23314070.564
       219.000         163.000
  23525596.546    -6993346.68949  -5416464.04445  23525595.959    23525608.245
       210.000         146.000
 03  2  8  0  1 30.0000000  0 11G30G15G17G 6G24G23G18G10G29G 5G26
  21181445.621   -23827417.23949 -18548027.01447  21181446.210    21181454.593
       241.000         202.000
  24585830.426    -3924222.55649  -3038337.34345  24585828.235    24585843.943
       204.000         132.000
  22340824.866   -10591835.92049  -8226466.93147  22340823.899    22340833.597
       232.000         188.000
  20731648.427   -24038415.75549 -18717026.70448  20731648.249    20731655.821
       246.000         213.000
  24868984.532      876756.37949    739886.77245  24868984.730    24868995.800
       211.000         139.000
  21642229.264   -17099231.53049 -13286445.75747  21642228.597    21642238.143
       237.000         198.000
  24690695.294    -1731759.67949  -1330380.58045  24690693.329    24690711.678
       211.000         140.000
  21718963.548   -17434698.53149 -13571311.39947  21718962.965    21718971.683
       235.000         193.000
  23472081.529   -10295073.56449  -7975453.37745  23472080.996    23472091.512
       213.000         153.000
  23333599.756    -9711232.87449  -7227672.70745  23333598.856    23333612.095
       218.000         162.000
  23509094.586    -7080064.60549  -5484036.09245  23509093.673    23509107.158
       209.000         146.000
 03  2  8  0  2  0.0000000  0 11G30G15G17G 6G24G23G18G10G29G 5G26
  21193666.563   -23763196.16149 -18497984.63447  21193666.950    21193675.055
       240.000         202.000
  24571198.365    -4001112.70749  -3098251.37545  24571197.254    24571212.194
       209.000         136.000
  22331671.307   -10639937.33849  -8263948.44047  22331670.186    22331680.209
       232.000         188.000
  20723656.774   -24080411.87749 -18749750.90248  20723656.681    20723664.402
       245.000         213.000
  24882989.879      950354.76549    797236.21945  24882987.916    24883002.164
       209.000         139.000
  21628260.993   -17172634.83049 -13343643.00847  21628260.337    21628269.747
       237.000         198.000
  24669937.431    -1840841.58749  -1415378.94145  24669935.369    24669953.573
       211.000         139.000
  21732960.180   -17361145.69849 -13513997.49947  21732959.675    21732967.839
       236.000         193.000
  23460947.545   -10353581.69049  -8021043.88645  23460947.334    23460957.853
       214.000         155.000
  23353160.568    -9608440.38049  -7147574.79845  23353160.463    23353171.992
       216.000         161.000
  23492616.579    -7166655.94649  -5551509.48545  23492615.401    23492629.424
       210.000         148.000
 03  2  8  0  2 30.0000000  0 10G30G15G17G 6G23G18G10G29G 5G26
  21205971.936   -23698531.20249 -18447596.37747  21205972.681    21205980.347
       241.000         202.000
  24556587.745    -4077890.06549  -3158077.54745  24556586.209    24556603.361
       212.000         140.000
  22322550.423   -10687867.07349  -8301296.17746  22322549.571    22322558.973
       231.000         187.000
  20715718.301   -24122128.69249 -18782257.46548  20715717.967    20715725.571
       246.000         213.000
  21614369.098   -17245637.01549 -13400527.70147  21614368.554    21614378.075
       237.000         198.000
  24649194.035    -1949847.79249  -1500318.32645  24649192.849    24649211.369
       212.000         139.000
  21747035.239   -17287180.83249 -13456362.54447  21747034.451    21747043.274
       236.000         193.000
  23449865.397   -10411817.57849  -8066422.23645  23449864.217    23449875.628
       214.000         156.000
  23372740.001    -9505549.90849  -7067400.55645  23372739.309    23372752.606
       217.000         160.000
  23476163.016    -7253118.28449  -5618882.37545  23476161.771    23476175.224
       209.000         148.000
 03  2  8  0  3  0.0000000  0 10G30G15G17G 6G23G18G10G29G 5G26
  21218361.255   -23633425.11949 -18396864.38347  21218361.604    21218370.090
       241.000         202.000
  24541998.733    -4154555.04349  -3217816.12045  24541997.948    24542013.675
       212.000         145.000
  22313462.224   -10735625.38449  -8338510.32446  22313461.392    22313471.354
       232.000         187.000
  20707833.274   -24163564.46149 -18814545.02548  20707832.946    20707840.663
       246.000         213.000
  21600553.807   -17318236.32849 -13457098.47547  21600553.008    21600562.530
       238.000         199.000
  24628465.363    -2058776.06749  -1585196.98045  24628465.198    24628481.857
       211.000         139.000
  21761188.158   -17212806.70349 -13398408.67047  21761187.533    21761196.086
       237.000         193.000
  23438835.604   -10469778.67849  -8111586.48245  23438835.302    23438846.208
       216.000         156.000
  23392337.639    -9402564.16549  -6987152.08345  23392338.001    23392350.697
       218.000         161.000
  23459734.505    -7339448.33249  -5686152.17945  23459733.624    23459746.589
       210.000         148.000
 03  2  8  0  3 30.0000000  0 10G30G15G17G 6G23G18G10G29G 5G26
  21230834.350   -23567878.70149 -18345789.28047  21230834.919    21230842.793
       240.000         201.000
  24527431.393    -4231105.79149  -3277465.69645  24527430.733    24527445.528
       214.000         148.000
  22304406.776   -10783211.26749  -8375590.13046  22304406.191    22304415.696
       232.000         187.000
  20700002.438   -24204715.63149 -18846610.82848  20700002.546    20700010.104
       246.000         213.000
  21586815.837   -17390429.42349 -13513352.72547  21586814.929    21586824.244
       238.000         198.000
  24607752.197    -2167622.79449  -1670012.07445  24607750.978    24607766.899
       210.000         138.000
  21775418.758   -17138024.62049 -13340136.92147  21775418.142    21775426.803
       236.000         193.000
  23427859.070   -10527460.39449  -8156533.03545  23427859.031    23427869.821
       218.000         157.000
  23411953.184    -9299484.28549  -6906830.25245  23411954.021    23411965.186
       216.000         161.000
  23443332.479    -7425641.00149  -5753314.94545  23443332.579    23443344.776
       212.000         150.000
 03  2  8  0  4  0.0000000  0 10G30G15G17G 6G23G18G10G29G 5G26
  21243390.569   -23501895.21449 -18294373.59747  21243390.946    21243399.283
       240.000         201.000
  24512885.550    -4307543.33449  -3337027.07045  24512883.214    24512899.979
       214.000         150.000
  22295384.091   -10830625.66649  -8412536.30647  22295383.427    22295392.502
       232.000         188.000
  20692226.014   -24245581.25149 -18878454.10648  20692225.660    20692233.239
       245.000         213.000
  21573155.280   -17462215.48349 -13569289.79847  21573154.466    21573163.972
       238.000         198.000
  24587054.721    -2276386.71349  -1754762.63345  24587052.887    24587069.725
       210.000         138.000
  21789726.308   -17062838.31449 -13281550.18347  21789725.497    21789733.759
       236.000         193.000
  23416936.074   -10584860.87249  -8201260.44745  23416935.793    23416945.889
       217.000         158.000
  23431585.927    -9196313.97949  -6826437.96045  23431585.901    23431598.680
       218.000         161.000
  23426957.012    -7511693.66249  -5820368.62045  23426956.655    23426969.034
       211.000         152.000
 03  2  8  0  4 30.0000000  0 10G30G15G17G 6G23G18G10G29G 5G26
  21256029.577   -23435476.86949 -18242619.06247  21256030.107    21256038.340
       240.000         200.000
  24498361.385    -4383867.23049  -3396499.88345  24498360.608    24498375.319
       215.000         151.000
  22286393.909   -10877868.83649  -8449349.05747  22286393.251    22286402.389
       232.000         188.000
  20684504.237   -24286159.02149 -18910073.09948  20684503.906    20684511.562
       246.000         213.000
  21559572.620   -17533592.30649 -13624907.99647  21559571.919    21559581.174
       238.000         199.000
  24566373.531    -2385064.85649  -1839446.31545  24566370.865    24566388.042
       207.000         138.000
  21804110.285   -16987249.86149 -13222650.09047  21804109.389    21804118.072
       235.000         192.000
  23406067.141   -10641976.88149  -8245766.19945  23406066.787    23406076.045
       219.000         159.000
  23451235.640    -9093055.43749  -6745976.92745  23451235.378    23451248.180
       219.000         161.000
  23410608.726    -7597602.42649  -5887310.16245  23410607.594    23410621.028
       213.000         152.000
 03  2  8  0  5  0.0000000  0 10G30G15G17G 6G23G18G10G29G 5G26
  21268750.765   -23368626.53349 -18190527.91147  21268750.930    21268759.305
       238.000         199.000
  24483858.874    -4460077.76349  -3455884.37945  24483857.668    24483872.938
       215.000         153.000
  22277436.184   -10924941.77349  -8486029.16147  22277435.752    22277445.226
       233.000         188.000
  20676837.537   -24326447.39949 -18941466.59148  20676837.343    20676844.838
       246.000         213.000
  21546068.134   -17604558.49649 -13680206.21147  21546067.498    21546076.574
       237.000         199.000
  24545708.819    -2493655.75949  -1924061.98245  24545706.591    24545723.521
       207.000         137.000
  21818570.177   -16911262.22349 -13163438.93847  21818569.699    21818578.148
       236.000         192.000
  23395252.746   -10698806.04349  -8290048.43845  23395251.894    23395262.280
       219.000         160.000
  23470901.468    -8989711.86749  -6665449.63245  23470901.313    23470913.635
       218.000         161.000
  23394288.669    -7683364.00549  -5954137.04645  23394287.732    23394300.299
       213.000         153.000
 03  2  8  0  5 30.0000000  0 10G30G15G17G 6G23G18G10G29G 5G26
  21281553.535   -23301347.05149 -18138102.36547  21281554.227    21281562.604
       238.000         198.000
  24469377.875    -4536175.30149  -3515180.79945  24469376.883    24469392.477
       212.000         153.000
  22268510.731   -10971844.76949  -8522576.83447  22268509.791    22268519.605
       233.000         188.000
  20669226.283   -24366445.02349 -18972633.51048  20669226.272    20669233.630
       245.000         214.000
  21532642.003   -17675112.89349 -13735183.54247  21532641.323    21532650.400
       238.000         199.000
  24525061.219    -2602157.35149  -2008608.07445  24525059.135    24525074.855
       204.000         137.000
  21833105.550   -16834878.58049 -13103919.20547  21833104.986    21833113.622
       235.000         192.000
  23384493.472   -10755345.86549  -8334105.23045  23384492.942    23384502.014
       217.000         160.000
  23490582.869    -8886286.23949  -6584858.40445  23490584.067    23490594.370
       218.000         159.000
  23377997.226    -7768975.53249  -6020847.01845  23377995.840    23378009.101
       213.000         154.000
 03  2  8  0  6  0.0000000  0 10G30G15G17G 6G23G18G10G29G 5G26
  21294437.587   -23233641.01549 -18085344.44047  21294437.957    21294446.280
       238.000         198.000
  24454918.213    -4612159.88549  -3574389.20245  24454917.023    24454931.811
       210.000         151.000
  22259617.581   -11018578.27149  -8558992.43547  22259617.018    22259626.534
       233.000         189.000
  20661670.756   -24406149.82449 -19003572.25848  20661670.513    20661677.876
       245.000         214.000
  21519294.580   -17745253.65449 -13789838.56547  21519293.843    21519303.003
       237.000         199.000
  24504430.930    -2710567.51649  -2093082.86945  24504428.557    24504445.372
       203.000         136.000
  21847715.648   -16758101.91449 -13044093.22447  21847714.562    21847723.377
       235.000         192.000
  23373789.615   -10811593.58149  -8377934.39945  23373789.182    23373799.802
       218.000         161.000
  23510279.327    -8782781.38049  -6504205.42645  23510279.112    23510292.039
       218.000         159.000
  23361734.896    -7854433.42049  -6087437.28345  23361733.838    23361745.710
       214.000         154.000
 03  2  8  0  6 30.0000000  0 10G30G15G17G 6G23G18G10G29G 5G26
  21307402.360   -23165510.77249 -18032255.95647  21307402.482    21307410.775
       238.000         198.000
  24440480.034    -4688031.20549  -3633509.36145  24440477.789    24440492.381
       208.000         147.000
  22250756.587   -11065143.07549  -8595276.58047  22250755.812    22250765.333
       234.000         190.000
  20654171.244   -24445559.82049 -19034281.28648  20654170.845    20654178.500
       244.000         214.000
  21506026.197   -17814978.92549 -13844169.82047  21506025.448    21506034.938
       238.000         200.000
  24483818.436    -2818884.15149  -2177484.74145  24483816.507    24483833.547
       203.000         137.000
  21862399.988   -16680934.74249 -12983962.94547  21862399.116    21862407.783
       235.000         191.000
  23363141.926   -10867546.12949  -8421533.57945  23363141.843    23363150.916
       218.000         162.000
  23529990.437    -8679199.66649  -6423492.57445  23529990.317    23530003.439
       220.000         160.000
  23345502.394    -7939733.98649  -6153904.96845  23345501.606    23345513.605
       215.000         154.000
 03  2  8  0  7  0.0000000  0 10G30G15G17G 6G23G18G10G29G 5G26
  21320447.448   -23096958.43149 -17978838.56847  21320447.741    21320456.226
       238.000         198.000
  24426063.384    -4763788.67649  -3692540.80945  24426062.209    24426078.026
       201.000         141.000
  22241927.720   -11111538.48149  -8631428.72947  22241927.164    22241936.940
       234.000         190.000
  20646728.150   -24484672.88249 -19064758.94848  20646727.838    20646735.252
       244.000         213.000
  21492837.277   -17884286.70949 -13898175.76947  21492836.499    21492845.556
       238.000         200.000
  24463224.216    -2927104.48649  -2261811.58245  24463221.994    24463237.873
       204.000         138.000
  21877158.323   -16603379.26849 -12923530.09947  21877157.569    21877165.877
       234.000         191.000
  23352551.088   -10923200.38749  -8464900.32645  23352550.596    23352560.795
       218.000         162.000
  23549715.739    -8575543.51649  -6342721.70845  23549715.491    23549727.296
       218.000         159.000
  23329300.641    -8024873.26549  -6220246.98045  23329300.371    23329312.327
       215.000         154.000
 03  2  8  0  7 30.0000000  0 10G30G15G17G 6G23G18G10G29G 5G26
  21333572.153   -23027987.52949 -17925095.03247  21333572.475    21333581.059
       236.000         198.000
  24411668.320    -4839433.19649  -3751484.23145  24411668.693    24411681.565
       201.000         137.000
  22233130.884   -11157766.03649  -8667450.08947  22233130.354    22233139.555
       233.000         191.000
  20639341.839   -24523487.92349 -19095004.38348  20639341.851    20639349.156
       243.000         214.000
  21479727.920   -17953176.23649 -13951855.80547  21479726.994    21479736.130
       237.000         199.000
  24442648.593    -3035227.12049  -2346062.27645  24442645.079    24442662.205
       204.000         139.000
  21891989.859   -16525439.10549 -12862797.49747  21891988.871    21891997.409
       232.000         190.000
  23342017.329   -10978554.39249  -8508033.11646  23342016.638    23342027.423
       216.000         163.000
  23569454.533    -8471816.30949  -6261895.47745  23569454.186    23569466.752
       217.000         158.000
  23313130.044    -8109848.79049  -6286461.40645  23313129.177    23313141.120
       214.000         155.000
 03  2  8  0  8  0.0000000  0 10G30G15G17G 6G23G18G10G29G 5G26
  21346776.239   -22958599.85449 -17871026.73547  21346776.834    21346785.124
       236.000         197.000
  24397294.952    -4914964.27349  -3810339.25645  24397293.705    24397308.544
       202.000         136.000
  22224365.978   -11203825.44849  -8703340.42047  22224365.322    22224374.582
       233.000         192.000
  20632012.876   -24562002.21849 -19125015.46548  20632012.675    20632019.959
       244.000         214.000
  21466698.635   -18021645.07449 -14005208.02947  21466697.834    21466707.223
       236.000         200.000
  24422092.219    -3143248.93749  -2430234.40445  24422089.959    24422105.361
       208.000         140.000
  21906894.073   -16447116.23049 -12801766.66547  21906892.904    21906902.268
       233.000         189.000
  23331541.427   -11033604.71349  -8550929.29046  23331541.170    23331550.889
       219.000         164.000
  23589206.556    -8368019.91849  -6181015.34245  23589206.552    23589218.635
       217.000         158.000
  23296991.546    -8194655.99249  -6352544.69845  23296990.329    23297003.016
       214.000         154.000
 03  2  8  0  8 30.0000000  0 10G30G15G17G 6G23G18G10G29G 5G26
  21360058.935   -22888798.78149 -17816636.31247  21360059.079    21360067.749
       237.000         196.000
  24382943.064    -4990382.79749  -3869106.59245  24382941.651    24382956.943
       203.000         138.000
  22215632.897   -11249717.97949  -8739100.71847  22215632.248    22215641.523
       234.000         192.000
  20624741.199   -24600214.68949 -19154791.36148  20624740.729    20624748.311
       244.000         214.000
  21453749.573   -18089692.33849 -14058231.74547  21453748.659    21453758.360
       238.000         200.000
  24401555.215    -3251168.62449  -2514326.92845  24401553.216    24401568.698
       207.000         142.000
  21921870.457   -16368414.56149 -12740440.68547  21921869.845    21921878.305
       233.000         189.000
  23321123.756   -11088349.40849  -8593587.30146  23321123.652    23321134.070
       219.000         164.000
  23608970.981    -8264157.88449  -6100084.04545  23608970.280    23608983.926
       216.000         156.000
  23280885.516    -8279292.19749  -6418494.75145  23280884.129    23280896.476
       215.000         154.000
 03  2  8  0  9  0.0000000  0 10G30G15G17G 6G23G18G10G29G 5G26
  21373419.851   -22818586.71649 -17761925.62847  21373420.409    21373429.002
       238.000         197.000
  24368612.649    -5065688.18249  -3927785.77945  24368612.441    24368626.184
       208.000         141.000
  22206931.468   -11295443.82549  -8774731.13647  22206930.802    22206940.203
       233.000         192.000
  20617527.336   -24638123.22349 -19184330.43048  20617527.093    20617534.539
       244.000         213.000
  21440881.084   -18157316.19449 -14110925.53547  21440880.367    21440889.873
       238.000         201.000
  24381038.059    -3358983.96949  -2598338.14045  24381036.620    24381051.512
       209.000         143.000
  21936918.510   -16289336.54849 -12678821.44547  21936917.208    21936926.489
       232.000         188.000
  23310764.879   -11142785.20749  -8636004.62246  23310764.204    23310775.724
       219.000         164.000
  23628747.356    -8160232.73149  -6019103.59645  23628747.169    23628759.285
       215.000         154.000
  23264812.772    -8363753.80249  -6484308.75845  23264812.106    23264824.770
       214.000         154.000
 03  2  8  0  9 30.0000000  0 10G30G15G17G 6G23G18G10G29G 5G26
  21386858.550   -22747966.26149 -17706896.71647  21386858.696    21386867.220
       238.000         197.000
  24354303.811    -5140880.46449  -3986376.84245  24354302.747    24354316.486
       209.000         145.000
  22198261.712   -11341003.32649  -8810231.92447  22198260.924    22198269.986
       234.000         192.000
  20610371.706   -24675726.07849 -19213631.30948  20610371.617    20610379.004
       245.000         214.000
  21428093.461   -18224515.05949 -14163288.15847  21428092.630    21428101.994
       238.000         201.000
  24360541.184    -3466692.92149  -2682266.45545  24360538.670    24360554.916
       210.000         144.000
  21952037.548   -16209884.89749 -12616911.05447  21952036.581    21952046.069
       232.000         188.000
  23300465.227   -11196909.72449  -8678179.39846  23300464.444    23300474.688
       217.000         164.000
  23648535.212    -8056247.12049  -5938076.02145  23648534.280    23648548.733
       213.000         155.000
  23248774.110    -8448037.21549  -6549983.92945  23248774.618    23248785.152
       216.000         154.000
 03  2  8  0 10  0.0000000  0 10G30G15G17G 6G23G18G10G29G 5G26
  21400374.446   -22676939.96549 -17651551.56547  21400375.019    21400383.563
       237.000         197.000
  24340016.544    -5215959.37149  -4044879.58345  24340015.208    24340028.943
       212.000         148.000
  22189623.585   -11386396.61249  -8845603.19747  22189622.644    22189631.757
       232.000         192.000
  20603274.725   -24713020.99349 -19242692.22948  20603274.510    20603281.792
       244.000         214.000
  21415387.044   -18291287.20149 -14215318.27447  21415386.347    21415395.596
       238.000         202.000
  24340064.995    -3574293.01749  -2766109.94145  24340063.085    24340077.867
       211.000         146.000
  21967227.370   -16130061.89849 -12554711.30647  21967226.885    21967235.189
       232.000         188.000
  23290225.295   -11250719.73749  -8720109.10746  23290224.703    23290234.480
       218.000         164.000
  23668334.144    -7952203.46749  -5857003.22245  23668334.463    23668346.790
       213.000         154.000
  23232770.133    -8532138.61349  -6615517.27745  23232770.168    23232781.714
       214.000         155.000
 03  2  8  0 10 30.0000000  0 10G30G15G17G 6G23G18G10G29G 5G26
  21413966.928   -22605510.88449 -17595892.55747  21413967.219    21413975.634
       237.000         197.000
  24325750.613    -5290925.80049  -4103294.66845  24325748.265    24325763.786
       212.000         150.000
  22181016.800   -11431624.83949  -8880845.86247  22181015.692    22181025.266
       233.000         191.000
  20596236.516   -24750006.90349 -19271512.37048  20596235.923    20596243.717
       244.000         214.000
  21402761.964   -18357631.85749 -14267015.27947  21402761.187    21402770.487
       239.000         202.000
  24319609.957    -3681782.64749  -2849867.36245  24319608.216    24319623.018
       212.000         146.000
  21982487.105   -16049871.31349 -12492225.12546  21982486.921    21982494.663
       233.000         187.000
  23280045.634   -11304213.40949  -8761792.32046  23280045.700    23280055.325
       218.000         165.000
  23688143.470    -7848105.13049  -5775887.83245  23688143.460    23688155.915
       213.000         153.000
  23216801.053    -8616055.33649  -6680906.69345  23216800.613    23216812.760
       213.000         153.000
 03  2  8  0 11  0.0000000  0 10G30G15G17G 6G23G18G10G29G 5G26
  21427635.641   -22533681.39249 -17539921.54347  21427635.986    21427644.286
       238.000         197.000
  24311506.190    -5365779.51549  -4161621.93745  24311504.795    24311519.766
       213.000         151.000
  22172441.457   -11476687.94049  -8915959.85647  22172440.609    22172450.150
       233.000         191.000
  20589257.439   -24786681.48049 -19300089.91748  20589257.234    20589264.603
       244.000         214.000
  21390218.635   -18423546.95449 -14318377.57047  21390217.930    21390227.049
       239.000         202.000
  24299176.449    -3789159.16549  -2933536.66945  24299174.512    24299189.536
       213.000         147.000
  21997816.454   -15969315.32749 -12429454.22746  21997815.729    21997823.761
       232.000         187.000
  23269926.773   -11357387.42549  -8803226.44946  23269926.235    23269936.324
       218.000         165.000
  23707962.773    -7743954.27049  -5694731.48245  23707962.979    23707976.340
       212.000         153.000
  23200867.874    -8699783.22949  -6746148.99545  23200868.743    23200878.332
       213.000         152.000
 03  2  8  0 11 30.0000000  0 10G30G15G17G 6G23G18G10G29G 5G26
  21441380.096   -22461453.84649 -17483640.36547  21441380.571    21441389.219
       237.000         197.000
  24297283.391    -5440519.98749  -4219860.95945  24297282.042    24297296.436
       215.000         153.000
  22163897.548   -11521585.95549  -8950945.22147  22163896.973    22163906.109
       233.000         191.000
  20582338.180   -24823042.64449 -19328423.24848  20582338.174    20582345.078
       245.000         214.000
  21377757.430   -18489030.73249 -14369403.77147  21377756.697    21377765.836
       239.000         202.000
  24278764.815    -3896420.36649  -3017116.13845  24278762.782    24278777.679
       215.000         147.000
  22013214.740   -15888396.66049 -12366400.70646  22013214.119    22013222.629
       233.000         187.000
  23259869.325   -11410238.83249  -8844409.19946  23259869.248    23259879.009
       218.000         165.000
  23727791.582    -7639753.25949  -5613536.08745  23727791.552    23727804.803
       210.000         152.000
  23184971.434    -8783318.44749  -6811241.14745  23184971.468    23184983.295
       212.000         152.000
 03  2  8  0 12  0.0000000  0 10G30G15G17G 6G23G18G10G29G 5G26
  21455199.649   -22388831.62449 -17427051.63947  21455200.074    21455208.095
       237.000         196.000
  24283081.945    -5515147.74449  -4278012.16645  24283080.603    24283095.071
       213.000         153.000
  22155384.782   -11566320.25149  -8985803.01447  22155383.767    22155393.303
       233.000         191.000
  20575478.724   -24859089.21149 -19356511.43148  20575478.443    20575485.799
       245.000         214.000
  21365378.374   -18554082.35949 -14420093.22247  21365377.547    21365386.776
       239.000         202.000
  24258375.454    -4003564.65849  -3100604.55345  24258373.268    24258387.212
       216.000         148.000
  22028681.476   -15807118.82249 -12303067.32146  22028680.772    22028689.370
       233.000         187.000
  23249873.733   -11462765.58549  -8885338.97446  23249873.028    23249883.037
       219.000         165.000
  23747629.284    -7535505.46449  -5532304.23745  23747629.568    23747642.840
       209.000         153.000
  23169112.194    -8866658.27649  -6876181.01445  23169111.428    23169123.528
       212.000         152.000
 03  2  8  0 12 30.0000000  0 10G30G15G17G 6G23G18G10G29G 5G26
  21469093.909   -22315816.66449 -17370156.87747  21469094.285    21469102.626
       237.000         196.000
  24268902.013    -5589662.31449  -4336075.16545  24268900.600    24268915.794
       212.000         153.000
  22146903.180   -11610890.74649  -9020533.18247  22146902.758    22146911.448
       233.000         191.000
  20568679.599   -24894818.50949 -19384352.40148  20568679.180    20568686.547
       244.000         214.000
  21353082.089   -18618699.57949 -14470444.17847  21353081.319    21353090.325
       240.000         203.000
  24238008.861    -4110589.04349  -3183999.55645  24238007.197    24238021.337
       214.000         147.000
  22044216.170   -15725483.57749 -12239455.43846  22044215.417    22044223.702
       233.000         187.000
  23239940.575   -11514964.35149  -8926013.17046  23239939.884    23239949.231
       218.000         165.000
  23767475.602    -7431212.82549  -5451037.44145  23767475.709    23767489.333
       212.000         154.000
  23153290.985    -8949798.32349  -6940965.19845  23153290.391    23153302.243
       213.000         151.000
 03  2  8  0 13  0.0000000  0 10G30G15G17G 6G23G18G10G29G 5G26
  21483062.313   -22242412.44749 -17312958.79947  21483062.485    21483071.389
       237.000         196.000
  24254743.441    -5664064.32449  -4394050.47745  24254742.061    24254757.031
       210.000         152.000
  22138452.619   -11655298.46549  -9055136.50247  22138451.789    22138461.384
       233.000         191.000
  20561941.020   -24930229.53349 -19411945.36448  20561940.835    20561948.488
       245.000         214.000
  21340868.493   -18682881.87749 -14520456.24247  21340867.655    21340876.841
       240.000         203.000
  24217665.363    -4217492.33449  -3267300.22545  24217663.670    24217676.464
       212.000         147.000
  22059818.128   -15643494.80749 -12175568.08046  22059817.486    22059825.834
       232.000         187.000
  23230070.112   -11566833.31849  -8966430.38346  23230069.937    23230078.857
       219.000         164.000
  23787329.803    -7326878.88349  -5369738.47445  23787329.704    23787343.440
       211.000         155.000
  23137508.217    -9032736.00949  -7005591.66045  23137507.757    23137520.248
       214.000         152.000
 03  2  8  0 13 30.0000000  0 10G30G15G17G 6G23G18G10G29G 5G26
  21497104.264   -22168621.29949 -17255459.22447  21497104.584    21497113.101
       237.000         196.000
  24240606.395    -5738353.31749  -4451937.69445  24240605.138    24240620.236
       212.000         151.000
  22130032.955   -11699543.35549  -9089612.95047  22130032.028    22130040.938
       233.000         191.000
  20555263.562   -24965319.87949 -19439288.44748  20555263.467    20555270.819
       244.000         214.000
  21328738.068   -18746627.19449 -14570127.79347  21328737.632    21328746.119
       240.000         203.000
  24197345.368    -4324271.81249  -3350504.45645  24197342.119    24197358.137
       209.000         145.000
  22075486.949   -15561154.74049 -12111406.98046  22075486.409    22075495.462
       233.000         187.000
  23220263.121   -11618368.99549  -9006587.89746  23220263.126    23220271.932
       217.000         164.000
  23807191.441    -7222505.66249  -5288408.88745  23807191.794    23807204.764
       212.000         156.000
  23121764.955    -9115466.98749  -7070057.02545  23121764.605    23121775.392
       214.000         152.000
 03  2  8  0 14  0.0000000  0 10G30G15G17G 6G23G18G10G29G 5G26
  21511219.405   -22094445.89849 -17197660.22947  21511219.982    21511228.330
       238.000         197.000
  24226490.841    -5812529.50749  -4509737.01945  24226490.160    24226504.656
       212.000         151.000
  22121644.263   -11743625.73749  -9123962.77347  22121643.865    22121652.726
       234.000         192.000
  20548647.407   -25000087.82049 -19466380.30348  20548647.048    20548654.479
       244.000         214.000
  21316691.073   -18809934.14849 -14619457.77047  21316690.292    21316698.665
       241.000         204.000
  24177049.288    -4430925.28649  -3433610.54145  24177047.548    24177060.692
       211.000         144.000
  22091222.143   -15478466.10749 -12046974.28446  22091221.256    22091229.583
       232.000         187.000
  23210519.943   -11669569.08949  -9046483.89846  23210520.201    23210529.096
       218.000         164.000
  23827060.222    -7118095.90349  -5207050.82845  23827060.150    23827074.019
       215.000         158.000
  23106061.389    -9197988.03149  -7134358.80445  23106060.907    23106071.983
       216.000         153.000
 03  2  8  0 14 30.0000000  0 10G30G15G17G 6G23G18G10G29G 5G26
  21525407.125   -22019889.38449 -17139564.26447  21525407.930    21525416.112
       237.000         197.000
  24212396.813    -5886593.42749  -4567448.88145  24212395.567    24212409.912
       215.000         150.000
  22113286.305   -11787546.83349  -9158186.92047  22113285.501    22113294.983
       234.000         192.000
  20542092.764   -25034532.05449 -19493219.92148  20542092.385    20542099.937
       244.000         214.000
  21304727.726   -18872801.78849 -14668445.42047  21304727.314    21304735.942
       241.000         204.000
  24156777.679    -4537451.13549  -3516617.20745  24156774.713    24156788.317
       207.000         142.000
  22107022.940   -15395432.31749 -11982272.63446  22107022.087    22107030.670
       232.000         187.000
  23200841.058   -11720431.33349  -9086116.65546  23200840.892    23200849.923
       218.000         165.000
  23846935.395    -7013652.69349  -5125666.71145  23846935.640    23846948.611
       215.000         158.000
  23090398.552    -9280295.91049  -7198494.45745  23090397.740    23090408.647
       215.000         154.000
 03  2  8  0 15  0.0000000  0 10G30G15G17G 6G23G18G10G29G 5G26
  21539666.762   -21944954.46649 -17081173.43847  21539666.899    21539675.589
       236.000         196.000
  24198324.130    -5960544.99149  -4625073.18945  24198323.040    24198336.951
       215.000         149.000
  22104959.050   -11831306.45649  -9192285.24747  22104958.466    22104967.338
       235.000         192.000
  20535600.196   -25068650.47149 -19519805.65448  20535600.110    20535607.363
       244.000         214.000
  21292848.245   -18935228.45549 -14717089.46547  21292847.438    21292856.056
       241.000         204.000
  24136530.840    -4643847.00749  -3599522.61345  24136529.818    24136542.611
       208.000         141.000
  22122888.797   -15312056.11549 -11917304.16446  22122887.823    22122896.475
       232.000         186.000
  23191226.971   -11770952.83249  -9125483.88946  23191226.038    23191236.163
       217.000         165.000
  23866816.368    -6909178.47149  -5044258.44545  23866816.407    23866830.259
       216.000         159.000
  23074776.900    -9362387.10349  -7262461.23145  23074775.855    23074787.255
       216.000         155.000
 03  2  8  0 15 30.0000000  0 10G30G15G17G 6G23G18G10G29G 5G26
  21553997.948   -21869643.52149 -17022489.60347  21553998.297    21554007.004
       237.000         195.000
  24184272.881    -6034384.01249  -4682609.80245  24184271.557    24184284.977
       216.000         149.000
  22096662.589   -11874904.40749  -9226257.60347  22096661.859    22096671.220
       234.000         192.000
  20529170.117   -25102440.95149 -19546135.85048  20529170.101    20529177.379
       244.000         214.000
  21281052.999   -18997212.54549 -14765388.64747  21281052.044    21281061.280
       240.000         205.000
  24116309.240    -4750110.51849  -3682324.93045  24116307.408    24116320.593
       208.000         139.000
  22138819.517   -15228339.95849 -11852070.81146  22138819.364    22138827.415
       232.000         186.000
  23181678.268   -11821130.75249  -9164583.38646  23181677.469    23181687.554
       219.000         165.000
  23886702.752    -6804675.61449  -4962827.86445  23886702.870    23886716.495
       216.000         159.000
  23059197.299    -9444257.69149  -7326256.13045  23059197.500    23059207.698
       216.000         156.000
 03  2  8  0 16  0.0000000  0 10G30G15G17G 6G23G18G10G29G 5G26
  21568400.158   -21793959.71349 -16963515.22647  21568400.747    21568409.046
       237.000         195.000
  24170242.997    -6108110.68849  -4740058.88345  24170241.840    24170256.047
       217.000         148.000
  22088396.546   -11918342.45149  -9260105.34147  22088395.952    22088404.873
       234.000         192.000
  20522802.631   -25135902.07049 -19572209.39848  20522802.300    20522809.698
       244.000         214.000
  21269342.112   -19058753.07649 -14813342.20047  21269341.491    21269350.537
       240.000         205.000
  24096113.064    -4856240.07149  -3765022.87845  24096111.079    24096124.051
       208.000         138.000
  22154814.325   -15144286.97149 -11786574.98946  22154813.112    22154822.486
       231.000         186.000
  23172195.362   -11870962.96949  -9203413.51046  23172195.063    23172204.417
       218.000         165.000
  23906594.005    -6700147.22049  -4881377.38045  23906594.309    23906608.479
       216.000         159.000
  23043660.178    -9525904.71549  -7389876.81445  23043659.407    23043669.924
       218.000         156.000
 03  2  8  0 16 30.0000000  0 10G30G15G17G 6G23G18G10G29G 5G26
  21582872.715   -21717905.87549 -16904252.51147  21582873.408    21582881.551
       237.000         195.000
  24156234.490    -6181725.01849  -4797420.43445  24156233.288    24156246.145
       217.000         146.000
  22080160.897   -11961620.57649  -9293828.46747  22080160.293    22080168.989
       234.000         192.000
  20516498.181   -25169031.85449 -19598024.75748  20516497.934    20516505.214
       244.000         214.000
  21257715.907   -19119848.74349 -14860949.10347  21257715.120    21257723.856
       241.000         205.000
  24075942.775    -4962233.26749  -3847614.62445  24075942.632    24075953.773
       208.000         139.000
  22170872.699   -15059899.97349 -11720818.89946  22170871.615    22170880.275
       232.000         185.000
  23162778.706   -11920446.68549  -9241972.07146  23162778.042    23162787.611
       218.000         165.000
  23926489.688    -6595595.70949  -4799908.89445  23926490.066    23926504.174
       217.000         159.000
  23028166.375    -9607324.34949  -7453320.33245  23028165.473    23028176.179
       218.000         158.000
 03  2  8  0 17  0.0000000  0 10G30G15G17G 6G23G18G10G29G 5G26
  21597415.287   -21641484.07749 -16844703.07647  21597415.800    21597424.251
       236.000         194.000
  24142247.364    -6255226.77149  -4854694.26145  24142246.441    24142259.338
       215.000         145.000
  22071955.756   -12004738.58749  -9327426.83947  22071954.794    22071963.802
       233.000         192.000
  20510257.254   -25201827.90749 -19623580.07648  20510257.184    20510264.379
       245.000         214.000
  21246174.746   -19180497.57949 -14908207.83647  21246174.130    21246182.632
       241.000         206.000
  24055799.011    -5068087.21749  -3930097.85645  24055798.467    24055811.318
       210.000         141.000
  22186994.040   -14975181.17949 -11654804.26146  22186993.374    22187001.967
       231.000         185.000
  23153428.992   -11969578.78849  -9280256.66046  23153428.115    23153437.876
       219.000         165.000
  23946389.387    -6491023.20249  -4718424.06545  23946389.689    23946402.748
       216.000         158.000
  23012716.489    -9688512.62549  -7516583.56745  23012715.848    23012724.476
       217.000         158.000
 03  2  8  0 17 30.0000000  0 10G30G15G17G 6G23G18G10G29G 5G26
  21612027.253   -21564697.82049 -16784869.64347  21612027.864    21612036.283
       236.000         194.000
  24128281.565    -6328616.85949  -4911881.04745  24128280.129    24128293.812
       216.000         145.000
  22063780.821   -12047697.59249  -9360901.29247  22063780.083    22063789.139
       234.000         192.000
  20504080.089   -25234289.08849 -19648874.44448  20504079.961    20504087.201
       244.000         215.000
  21234718.699   -19240698.86949 -14955117.82447  21234717.921    21234726.791
       240.000         206.000
  24035682.065    -5173800.64949  -4012471.59945  24035680.744    24035694.302
       212.000         144.000
  22203178.049   -14890134.07049 -11588533.79946  22203177.400    22203186.142
       231.000         184.000
  23144146.648   -12018357.32749  -9318265.74046  23144145.671    23144155.760
       219.000         165.000
  23966292.427    -6386432.84049  -4636925.31345  23966292.701    23966305.715
       215.000         156.000
  22997311.004    -9769466.77049  -7579664.39145  22997309.754    22997321.185
       219.000         159.000
 03  2  8  0 18  0.0000000  0 10G30G15G17G 6G23G18G10G29G 5G26
  21626708.165   -21487549.53749 -16724754.11747  21626708.761    21626717.028
       235.000         193.000
  24114337.040    -6401894.56549  -4968980.27945  24114335.193    24114348.668
       215.000         144.000
  22055636.186   -12090497.69149  -9394251.93347  22055635.561    22055644.230
       233.000         192.000
  20497967.015   -25266413.22449 -19673906.18848  20497966.863    20497974.205
       244.000         215.000
  21223348.115   -19300451.14749 -15001677.93547  21223347.362    21223356.088
       241.000         206.000
  24015592.545    -5279370.81049  -4094733.71145  24015592.012    24015604.108
       214.000         148.000
  22219423.938   -14804761.07449 -11522009.40346  22219423.123    22219432.578
       230.000         184.000
  23134932.102   -12066779.45849  -9355997.11146  23134931.880    23134941.345
       219.000         166.000
  23986198.423    -6281826.99649  -4555414.49945  23986198.230    23986212.111
       215.000         154.000
  22981950.962    -9850182.83349  -7642559.71645  22981951.206    22981961.020
       221.000         161.000
 03  2  8  0 18 30.0000000  0 10G30G15G17G 6G23G18G10G29G 5G26
  21641457.327   -21410041.99749 -16664358.66147  21641457.741    21641466.043
       234.000         193.000
  24100413.775    -6475060.01849  -5025992.02445  24100411.242    24100425.433
       209.000         144.000
  22047521.686   -12133139.33449  -9427479.09447  22047521.528    22047529.695
       234.000         192.000
  20491918.438   -25298198.42549 -19698673.82148  20491918.160    20491925.485
       244.000         215.000
  21212063.319   -19359752.91549 -15047887.00447  21212062.575    21212071.443
       242.000         206.000
  23995530.591    -5384795.89849  -4176882.78345  23995528.911    23995542.540
       216.000         151.000
  22235731.381   -14719065.09049 -11455233.32146  22235730.604    22235739.540
       230.000         184.000
  23125785.973   -12114842.32749  -9393448.53446  23125785.212    23125794.367
       219.000         166.000
  24006106.862    -6177208.23349  -4473893.62145  24006107.178    24006120.456
       212.000         151.000
  22966637.043    -9930657.05649  -7705266.61045  22966635.859    22966645.986
       219.000         162.000
 03  2  8  0 19  0.0000000  0 10G30G15G17G 6G23G18G10G29G 5G26
  21656274.320   -21332178.12549 -16603685.53747  21656274.353    21656283.159
       235.000         193.000
  24086511.764    -6548113.48749  -5082916.48045  24086511.365    24086523.345
       211.000         143.000
  22039437.236   -12175623.16549  -9460583.29247  22039436.695    22039445.648
       235.000         193.000
  20485934.687   -25329643.10849 -19723176.12348  20485934.543    20485941.686
       244.000         215.000
  21200864.401   -19418603.22749 -15093744.29047  21200863.588    21200872.282
       242.000         206.000
  23975496.671    -5490073.77049  -4258917.11545  23975495.730    23975508.004
       217.000         153.000
  22252099.610   -14633049.15449 -11388207.93146  22252098.643    22252107.807
       230.000         183.000
  23116708.621   -12162543.83849  -9430618.37946  23116708.576    23116717.823
       219.000         166.000
  24026017.145    -6072579.20549  -4392364.75445  24026016.905    24026030.816
       213.000         149.000
  22951369.624   -10010886.33049  -7767782.65646  22951369.587    22951379.386
       221.000         163.000
 03  2  8  0 19 30.0000000  0 10G30G15G17G 6G23G18G10G29G 5G26
  21671158.502   -21253961.35249 -16542737.42147  21671158.749    21671167.317
       235.000         192.000
  24072631.112    -6621055.33949  -5139753.97745  24072629.355    24072643.803
       209.000         144.000
  22031382.738   -12217949.65449  -9493564.88147  22031382.231    22031390.734
       235.000         193.000
  20480015.996   -25360745.89749 -19747412.00648  20480015.800    20480022.998
       244.000         215.000
  21189751.584   -19477001.25349 -15139249.14047  21189751.091    21189759.621
       242.000         207.000
  23955491.143    -5595202.64849  -4340835.33245  23955489.740    23955503.039
       217.000         155.000
  22268528.239   -14546716.46849 -11320935.71846  22268527.569    22268536.302
       231.000         183.000
  23107700.463   -12209881.85049  -9467504.99946  23107700.472    23107709.242
       221.000         166.000
  24045928.906    -5967943.06349  -4310830.33845  24045929.359    24045943.372
       210.000         147.000
  22936149.526   -10090867.40449  -7830105.31846  22936149.184    22936159.563
       220.000         164.000
 03  2  8  0 20  0.0000000  0 10G30G15G17G 6G23G18G10G29G 5G26
  21686109.383   -21175394.00449 -16481516.12647  21686109.909    21686118.635
       235.000         192.000
  24058771.657    -6693885.36949  -5196504.34645  24058768.961    24058783.400
       209.000         143.000
  22023358.103   -12260119.33649  -9526424.28947  22023357.537    22023366.187
       236.000         194.000
  20474162.768   -25391504.62749 -19771379.79848  20474162.502    20474169.724
       244.000         215.000
  21178725.104   -19534945.42749 -15184400.33847  21178724.244    21178732.999
       242.000         207.000
  23935514.299    -5700180.35849  -4422635.74445  23935513.219    23935525.853
       216.000         156.000
  22285016.663   -14460069.41649 -11253418.53946  22285015.705    22285024.055
       229.000         183.000
  23098762.009   -12256853.38049  -9504106.03746  23098761.410    23098770.791
       221.000         166.000
  24065841.696    -5863301.98649  -4229292.09145  24065841.575    24065855.455
       210.000         146.000
  22920977.304   -10170596.47049  -7892231.62446  22920977.228    22920986.043
       221.000         164.000
 03  2  8  0 20 30.0000000  0 10G30G15G17G 6G23G18G10G29G 5G26
  21701126.504   -21096478.55149 -16420023.59047  21701127.292    21701135.653
       234.000         192.000
  24044933.641    -6766603.20949  -5253167.28245  24044933.569    24044946.115
       210.000         144.000
  22015363.291   -12302132.25949  -9559161.52847  22015362.492    22015371.497
       235.000         194.000
  20468375.351   -25421917.27849 -19795077.91948  20468375.189    20468382.307
       244.000         214.000
  21167785.202   -19592434.18749 -15229196.67147  21167784.608    21167792.972
       243.000         207.000
  23915566.705    -5805004.26849  -4504316.29445  23915564.999    23915576.908
       217.000         157.000
  22301564.324   -14373110.57349 -11185658.40946  22301563.859    22301572.217
       231.000         182.000
  23089893.750   -12303455.76749  -9540419.44646  23089893.639    23089901.960
       221.000         166.000
  24085754.865    -5758658.25649  -4147751.76845  24085754.689    24085769.107
       206.000         144.000
  22905853.922   -10250069.54849  -7954158.47946  22905853.628    22905864.236
       221.000         165.000
 03  2  8  0 21  0.0000000  0 10G30G15G17G 6G23G18G10G29G 5G26
  21716209.221   -21017218.74449 -16358262.72647  21716209.461    21716218.049
       235.000         192.000
  24031116.934    -6839209.77249  -5309743.53145  24031114.606    24031129.409
       211.000         145.000
  22007398.078   -12343989.43849  -9591777.42047  22007397.366    22007405.941
       235.000         194.000
  20462654.080   -25451982.70449 -19818505.48148  20462653.860    20462660.999
       244.000         214.000
  21156932.204   -19649467.06149 -15273637.77047  21156931.551    21156939.991
       243.000         207.000
  23895648.585    -5909672.95649  -4585875.89045  23895647.418    23895659.213
       216.000         156.000
  22318170.798   -14285843.48549 -11117658.07746  22318169.663    22318179.245
       230.000         182.000
  23081096.137   -12349687.11349  -9576443.74346  23081095.060    23081104.992
       220.000         166.000
  24105667.997    -5654015.13349  -4066211.94345  24105668.583    24105682.299
       207.000         142.000
  22890779.775   -10329283.86049  -8015883.69746  22890779.103    22890790.010
       220.000         166.000
 03  2  8  0 21 30.0000000  0 10G30G15G17G 6G23G18G10G29G 5G26
  21731356.866   -20937617.31749 -16296235.65647  21731357.164    21731365.879
       234.000         191.000
  24017321.299    -6911705.29749  -5366233.26445  24017320.885    24017333.253
       212.000         145.000
  21999462.404   -12385691.34949  -9624272.32247  21999461.560    21999470.294
       235.000         194.000
  20456999.240   -25481699.07249 -19841661.04948  20456999.024    20457006.021
       244.000         214.000
  21146166.097   -19706042.89149 -15317722.72647  21146165.194    21146173.794
       242.000         207.000
  23875760.426    -6014184.33049  -4667312.88045  23875759.186    23875771.503
       215.000         157.000
  22334835.320   -14198270.88549 -11049419.69346  22334834.526    22334843.390
       229.000         182.000
  23072369.482   -12395544.93849  -9612176.99646  23072368.851    23072378.151
       221.000         166.000
  24125580.417    -5549375.31849  -3984674.68445  24125580.888    24125594.711
       208.000         141.000
  22875755.444   -10408235.99949  -8077404.62746  22875754.705    22875764.945
       220.000         166.000
 03  2  8  0 22  0.0000000  0 10G30G15G17G 6G23G18G10G29G 5G26
  21746569.141   -20857676.35949 -16233944.02747  21746569.233    21746578.231
       234.000         191.000
  24003547.009    -6984088.97549  -5422635.85345  24003546.171    24003559.171
       213.000         147.000
  21991556.302   -12427237.76549  -9656646.05647  21991555.343    21991564.321
       235.000         194.000
  20451411.298   -25511063.68849 -19864542.53448  20451411.163    20451417.928
       244.000         214.000
  21135487.316   -19762159.71649 -15361450.02047  21135486.467    21135495.014
       242.000         207.000
  23855902.731    -6118535.64149  -4748625.15745  23855902.133    23855913.839
       215.000         156.000
  22351557.540   -14110394.91149 -10980944.91546  22351556.409    22351565.234
       228.000         181.000
  23063714.629   -12441025.87749  -9647616.57446  23063714.143    23063721.889
       220.000         167.000
  24145491.940    -5444740.55949  -3903141.36745  24145492.533    24145505.421
       209.000         143.000
  22860781.940   -10486921.53649  -8138717.81946  22860781.390    22860791.516
       222.000         166.000
 03  2  8  0 22 30.0000000  0 10G30G15G17G 6G23G18G10G29G 5G26
  21761845.257   -20777399.67549 -16171390.79547  21761845.518    21761854.251
       235.000         191.000
  23989793.849    -7056361.75049  -5478952.04745  23989792.832    23989805.122
       215.000         150.000
  21983679.585   -12468629.72049  -9688899.43947  21983678.656    21983687.136
       235.000         194.000
  20445890.469   -25540075.71749 -19887149.27048  20445890.335    20445897.306
       245.000         214.000
  21124895.933   -19817817.31649 -15404819.47147  21124895.189    21124903.757
       243.000         207.000
  23836075.828    -6222725.38649  -4829811.52245  23836074.609    23836086.760
       215.000         156.000
  22368336.737   -14022219.25449 -10912236.61046  22368335.853    22368345.076
       229.000         181.000
  23055131.863   -12486128.50049  -9682761.36146  23055131.055    23055140.111
       220.000         167.000
  24165401.839    -5340114.36749  -3821614.74045  24165402.710    24165417.135
       212.000         144.000
  22845859.626   -10565337.90949  -8199821.28146  22845858.831    22845868.357
       219.000         166.000
 03  2  8  0 23  0.0000000  0 10G30G15G17G 6G23G18G10G29G 5G26
  21777184.962   -20696789.54649 -16108577.73247  21777185.298    21777194.291
       235.000         192.000
  23976061.799    -7128523.29549  -5535181.56645  23976060.029    23976073.198
       213.000         148.000
  21975832.221   -12509867.45349  -9721032.64347  21975831.319    21975840.251
       235.000         194.000
  20440437.180   -25568732.92749 -19909479.53048  20440437.050    20440443.953
       244.000         215.000
  21114392.199   -19873014.15949 -15447829.89647  21114391.601    21114399.877
       243.000         208.000
  23816280.071    -6326751.16849  -4910870.13845  23816279.193    23816290.890
       213.000         154.000
  22385172.625   -13933746.14549 -10843296.54046  22385171.478    22385180.306
       229.000         181.000
  23046621.492   -12530849.79649  -9717609.01146  23046621.656    23046629.816
       221.000         167.000
  24185309.723    -5235498.60949  -3740096.23245  24185309.649    24185323.017
       213.000         145.000
  22830989.220   -10643481.00149  -8260711.79846  22830988.675    22830999.326
       219.000         166.000
 03  2  8  0 23 30.0000000  0 10G30G15G17G 6G23G18G10G29G 5G26
  21792587.299   -20615849.77249 -16045507.80447  21792587.436    21792596.368
       234.000         191.000
  23962350.667    -7200574.44149  -5591325.07345  23962349.141    23962362.005
       214.000         149.000
  21968014.011   -12550951.82049  -9753046.34447  21968013.331    21968022.224
       235.000         194.000
  20435051.586   -25597034.18249 -19931532.41748  20435051.398    20435058.287
       244.000         214.000
  21103976.288   -19927749.79749 -15490480.93547  21103975.432    21103983.997
       242.000         208.000
  23796515.760    -6430611.76249  -4991800.04345  23796514.206    23796525.478
       212.000         152.000
  22402064.450   -13844979.23149 -10774127.51946  22402063.884    22402073.201
       229.000         181.000
  23038184.113   -12575188.16549  -9752158.28946  23038184.237    23038192.704
       220.000         168.000
  24205215.044    -5130896.68149  -3658588.51245  24205216.078    24205229.375
       212.000         146.000
  22816171.416   -10721348.18949  -8321387.32946  22816170.864    22816181.374
       221.000         166.000
 03  2  8  0 24  0.0000000  0 10G30G15G17G 6G23G18G10G29G 5G26
  21808052.049   -20534581.92649 -15982182.23547  21808052.619    21808061.098
       234.000         191.000
  23948660.794    -7272514.25949  -5647381.84545  23948659.508    23948672.908
       211.000         149.000
  21960225.137   -12591882.32549  -9784940.15747  21960224.243    21960232.929
       235.000         194.000
  20429734.300   -25624976.46449 -19953305.58948  20429734.189    20429741.086
       244.000         214.000
  21093648.550   -19982021.89349 -15532770.77447  21093648.031    21093656.332
       242.000         207.000
  23776783.402    -6534303.73449  -5072598.55945  23776781.717    23776793.677
       212.000         151.000
  22419011.862   -13755919.96949 -10704730.70446  22419011.601    22419020.539
       230.000         182.000
  23029820.248   -12619139.77449  -9786406.19946  23029819.368    23029828.234
       220.000         168.000
  24225117.428    -5026309.99949  -3577092.68645  24225117.350    24225132.300
       212.000         145.000
  22801407.088   -10798934.72049  -8381844.16346  22801407.584    22801416.383
       222.000         167.000
 03  2  8  0 24 30.0000000  0 10G30G15G17G 6G23G18G10G29G 5G26
  21823578.599   -20452989.58749 -15918603.81247  21823579.021    21823587.368
       234.000         191.000
  23934992.029    -7344343.21849  -5703352.21345  23934990.951    23935003.479
       212.000         149.000
  21952465.303   -12632659.99849  -9816714.88547  21952464.415    21952472.979
       235.000         194.000
  20424485.531   -25652558.85349 -19974798.31748  20424485.213    20424492.415
       245.000         215.000
  21083409.041   -20035830.32749 -15574699.31747  21083408.380    21083416.981
       243.000         208.000
  23757083.437    -6637825.74449  -5153264.65345  23757081.275    23757092.561
       209.000         149.000
  22436014.152   -13666572.12449 -10635109.01446  22436013.311    22436022.288
       228.000         181.000
  23021530.284   -12662703.24949  -9820351.65746  23021529.867    23021538.463
       221.000         168.000
  24245016.342    -4921741.69849  -3495611.19545  24245017.094    24245030.895
       212.000         145.000
  22786696.809   -10876237.58949  -8442079.95246  22786697.398    22786706.005
       222.000         167.000
 03  2  8  0 25  0.0000000  0 10G30G15G17G 6G23G18G10G29G 5G26
  21839166.427   -20371075.18049 -15854774.42947  21839166.699    21839175.271
       233.000         190.000
  23921344.462    -7416060.65249  -5759235.70245  23921341.910    23921356.720
       212.000         150.000
  21944734.611   -12673284.87549  -9848370.55247  21944733.907    21944742.424
       235.000         194.000
  20419305.679   -25679778.95749 -19996008.75148  20419305.549    20419312.453
       244.000         215.000
  21073258.099   -20089173.41749 -15616265.26047  21073257.138    21073265.884
       243.000         208.000
  23737416.171    -6741175.37649  -5233796.44045  23737414.560    23737425.791
       211.000         146.000
  22453070.909   -13576937.81949 -10565264.11646  22453070.273    22453079.128
       229.000         181.000
  23013314.868   -12705875.29649  -9853992.11946  23013314.684    23013323.052
       220.000         168.000
  24264911.394    -4817193.75649  -3414145.57845  24264910.962    24264926.588
       213.000         146.000
  22772041.062   -10953253.10549  -8502091.83246  22772040.005    22772050.431
       221.000         166.000
 03  2  8  0 25 30.0000000  0 10G30G15G17G 6G23G18G10G29G 5G26
  21854814.749   -20288842.31149 -15790696.88947  21854814.876    21854823.793
       233.000         190.000
  23907717.823    -7487667.68049  -5815033.14645  23907716.103    23907729.468
       210.000         150.000
  21937032.800   -12713757.71849  -9879907.75647  21937032.149    21937040.449
       235.000         194.000
  20414194.940   -25706635.77849 -20016936.10848  20414194.807    20414201.808
       245.000         215.000
  21063195.736   -20142050.89849 -15657468.39647  21063194.964    21063203.236
       242.000         208.000
  23717782.245    -6844350.97549  -5314192.63245  23717781.571    23717792.819
       213.000         146.000
  22470181.722   -13487020.59849 -10495198.76246  22470180.508    22470189.509
       229.000         181.000
  23005174.105   -12748654.63949  -9887326.55246  23005173.460    23005182.659
       220.000         168.000
  24284801.917    -4712669.46449  -3332698.40045  24284802.551    24284817.383
       215.000         147.000
  22757440.540   -11029978.21349  -8561877.43446  22757440.142    22757449.526
       221.000         167.000
 03  2  8  0 26  0.0000000  0 10G30G15G17G 6G23G18G10G29G 5G26
  21870523.210   -20206293.92849 -15726373.50347  21870523.851    21870531.805
       234.000         189.000
  23894112.347    -7559164.45349  -5870744.66645  23894111.431    23894123.609
       213.000         152.000
  21929359.805   -12754079.17849  -9911327.00547  21929359.380    21929367.145
       235.000         194.000
  20409153.714   -25733127.52449 -20037578.98348  20409153.587    20409160.317
       245.000         215.000
  21053222.134   -20194461.78249 -15698307.93547  21053221.318    21053229.628
       242.000         207.000
  23698181.846    -6947350.49749  -5394451.65245  23698180.931    23698190.593
       212.000         144.000
  22487345.697   -13396823.25349 -10424915.12146  22487345.365    22487353.653
       229.000         181.000
  22997108.624   -12791038.65649  -9920352.94646  22997108.863    22997117.124
       220.000         169.000
  24304687.505    -4608171.40149  -3251271.66145  24304688.204    24304703.110
       215.000         149.000
  22742895.804   -11106409.59149  -8621434.14446  22742895.111    22742904.483
       222.000         167.000
 03  2  8  0 26 30.0000000  0 10G30G15G17G 6G23G18G10G29G 5G26
  21886291.247   -20123432.68449 -15661806.32247  21886291.795    21886299.701
       234.000         189.000
  23880527.773    -7630550.69749  -5926370.05045  23880526.126    23880539.231
       212.000         153.000
  21921715.637   -12794249.41649  -9942628.42047  21921714.943    21921723.526
       234.000         194.000
  20404182.361   -25759252.15149 -20057935.79948  20404182.039    20404189.031
       245.000         215.000
  21043337.649   -20246404.86649 -15738782.96747  21043337.101    21043345.218
       242.000         208.000
  23678615.393    -7050171.67449  -5474571.70745  23678614.466    23678625.445
       211.000         143.000
  22504562.467   -13306348.64049 -10354415.42946  22504561.516    22504570.680
       228.000         181.000
  22989118.890   -12833024.68749  -9953069.21946  22989118.225    22989126.493
       220.000         169.000
  24324567.750    -4503701.83249  -3169867.15445  24324568.312    24324583.268
       215.000         150.000
  22728407.882   -11182543.33449  -8680758.95146  22728407.401    22728417.762
       222.000         167.000
 03  2  8  0 27  0.0000000  0 10G30G15G17G 6G23G18G10G29G 5G26
  21902118.207   -20040261.48949 -15596997.61747  21902118.379    21902127.265
       234.000         189.000
  23866964.143    -7701826.69049  -5981909.51245  23866963.185    23866975.458
       214.000         154.000
  21914099.864   -12834269.66649  -9973812.96147  21914099.045    21914107.992
       235.000         194.000
  20399281.170   -25785007.94649 -20078005.21248  20399281.032    20399287.925
       245.000         215.000
  21033542.303   -20297879.28649 -15778892.80447  21033541.832    21033549.939
       242.000         209.000
  23659083.210    -7152812.51649  -5554551.24245  23659080.799    23659092.733
       211.000         144.000
  22521831.446   -13215599.48749 -10283701.81246  22521830.371    22521839.912
       228.000         180.000
  22981205.265   -12874610.54949  -9985473.66246  22981204.963    22981213.525
       221.000         169.000
  24344442.036    -4399263.24249  -3088486.78045  24344441.944    24344457.696
       215.000         150.000
  22713977.332   -11258376.09149  -8739849.22346  22713976.981    22713986.980
       221.000         167.000
 03  2  8  0 27 30.0000000  0 10G30G15G17G 6G23G18G10G29G 5G26
  21918003.604   -19956783.17349 -15531949.60847  21918003.782    21918012.379
       233.000         189.000
  23853421.636    -7772992.35149  -6037363.01945  23853420.061    23853433.149
       215.000         156.000
  21906512.947   -12874139.21949 -10004880.08747  21906512.857    21906520.363
       235.000         194.000
  20394450.501   -25810393.17349 -20097785.86848  20394450.296    20394457.146
       245.000         215.000
  21023836.397   -20348883.85749 -15818636.52647  21023835.512    21023843.979
       242.000         209.000
  23639585.702    -7255270.76449  -5634388.49545  23639584.246    23639595.418
       212.000         146.000
  22539152.262   -13124578.42149 -10212776.31446  22539151.180    22539159.871
       227.000         180.000
  22973368.318   -12915793.80849 -10017564.39246  22973367.639    22973376.378
       220.000         169.000
  24364309.917    -4294858.08449  -3007132.46045  24364310.449    24364325.698
       214.000         151.000
  22699604.746   -11333904.19649  -8798702.12246  22699604.721    22699613.597
       222.000         167.000
 03  2  8  0 28  0.0000000  0 10G30G15G17G 6G23G18G10G29G 5G26
  21933946.871   -19873000.83249 -15466664.69247  21933947.494    21933955.926
       233.000         188.000
  23839899.878    -7844048.08649  -6092730.84945  23839897.952    23839911.460
       215.000         157.000
  21898954.506   -12913858.89449 -10035830.41447  21898954.130    21898962.049
       235.000         194.000
  20389690.713   -25835406.13649 -20117276.45448  20389690.551    20389697.344
       245.000         216.000
  21014220.050   -20399417.78449 -15858013.51847  21014219.399    21014227.666
       242.000         209.000
  23620123.324    -7357544.27449  -5714081.82645  23620122.380    23620133.156
       216.000         147.000
  22556524.130   -13033288.51849 -10141641.34246  22556523.254    22556532.443
       227.000         179.000
  22965608.322   -12956572.35249 -10049339.75246  22965607.751    22965617.576
       220.000         169.000
  24384170.911    -4190489.11249  -2925806.34245  24384170.980    24384187.066
       212.000         150.000
  22685290.704   -11409124.39649  -8857315.09246  22685289.751    22685300.232
       221.000         168.000
 03  2  8  0 28 30.0000000  0 10G30G15G17G 6G23G18G10G29G 5G26
  21949947.458   -19788917.22049 -15401145.01247  21949947.777    21949956.387
       233.000         188.000
  23826399.172    -7914993.71949  -6148012.88645  23826398.657    23826410.491
       218.000         159.000
  21891424.532   -12953428.95449 -10066664.15647  21891424.092    21891432.517
       236.000         195.000
  20385002.107   -25860044.78549 -20136475.36248  20385002.037    20385009.007
       245.000         216.000
  21004693.494   -20449479.87649 -15897022.84647  21004692.924    21004701.137
       242.000         209.000
  23600696.669    -7459631.10949  -5793629.72045  23600696.188    23600706.646
       216.000         150.000
  22573946.707   -12941732.09149 -10070298.66746  22573945.992    22573954.739
       226.000         179.000
  22957925.864   -12996943.43349 -10080797.59646  22957925.869    22957934.700
       220.000         170.000
  24404024.648    -4086158.44949  -2844510.11545  24404024.585    24404040.587
       210.000         150.000
  22671035.717   -11484032.87149  -8915685.16446  22671035.129    22671045.245
       221.000         168.000
 03  2  8  0 29  0.0000000  0 10G30G15G17G 6G23G18G10G29G 5G26
  21966004.741   -19704535.61249 -15335393.13046  21966005.291    21966013.314
       233.000         187.000
  23812919.445    -7985829.58849  -6203209.41845  23812918.460    23812930.718
       217.000         160.000
  21883922.916   -12992850.36949 -10097382.07547  21883922.266    21883930.833
       236.000         196.000
  20380384.950   -25884308.03049 -20155381.74948  20380384.843    20380391.683
       246.000         216.000
  20995256.851   -20499069.74049 -15935664.20047  20995256.117    20995264.353
       242.000         210.000
  23581305.807    -7561529.70549  -5873030.92045  23581304.623    23581315.617
       218.000         151.000
  22591419.392   -12849912.47349  -9998750.91946  22591418.796    22591427.048
       226.000         178.000
  22950321.275   -13036905.21049 -10111936.51146  22950321.153    22950329.799
       219.000         170.000
  24423870.467    -3981868.98949  -2763245.97445  24423870.097    24423886.520
       208.000         148.000
  22656840.804   -11558626.53849  -8973809.95346  22656840.945    22656850.145
       221.000         168.000
 03  2  8  0 29 30.0000000  0 10G30G15G17G 6G23G18G10G29G 5G26
  21982118.212   -19619858.66649 -15269411.11546  21982119.046    21982127.310
       233.000         187.000
  23799460.595    -8056555.60749  -6258320.34045  23799458.947    23799471.611
       217.000         162.000
  21876449.434   -13032123.39849 -10127984.36847  21876449.099    21876457.280
       236.000         196.000
  20375839.636   -25908193.88349 -20173994.06648  20375839.570    20375846.237
       245.000         216.000
  20985910.172   -20548186.38249 -15973936.81247  20985909.487    20985917.499
       242.000         210.000
  23561951.236    -7663237.57149  -5952283.51645  23561950.111    23561959.592
       218.000         151.000
  22608941.738   -12757832.13649  -9927000.01546  22608941.965    22608949.596
       227.000         177.000
  22942795.034   -13076455.12449 -10142754.47846  22942794.654    22942803.621
       220.000         170.000
  24443708.037    -3877622.81049  -2682015.59845  24443708.023    24443724.245
       206.000         146.000
  22642706.644   -11632901.77649  -9031686.61946  22642706.091    22642716.011
       223.000         168.000
 03  2  8  0 30  0.0000000  0 10G30G15G17G 6G23G18G10G29G 5G26
  21998287.329   -19534890.01449 -15203201.80646  21998287.752    21998296.591
       232.000         187.000
  23786022.406    -8127172.54349  -6313346.27045  23786021.590    23786033.331
       219.000         162.000
  21869004.216   -13071248.19649 -10158471.15047  21869003.904    21869012.244
       237.000         197.000
  20371366.307   -25931701.18849 -20192311.40648  20371366.037    20371372.999
       245.000         216.000
  20976653.624   -20596829.38349 -16011840.35847  20976652.975    20976661.118
       243.000         210.000
  23542633.251    -7764753.32049  -6031386.41445  23542631.995    23542642.923
       217.000         153.000
  22626513.065   -12665494.21149  -9855048.39346  22626512.381    22626521.163
       225.000         176.000
  22935347.457   -13115591.69749 -10173250.36946  22935347.269    22935355.946
       219.000         170.000
  24463536.751    -3773423.04549  -2600821.37845  24463536.866    24463553.819
       205.000         145.000
  22628633.653   -11706855.61349  -9089312.84546  22628633.563    22628642.763
       222.000         169.000
 03  2  8  0 30 30.0000000  0 10G30G15G17G 6G23G18G10G29G 5G26
  22014511.469   -19449631.96449 -15136766.98446  22014511.921    22014520.809
       233.000         187.000
  23772605.178    -8197679.82549  -6368286.76945  23772603.959    23772616.007
       218.000         162.000
  21861587.143   -13110225.07249 -10188842.66347  21861586.469    21861594.983
       236.000         197.000
  20366965.439   -25954827.62949 -20210331.97748  20366965.293    20366971.974
       245.000         216.000
  20967487.521   -20644997.35549 -16049373.75247  20967486.791    20967495.187
       243.000         210.000
  23523352.323    -7866074.22949  -6110337.49645  23523350.903    23523362.269
       218.000         154.000
  22644132.906   -12572901.15849  -9782897.98646  22644132.323    22644140.042
       224.000         175.000
  22927979.154   -13154312.06549 -10203421.95746  22927978.881    22927987.164
       219.000         170.000
  24483356.359    -3669271.61749  -2519664.81545  24483356.985    24483373.942
       206.000         144.000
  22614622.483   -11780484.06449  -9146685.52146  22614622.253    22614631.558
       221.000         169.000
 03  2  8  0 31  0.0000000  0 10G30G15G17G 6G23G18G10G29G 5G26
  22030789.967   -19364088.06749 -15070109.42246  22030790.111    22030798.655
       233.000         187.000
  23759208.631    -8268078.07849  -6423142.30845  23759207.223    23759219.567
       217.000         162.000
  21854197.944   -13149054.98249 -10219099.65847  21854197.244    21854205.589
       236.000         197.000
  20362637.300   -25977572.13249 -20228054.93448  20362637.040    20362643.909
       245.000         216.000
  20958411.819   -20692690.12349 -16086536.86147  20958411.264    20958419.193
       243.000         210.000
  23504108.605    -7967199.23949  -6189135.93345  23504107.735    23504118.438
       218.000         155.000
  22661800.721   -12480056.34549  -9710551.37546  22661800.202    22661807.772
       224.000         174.000
  22920690.322   -13192614.43249 -10233267.81246  22920690.296    22920697.977
       220.000         170.000
  24503166.203    -3565171.75849  -2438548.46245  24503167.270    24503184.390
       207.000         143.000
  22600673.883   -11853784.11949  -9203802.32546  22600673.299    22600683.458
       221.000         169.000
 03  2  8  0 31 30.0000000  0 10G30G15G17G 6G23G18G10G29G 5G26
  22047122.334   -19278260.83449 -15003231.08246  22047122.535    22047130.966
       231.000         186.000
  23745832.863    -8338367.27749  -6477912.87545  23745832.492    23745844.089
       217.000         162.000
  21846836.727   -13187738.29449 -10249242.42247  21846836.200    21846844.943
       236.000         197.000
  20358382.193   -25999932.63449 -20245478.66748  20358381.995    20358388.623
       245.000         216.000
  20949426.806   -20739906.49449 -16123328.75447  20949426.214    20949434.217
       244.000         211.000
  23484902.733    -8068125.52949  -6267779.53145  23484902.310    23484912.279
       221.000         157.000
  22679515.943   -12386962.12349  -9638010.44646  22679515.208    22679523.963
       224.000         173.000
  22913481.570   -13230496.40449 -10262786.10046  22913481.607    22913489.671
       221.000         170.000
  24522965.913    -3461125.51849  -2357473.88545  24522966.763    24522982.830
       210.000         143.000
  22586788.370   -11926752.14849  -9260660.39646  22586788.112    22586797.368
       222.000         168.000
 03  2  8  0 32  0.0000000  0 10G30G15G17G 6G23G18G10G29G 5G26
  22063508.006   -19192153.68849 -14936134.62846  22063508.111    22063517.064
       231.000         187.000
  23732477.778    -8408547.92349  -6532598.85845  23732476.738    23732488.570
       216.000         160.000
  21839503.321   -13226275.10549 -10279271.02747  21839502.587    21839511.443
       236.000         197.000
  20354200.440   -26021907.63249 -20262602.00848  20354200.310    20354207.150
       245.000         216.000
  20940532.509   -20786645.93649 -16159749.00847  20940531.941    20940540.008
       244.000         211.000
  23465735.174    -8168851.39049  -6346266.94545  23465734.030    23465743.775
       221.000         160.000
  22697278.120   -12293621.57349  -9565277.56046  22697277.312    22697286.664
       225.000         173.000
  22906353.102   -13267956.06149 -10291975.31246  22906352.482    22906361.310
       220.000         170.000
  24542754.950    -3357135.48049  -2276443.10645  24542755.884    24542771.976
       209.000         143.000
  22572966.802   -11999384.81949  -9317257.15846  22572966.660    22572976.053
       222.000         169.000
 03  2  8  0 32 30.0000000  0 10G30G15G17G 6G23G18G10G29G 5G26
  22079946.408   -19105769.27949 -14868822.13546  22079946.811    22079955.086
       232.000         187.000
  23719143.378    -8478619.74749  -6587200.04845  23719141.880    23719154.768
       216.000         158.000
  21832197.708   -13264666.14049 -10309186.04347  21832196.945    21832205.084
       235.000         197.000
  20350092.427   -26043495.42549 -20279423.63448  20350092.254    20350098.978
       245.000         216.000
  20931729.154   -20832907.61249 -16195796.98147  20931728.536    20931736.463
       244.000         211.000
  23446605.964    -8269374.48949  -6424596.37845  23446604.993    23446614.357
       220.000         160.000
  22715086.559   -12200037.35049  -9492354.79946  22715085.703    22715095.630
       224.000         172.000
  22899305.425   -13304990.99449 -10320833.56746  22899304.901    22899313.433
       220.000         170.000
  24562532.783    -3253204.01049  -2195457.99445  24562532.802    24562548.913
       208.000         143.000
  22559209.748   -12071678.66849  -9373589.89846  22559210.504    22559218.163
       222.000         169.000
 03  2  8  0 33  0.0000000  0 10G30G15G17G 6G23G18G10G29G 5G26
  22096437.018   -19019110.54949 -14801295.88546  22096437.615    22096446.082
       231.000         186.000
  23705829.678    -8548582.58649  -6641716.31845  23705828.396    23705839.263
       215.000         158.000
  21824919.702   -13302911.82649 -10338987.80547  21824919.093    21824927.454
       235.000         196.000
  20346058.438   -26064693.97349 -20295941.95348  20346058.277    20346065.011
       245.000         216.000
  20923016.888   -20878690.53749 -16231471.90447  20923016.207    20923024.078
       245.000         211.000
  23427515.808    -8369692.76849  -6502766.21445  23427513.640    23427523.707
       218.000         159.000
  22732940.788   -12106212.02649  -9419244.18446  22732939.573    22732948.319
       226.000         172.000
  22892339.076   -13341598.93549 -10349359.11746  22892338.714    22892346.710
       221.000         170.000
  24582299.182    -3149333.45249  -2114520.34545  24582299.348    24582315.253
       209.000         143.000
  22545517.700   -12143629.93949  -9429655.67846  22545517.873    22545526.042
       222.000         169.000
 03  2  8  0 33 30.0000000  0 10G30G15G17G 6G23G18G10G29G 5G26
  22112979.263   -18932180.65549 -14733558.32746  22112979.803    22112988.550
       231.000         186.000
  23692536.655    -8618436.97449  -6696148.08745  23692535.389    23692547.043
       215.000         155.000
  21817669.322   -13341012.43149 -10368676.51247  21817668.462    21817677.032
       236.000         196.000
  20342098.750   -26085502.00749 -20312155.97148  20342098.468    20342105.498
       245.000         216.000
  20914395.824   -20923994.30049 -16266773.45247  20914395.465    20914403.183
       246.000         212.000
  23408464.880    -8469804.53349  -6580775.11445  23408464.078    23408472.900
       217.000         158.000
  22750840.448   -12012148.71049  -9345948.10546  22750839.761    22750848.600
       224.000         171.000
  22885454.290   -13377777.90449 -10377550.40546  22885453.950    22885461.604
       220.000         170.000
  24602053.398    -3045526.42249  -2033632.19245  24602054.472    24602070.012
       209.000         143.000
  22531891.502   -12215235.47349  -9485452.07046  22531891.586    22531899.935
       221.000         169.000
 03  2  8  0 34  0.0000000  0 10G30G15G17G 6G23G18G10G29G 5G26
  22129572.569   -18844982.13149 -14665611.45746  22129572.895    22129581.947
       230.000         185.000
  23679264.282    -8688182.78649  -6750495.25645  23679263.727    23679275.324
       216.000         155.000
  21810446.555   -13378967.77249 -10398252.03247  21810445.952    21810454.179
       236.000         196.000
  20338213.770   -26105917.48949 -20328064.10848  20338213.668    20338220.345
       245.000         216.000
  20905866.181   -20968817.98249 -16301700.91748  20905865.530    20905873.392
       245.000         213.000
  23389453.841    -8569707.51149  -6658621.33545  23389453.129    23389464.330
       217.000         158.000
  22768784.974   -11917849.59449  -9272468.29646  22768784.618    22768792.723
       225.000         171.000
  22878651.721   -13413525.27149 -10405405.37946  22878651.869    22878659.249
       221.000         170.000
  24621795.171    -2941784.74149  -1952794.98145  24621795.925    24621812.044
       210.000         142.000
  22518331.789   -12286491.60349  -9540976.17246  22518331.194    22518340.894
       222.000         169.000
 03  2  8  0 34 30.0000000  0 10G30G15G17G 6G23G18G10G29G 5G26
  22146216.283   -18757519.01849 -14597458.40946  22146216.593    22146225.501
       231.000         186.000
  23666012.497    -8757820.88349  -6804758.47245  23666011.641    23666022.450
       215.000         156.000
  21803251.169   -13416779.55849 -10427715.70047  21803250.514    21803258.444
       235.000         196.000
  20334403.662   -26125939.73349 -20343665.82648  20334403.425    20334410.176
       244.000         215.000
  20897427.750   -21013161.68449 -16336254.36447  20897427.242    20897434.905
       245.000         212.000
  23370482.620    -8669400.77349  -6736304.14545  23370481.842    23370491.426
       219.000         157.000
  22786773.692   -11823318.49449  -9198807.71146  22786773.605    22786781.983
       225.000         172.000
  22871931.423   -13448840.21349 -10432923.40546  22871930.882    22871939.148
       221.000         171.000
  24641523.810    -2838111.91149  -1872011.43545  24641524.218    24641540.776
       208.000         141.000
  22504839.050   -12357395.76449  -9596226.00846  22504838.734    22504847.996
       223.000         170.000
 03  2  8  0 35  0.0000000  0 10G30G15G17G 6G23G18G10G29G 5G26
  22162909.930   -18669793.42849 -14529100.84346  22162910.386    22162919.383
       230.000         185.000
  23652781.252    -8827350.51949  -6858937.20045  23652780.571    23652791.629
       216.000         156.000
  21796083.228   -13454447.04149 -10457066.91847  21796082.356    21796090.858
       236.000         196.000
  20330668.785   -26145566.28849 -20358959.22248  20330668.581    20330675.331
       245.000         215.000
  20889080.957   -21057024.01949 -16370432.72247  20889080.241    20889088.183
       245.000         212.000
  23351551.849    -8768881.27449  -6813821.18645  23351551.537    23351560.956
       219.000         158.000
  22804806.015   -11728557.47049  -9124967.98246  22804805.192    22804815.353
       224.000         171.000
  22865294.029   -13483719.64149 -10460102.06846  22865293.866    22865302.164
       221.000         171.000
  24661238.854    -2734509.76549  -1791282.96045  24661240.039    24661255.997
       208.000         142.000
  22491414.159   -12427943.85549  -9651198.38846  22491414.058    22491423.040
       222.000         170.000
 03  2  8  0 35 30.0000000  0 10G30G15G17G 6G23G18G10G29G 5G26
  22179652.774   -18581809.18149 -14460541.72546  22179653.226    22179661.751
       230.000         184.000
  23639570.518    -8896772.46949  -6913032.02645  23639569.317    23639581.282
       218.000         157.000
  21788942.521   -13491971.40349 -10486306.61247  21788941.959    21788949.974
       237.000         196.000
  20327009.504   -26164795.98849 -20373943.38148  20327009.494    20327016.225
       245.000         215.000
  20880825.790   -21100404.86749 -16404235.90148  20880825.275    20880832.913
       245.000         213.000
  23332661.907    -8868147.78149  -6891171.47345  23332660.805    23332670.710
       218.000         159.000
  22822881.584   -11633569.78449  -9050951.61646  22822880.908    22822889.767
       226.000         172.000
  22858739.844   -13518162.04549 -10486940.20346  22858739.804    22858747.667
       222.000         171.000
  24680939.960    -2630981.07749  -1710611.76245  24680940.810    24680957.713
       208.000         141.000
  22478057.512   -12498133.01549  -9705891.06846  22478056.925    22478066.353
       221.000         170.000
 03  2  8  0 36  0.0000000  0 10G30G15G17G 6G23G18G10G29G 5G26
  22196444.458   -18493568.59449 -14391782.85446  22196444.901    22196453.539
       230.000         183.000
  23626380.370    -8966086.49949  -6967042.74545  23626379.648    23626390.829
       219.000         158.000
  21781829.075   -13529352.67649 -10515434.80847  21781828.214    21781836.495
       236.000         197.000
  20323426.053   -26183626.91249 -20388616.79748  20323425.835    20323432.795
       244.000         215.000
  20872662.450   -21143303.17549 -16437663.06848  20872662.047    20872669.778
       244.000         213.000
  23313813.038    -8967197.83149  -6968353.05645  23313812.044    23313822.801
       217.000         158.000
  22840999.976   -11538357.59249  -8976760.30446  22840999.705    22841008.022
       225.000         172.000
  22852269.248   -13552164.92149 -10513435.84846  22852269.083    22852277.320
       223.000         172.000
  24700626.680    -2527527.87149  -1629999.38045  24700628.151    24700645.379
       208.000         141.000
  22464769.821   -12567959.36249  -9760301.04946  22464769.374    22464778.440
       222.000         170.000
 03  2  8  0 36 30.0000000  0 10G30G15G17G 6G23G18G10G29G 5G26
  22213284.242   -18405074.97949 -14322826.81646  22213284.693    22213293.438
       230.000         183.000
  23613210.762    -9035292.74749  -7020969.49545  23613209.945    23613220.446
       217.000         159.000
  21774742.654   -13566591.59149 -10544452.07347  21774742.140    21774750.067
       236.000         197.000
  20319918.747   -26202057.55949 -20402978.31848  20319918.533    20319925.214
       243.000         214.000
  20864591.055   -21185718.47149 -16470713.85848  20864590.375    20864598.275
       244.000         213.000
  23295005.804    -9066029.49149  -7045364.48945  23295004.924    23295013.899
       219.000         158.000
  22859160.439   -11442923.68549  -8902396.23046  22859159.933    22859168.493
       225.000         171.000
  22845882.620   -13585726.40749 -10539587.55146  22845882.215    22845890.349
       221.000         172.000
  24720298.523    -2424152.63949  -1549447.76945  24720298.703    24720316.290
       208.000         141.000
  22451551.818   -12637419.72849  -9814425.82546  22451551.284    22451560.663
       221.000         170.000
 03  2  8  0 37  0.0000000  0 10G30G15G17G 6G23G18G10G29G 5G26
  22230171.666   -18316331.26549 -14253675.91046  22230171.822    22230181.124
       231.000         183.000
  23600061.481    -9104391.56049  -7074812.52845  23600060.268    23600071.771
       219.000         159.000
  21767683.322   -13603688.29749 -10573358.53147  21767682.837    21767691.124
       237.000         198.000
  20316487.931   -26220086.37149 -20417026.71348  20316487.828    20316494.636
       244.000         214.000
  20856611.627   -21227650.51149 -16503388.09648  20856611.129    20856618.663
       244.000         213.000
  23276240.450    -9164641.22949  -7122204.54745  23276238.845    23276249.746
       220.000         160.000
  22877362.524   -11347271.10249  -8827861.75646  22877361.592    22877371.142
       225.000         171.000
  22839580.360   -13618844.63449 -10565393.86246  22839580.368    22839587.998
       222.000         173.000
  24739955.217    -2320857.86849  -1468958.87245  24739956.485    24739973.936
       207.000         142.000
  22438404.053   -12706510.90249  -9868262.91746  22438403.437    22438412.031
       223.000         170.000
 03  2  8  0 37 30.0000000  0 10G30G15G17G 6G23G18G10G29G 5G26
  22247106.119   -18227340.35649 -14184332.37846  22247106.888    22247114.850
       230.000         182.000
  23586932.703    -9173382.96649  -7128571.86145  23586931.637    23586942.676
       220.000         159.000
  21760651.053   -13640643.26449 -10602154.54547  21760650.455    21760658.893
       237.000         199.000
  20313133.968   -26237711.56749 -20430760.60148  20313133.720    20313140.567
       243.000         214.000
  20848724.259   -21269098.50249 -16535685.15248  20848723.409    20848731.171
       244.000         213.000
  23257517.334    -9263030.70649  -7198871.41645  23257516.686    23257525.815
       223.000         161.000
  22895605.773   -11251402.45649  -8753158.93346  22895605.342    22895614.463
       225.000         171.000
  22833362.863   -13651517.37149 -10590853.04246  22833362.402    22833370.822
       222.000         173.000
  24759596.249    -2217645.72549  -1388534.37045  24759597.567    24759615.891
       208.000         142.000
  22425327.249   -12775229.25849  -9921809.51546  22425326.759    22425336.043
       223.000         171.000
 03  2  8  0 38  0.0000000  0 10G30G15G17G 6G23G18G10G29G 5G26
  22264086.908   -18138105.59149 -14114798.82946  22264087.043    22264096.034
       229.000         181.000
  23573824.285    -9242267.41049  -7182247.85345  23573822.672    23573833.857
       215.000         158.000
  21753645.467   -13677457.33249 -10630840.76447  21753645.055    21753653.467
       237.000         199.000
  20309856.978   -26254931.96949 -20444179.07048  20309856.779    20309863.707
       244.000         214.000
  20840928.954   -21310062.34149 -16567604.94247  20840928.176    20840936.105
       244.000         212.000
  23238836.932    -9361196.22349  -7275363.78445  23238837.278    23238845.303
       222.000         161.000
  22913889.462   -11155320.76249  -8678290.08946  22913888.575    22913897.038
       224.000         171.000
  22827230.371   -13683742.88049 -10615963.73846  22827229.728    22827238.319
       223.000         173.000
  24779221.042    -2114519.01449  -1308176.45245  24779221.982    24779240.837
       207.000         141.000
  22412321.913   -12843571.96749  -9975063.40346  22412321.493    22412330.536
       222.000         171.000
 03  2  8  0 38 30.0000000  0 10G30G15G17G 6G23G18G10G29G 5G26
  22281113.547   -18048629.92549 -14045077.55846  22281113.696    22281122.516
       229.000         181.000
  23560736.130    -9311045.05849  -7235840.62745  23560735.262    23560746.216
       215.000         157.000
  21746666.890   -13714130.04749 -10659416.85147  21746666.576    21746674.611
       237.000         199.000
  20306657.372   -26271746.09249 -20457280.95748  20306657.274    20306663.819
       244.000         214.000
  20833225.982   -21350541.23249 -16599146.85248  20833225.398    20833233.156
       244.000         213.000
  23220199.460    -9459135.87649  -7351680.12745  23220197.951    23220208.964
       221.000         161.000
  22932213.150   -11059028.79549  -8603257.40246  22932212.879    22932221.219
       224.000         171.000
  22821183.475   -13715519.33449 -10640724.51146  22821182.764    22821191.380
       223.000         173.000
  24798829.115    -2011480.10749  -1227886.96245  24798830.927    24798847.310
       208.000         140.000
  22399388.702   -12911535.37149 -10028021.73046  22399387.757    22399397.183
       222.000         172.000
 03  2  8  0 39  0.0000000  0 10G30G15G17G 6G23G18G10G29G 5G26
  22298185.573   -17958915.75949 -13975170.46246  22298185.737    22298195.093
       229.000         181.000
  23547668.393    -9379715.36549  -7289349.74645  23547667.189    23547678.204
       214.000         156.000
  21739715.102   -13750661.85249 -10687883.12547  21739714.359    21739722.940
       237.000         199.000
  20303535.504   -26288151.70249 -20470064.51048  20303535.385    20303542.062
       244.000         214.000
  20825615.497   -21390534.21049 -16630310.13048  20825614.897    20825622.765
       245.000         213.000
  23201605.397    -9556847.16049  -7427818.53545  23201605.183    23201613.237
       221.000         162.000
  22950576.530   -10962528.52149  -8528062.39046  22950575.887    22950584.561
       225.000         170.000
  22815222.509   -13746844.06649 -10665133.30446  22815221.841    22815230.088
       224.000         174.000
  24818420.076    -1908530.86449  -1147667.34345  24818422.034    24818439.316
       206.000         138.000
  22386528.554   -12979115.71849 -10080681.57646  22386528.879    22386537.641
       224.000         172.000
 03  2  8  0 39 30.0000000  0  9G30G15G17G 6G23G18G10G29G26
  22315303.371   -17868961.44849 -13905076.23246  22315303.767    22315312.825
       229.000         180.000
  23534621.947    -9448273.88549  -7342771.76245  23534621.511    23534632.858
       217.000         156.000
  21732790.846   -13787048.48249 -10716236.27947  21732790.412    21732798.823
       237.000         199.000
  20300492.526   -26304142.38449 -20482524.75648  20300492.402    20300499.180
       244.000         215.000
  20818098.494   -21430036.15049 -16661090.78548  20818097.841    20818105.651
       245.000         213.000
  23183056.105    -9654323.38549  -7503773.78545  23183055.345    23183064.348
       222.000         162.000
  22968980.089   -10865818.05949  -8452703.59446  22968979.786    22968988.121
       225.000         170.000
  22809348.753   -13777710.53349 -10689185.00846  22809348.307    22809356.406
       223.000         174.000
  22373742.866   -13046304.94749 -10133036.65646  22373743.270    22373751.705
       223.000         173.000
 03  2  8  0 40  0.0000000  0  9G30G15G17G 6G23G18G10G29G26
  22332464.887   -17778777.39949 -13834802.98546  22332465.296    22332474.092
       229.000         180.000
  23521595.346    -9516728.07449  -7396112.51545  23521594.719    23521604.850
       218.000         156.000
  21725892.873   -13823297.31849 -10744482.06547  21725892.218    21725900.434
       237.000         199.000
  20297527.443   -26319724.06349 -20494666.29248  20297527.244    20297533.935
       245.000         215.000
  20810673.604   -21469053.92749 -16691494.17848  20810673.031    20810680.712
       245.000         213.000
  23164550.527    -9751570.00249  -7579550.11546  23164548.827    23164559.002
       223.000         164.000
  22987421.780   -10768907.39749  -8377188.81246  22987420.860    22987429.856
       223.000         169.000
  22803561.203   -13808123.95849 -10712883.69046  22803560.783    22803569.184
       223.000         174.000
  22361030.722   -13113107.07449 -10185090.10746  22361031.260    22361038.173
       223.000         173.000
 03  2  8  0 40 30.0000000  0  9G30G15G17G 6G23G18G10G29G26
  22349669.440   -17688366.71649 -13764353.14146  22349669.846    22349678.740
       229.000         179.000
  23508588.602    -9585078.35349  -7449372.30645  23508587.354    23508598.872
       217.000         157.000
  21719020.988   -13859408.85849 -10772620.86247  21719020.105    21719028.460
       236.000         199.000
  20294640.457   -26334895.34249 -20506488.03248  20294640.153    20294646.713
       245.000         215.000
  20803340.888   -21507587.26049 -16721520.07248  20803340.227    20803347.858
       244.000         213.000
  23146088.927    -9848585.28549  -7655146.18346  23146087.937    23146096.966
       221.000         164.000
  23005900.755   -10671799.23549  -8301520.13246  23005898.928    23005909.050
       223.000         167.000
  22797860.209   -13838082.61149 -10736228.00046  22797860.350    22797868.518
       223.000         174.000
  22348392.839   -13179518.98449 -10236839.49546  22348392.760    22348400.962
       222.000         173.000
 03  2  8  0 41  0.0000000  0  9G30G15G17G 6G23G18G10G29G26
  22366917.073   -17597730.19749 -13693727.30646  22366917.415    22366925.996
       230.000         180.000
  23495602.103    -9653322.30649  -7502549.25045  23495601.514    23495612.218
       218.000         159.000
  21712175.560   -13895381.52549 -10800651.45347  21712175.214    21712183.111
       237.000         198.000
  20291832.210   -26349652.49049 -20517987.07648  20291832.027    20291838.894
       245.000         215.000
  20796100.870   -21545633.48749 -16751166.40348  20796100.239    20796107.932
       245.000         214.000
  23127672.032    -9945365.15449  -7730558.83546  23127670.607    23127680.675
       222.000         163.000
  23024417.223   -10574494.22949  -8225698.06146  23024416.508    23024425.635
       223.000         168.000
  22792246.441   -13867582.57449 -10759214.89946  22792246.346    22792254.009
       222.000         174.000
  22335830.150   -13245535.08949 -10288280.46046  22335829.387    22335839.094
       223.000         174.000
 03  2  8  0 41 30.0000000  0  9G30G15G17G 6G23G18G10G29G26
  22384207.069   -17506871.31949 -13622928.21546  22384207.376    22384216.140
       229.000         180.000
  23482635.822    -9721460.45449  -7555643.75445  23482634.800    23482645.767
       220.000         159.000
  21705356.481   -13931216.00649 -10828574.36147  21705355.895    21705363.814
       237.000         198.000
  20289103.020   -26363994.49549 -20529162.62848  20289102.836    20289109.600
       245.000         215.000
  20788953.529   -21583192.68649 -16780433.24648  20788952.977    20788960.358
       246.000         214.000
  23109300.389   -10041907.96849  -7805786.74346  23109299.445    23109308.420
       222.000         164.000
  23042970.635   -10476995.38949  -8149724.96246  23042969.794    23042978.661
       222.000         168.000
  22786720.277   -13896622.37849 -10781843.22346  22786720.512    22786727.794
       223.000         173.000
  22323343.412   -13311152.69449 -10339410.91546  22323342.552    22323351.469
       224.000         174.000
 03  2  8  0 42  0.0000000  0  9G30G15G17G 6G23G18G10G29G26
  22401538.672   -17415793.12849 -13551958.24046  22401538.767    22401547.679
       229.000         179.000
  23469689.521    -9789493.08649  -7608656.04645  23469688.862    23469698.284
       221.000         159.000
  21698563.619   -13966912.40849 -10856389.67547  21698562.688    21698571.118
       236.000         198.000
  20286453.086   -26377919.75949 -20540013.44748  20286452.971    20286459.326
       244.000         215.000
  20781898.930   -21620264.51049 -16809320.31148  20781898.381    20781905.839
       245.000         213.000
  23090974.164   -10138212.14549  -7880828.71346  23090973.462    23090983.029
       222.000         165.000
  23061560.393   -10379305.36149  -8073602.88146  23061559.804    23061568.366
       223.000         167.000
  22781282.027   -13925200.26949 -10804111.62046  22781281.467    22781290.089
       223.000         174.000
  22310933.160   -13376368.40349 -10390228.21646  22310932.553    22310941.210
       223.000         174.000
 03  2  8  0 42 30.0000000  0  9G30G15G17G 6G23G18G10G29G26
  22418911.487   -17324498.05749 -13480819.26046  22418912.070    22418921.172
       228.000         179.000
  23456763.341    -9857419.97549  -7661585.93645  23456761.932    23456773.206
       220.000         160.000
  21691796.935   -14002470.92749 -10884097.54747  21691796.372    21691804.758
       237.000         198.000
  20283882.888   -26391426.23049 -20550537.93648  20283882.790    20283889.169
       245.000         215.000
  20774937.235   -21656848.19949 -16837827.00948  20774936.451    20774944.310
       244.000         213.000
  23072693.812   -10234275.17749  -7955682.79546  23072692.567    23072701.884
       222.000         166.000
  23080186.284   -10281426.44449  -7997333.59346  23080185.580    23080195.329
       222.000         168.000
  22775932.160   -13953313.56849 -10826017.99246  22775932.330    22775940.036
       224.000         174.000
  22298600.040   -13441178.46449 -10440729.43146  22298600.140    22298609.109
       223.000         175.000
 03  2  8  0 43  0.0000000  0  9G30G15G17G 6G23G18G10G29G26
  22436324.929   -17232989.86449 -13409514.20646  22436325.395    22436334.370
       229.000         179.000
  23443857.252    -9925241.50849  -7714433.74045  23443855.567    23443867.438
       219.000         161.000
  21685056.286   -14037892.79449 -10911698.93547  21685055.628    21685063.708
       237.000         199.000
  20281392.505   -26404513.02449 -20560735.39948  20281392.144    20281399.095
       244.000         215.000
  20768068.343   -21692943.92949 -16865953.47348  20768067.816    20768075.408
       245.000         214.000
  23054459.496   -10330095.67449  -8030347.89046  23054459.310    23054467.660
       223.000         167.000
  23098847.199   -10183361.78949  -7920919.60946  23098845.562    23098855.991
       219.000         167.000
  22770670.929   -13980961.41049 -10847561.67146  22770670.583    22770678.885
       224.000         174.000
  22286344.718   -13505580.13949 -10490912.42646  22286343.935    22286353.344
       224.000         175.000
 03  2  8  0 43 30.0000000  0  9G30G15G17G 6G23G18G10G29G26
  22453778.585   -17141270.67449 -13338044.74446  22453779.492    22453787.728
       228.000         179.000
  23430971.227    -9992957.12249  -7767199.01045  23430970.547    23430980.530
       221.000         161.000
  21678341.870   -14073177.02849 -10939193.08347  21678341.207    21678349.241
       237.000         199.000
  20278982.374   -26417177.94949 -20570604.14148  20278981.903    20278988.845
       244.000         214.000
  20761292.615   -21728550.55549 -16893698.83148  20761292.206    20761299.461
       245.000         214.000
  23036271.923   -10425671.08449  -8104822.00546  23036270.572    23036280.696
       221.000         166.000
  23117543.058   -10085113.54349  -7844362.54346  23117542.328    23117551.265
       222.000         166.000
  22765498.761   -14008141.06249 -10868740.53146  22765498.863    22765506.403
       223.000         174.000
  22274167.786   -13569569.66149 -10540774.28346  22274167.864    22274175.513
       225.000         175.000
 03  2  8  0 44  0.0000000  0  9G30G15G17G 6G23G18G10G29G26
  22471271.751   -17049343.93549 -13266413.56646  22471271.842    22471281.183
       228.000         179.000
  23418105.399   -10060567.34949  -7819882.17645  23418104.534    23418114.612
       221.000         161.000
  21671653.492   -14108324.58849 -10966580.73047  21671652.927    21671661.121
       237.000         200.000
  20276652.775   -26429419.89549 -20580143.28448  20276652.486    20276659.094
       244.000         214.000
  20754609.958   -21763668.14349 -16921063.11848  20754609.113    20754616.756
       244.000         213.000
  23018131.286   -10520999.77249  -8179103.87146  23018129.890    23018139.872
       222.000         166.000
  23136273.510    -9986684.70449  -7767664.75546  23136272.732    23136282.360
       221.000         166.000
  22760415.990   -14034851.12249 -10889553.47446  22760416.482    22760423.106
       224.000         175.000
  22262069.955   -13633143.94249 -10590312.56246  22262069.530    22262077.888
       225.000         175.000
 03  2  8  0 44 30.0000000  0  9G30G15G17G 6G23G18G10G29G26
  22488803.604   -16957213.33649 -13194623.51446  22488803.166    22488812.624
       227.000         178.000
  23405259.375   -10128073.25149  -7872484.03745  23405258.097    23405267.644
       221.000         160.000
  21664990.875   -14143336.64549 -10993862.78747  21664990.219    21664998.193
       239.000         200.000
  20274403.821   -26441238.07449 -20589352.21648  20274403.622    20274410.373
       244.000         214.000
  20748020.190   -21798297.06449 -16948046.62348  20748019.615    20748027.213
       245.000         213.000
  23000037.912   -10616080.64049  -8253192.64646  23000037.146    23000046.350
       224.000         166.000
  23155037.754    -9888078.57049  -7690828.84546  23155036.922    23155046.277
       221.000         166.000
  22755422.777   -14061090.45149 -10909999.61146  22755422.719    22755429.796
       225.000         175.000
  22250051.662   -13696300.57449 -10639525.40446  22250052.139    22250058.771
       226.000         176.000
 03  2  8  0 45  0.0000000  0  9G30G15G17G 6G23G18G10G29G26
  22506373.762   -16864881.32949 -13122676.53946  22506373.672    22506383.076
       228.000         178.000
  23392433.311   -10195474.28249  -7925004.18445  23392432.676    23392442.514
       220.000         160.000
  21658354.186   -14178212.83149 -11021038.96847  21658353.864    21658361.907
       239.000         201.000
  20272235.860   -26452630.49249 -20598229.38948  20272235.493    20272242.467
       243.000         214.000
  20741523.637   -21832436.55249 -16974648.75748  20741522.962    20741530.616
       244.000         213.000
  22981992.070   -10710911.31349  -8327086.47746  22981991.139    22982000.071
       224.000         167.000
  23173835.508    -9789297.12949  -7613856.32246  23173835.348    23173843.556
       223.000         166.000
  22750519.575   -14086857.01149 -10930077.34746  22750519.673    22750527.646
       225.000         175.000
  22238113.537   -13759035.64349 -10688409.76546  22238113.025    22238121.952
       225.000         176.000
 03  2  8  0 45 30.0000000  0  9G30G15G17G 6G23G18G10G29G26
  22523981.788   -16772350.93449 -13050574.95546  22523982.671    22523990.924
       227.000         178.000
  23379627.107   -10262770.57349  -7977442.70445  23379626.471    23379635.963
       220.000         160.000
  21651743.353   -14212953.07949 -11048109.23247  21651742.571    21651751.038
       239.000         201.000
  20270149.227   -26463595.62749 -20606773.62048  20270149.208    20270155.687
       243.000         214.000
  20735120.172   -21866086.37949 -17000869.33348  20735119.545    20735127.036
       244.000         213.000
  22963994.218   -10805489.83149  -8400783.81446  22963993.098    22964002.513
       222.000         167.000
  23192666.044    -9690342.92149  -7536749.15446  23192665.072    23192673.507
       220.000         165.000
  22745706.638   -14112148.89249 -10949785.21646  22745706.205    22745713.737
       226.000         175.000
  22226256.088   -13821346.11749 -10736963.26746  22226256.053    22226264.006
       227.000         177.000
 03  2  8  0 46  0.0000000  0  9G30G15G17G 6G23G18G10G29G26
  22541626.955   -16679624.82449 -12978320.88046  22541627.316    22541637.106
       227.000         177.000
  23366840.820   -10329961.84849  -8029799.40745  23366839.693    23366848.645
       220.000         160.000
  21645158.262   -14247557.60049 -11075073.72847  21645157.749    21645165.703
       239.000         201.000
  20268144.226   -26474131.69549 -20614983.50748  20268144.046    20268150.607
       243.000         214.000
  20728810.059   -21899246.02649 -17026707.95548  20728809.394    20728816.904
       245.000         213.000
  22946044.770   -10899814.02649  -8474282.97746  22946043.954    22946052.770
       224.000         168.000
  23211528.807    -9591218.10249  -7459509.05946  23211528.313    23211536.967
       220.000         166.000
  22740984.435   -14136963.99149 -10969121.57246  22740983.515    22740991.635
       225.000         176.000
  22214480.190   -13883228.30649 -10785183.03946  22214480.265    22214489.276
       226.000         177.000
 03  2  8  0 46 30.0000000  0  9G30G15G17G 6G23G18G10G29G26
  22559308.834   -16586706.04649 -12905916.67146  22559308.895    22559318.286
       227.000         177.000
  23354074.547   -10397048.18949  -8082074.31245  23354074.051    23354084.355
       220.000         162.000
  21638598.861   -14282027.31649 -11101933.18547  21638598.470    21638606.159
       239.000         201.000
  20266221.112   -26484237.52649 -20622858.14548  20266220.967    20266227.571
       243.000         214.000
  20722593.268   -21931915.33049 -17052164.49248  20722592.688    20722600.101
       245.000         213.000
  22928144.022   -10993882.34549  -8547582.76146  22928142.867    22928152.280
       224.000         168.000
  23230423.471    -9491925.71149  -7382138.38846  23230422.253    23230431.824
       219.000         166.000
  22736353.253   -14161300.93049 -10988085.31546  22736353.190    22736359.844
       225.000         176.000
  22202786.345   -13944679.19749 -10833066.73346  22202786.471    22202795.047
       227.000         177.000
 03  2  8  0 47  0.0000000  0  9G30G15G17G 6G23G18G10G29G26
  22577026.700   -16493598.04049 -12833364.99646  22577027.289    22577035.040
       227.000         177.000
  23341328.212   -10464030.13849  -8134267.88146  23341327.325    23341337.318
       221.000         164.000
  21632065.017   -14316362.71649 -11128687.98847  21632064.224    21632072.244
       238.000         200.000
  20264380.093   -26493912.05249 -20630396.70448  20264379.972    20264386.463
       244.000         214.000
  20716469.693   -21964094.59349 -17077239.17648  20716469.187    20716476.537
       245.000         213.000
  22910292.165   -11087693.31749  -8620682.01646  22910291.305    22910299.729
       223.000         168.000
  23249349.472    -9392468.50849  -7304639.29346  23249349.380    23249357.578
       219.000         164.000
  22731813.205   -14185158.30049 -11006675.37446  22731812.803    22731819.623
       225.000         176.000
  22191175.089   -14005696.01749 -10880612.18946  22191175.269    22191182.956
       226.000         177.000
 03  2  8  0 47 30.0000000  0  9G30G15G17G 6G23G18G10G29G26
  22594780.057   -16400303.68949 -12760668.13346  22594780.129    22594789.112
       226.000         177.000
  23328601.696   -10530908.01749  -8186380.36246  23328600.596    23328610.992
       221.000         165.000
  21625556.719   -14350563.50349 -11155337.89047  21625556.149    21625564.052
       238.000         200.000
  20262621.426   -26503153.73449 -20637597.98448  20262621.239    20262627.878
       244.000         214.000
  20710439.437   -21995783.62249 -17101931.85648  20710438.802    20710446.123
       244.000         213.000
  22892489.741   -11181244.86049  -8693579.14046  22892489.030    22892497.623
       224.000         168.000
  23268306.601    -9292849.07049  -7227013.76846  23268306.037    23268314.708
       221.000         164.000
  22727364.820   -14208534.35849 -11024890.40046  22727364.603    22727371.615
       224.000         175.000
  22179647.205   -14066275.42749 -10927816.80146  22179646.780    22179655.702
       227.000         178.000
 03  2  8  0 48  0.0000000  0  9G30G15G17G 6G23G18G10G29G26
  22612568.300   -16306826.01349 -12687828.41646  22612569.274    22612578.122
       227.000         177.000
  23315894.903   -10597681.79049  -8238411.70346  23315893.952    23315904.276
       220.000         165.000
  21619073.899   -14384630.66049 -11181883.66447  21619073.377    21619081.009
       238.000         200.000
  20260945.423   -26511961.29149 -20644460.98548  20260945.160    20260951.826
       244.000         214.000
  20704502.473   -22026982.25849 -17126242.41748  20704501.952    20704509.261
       245.000         214.000
  22874737.010   -11274535.17949  -8766272.71046  22874736.310    22874745.004
       224.000         169.000
  23287294.099    -9193070.01849  -7149263.88046  23287293.332    23287302.324
       220.000         164.000
  22723008.275   -14231427.53349 -11042729.13046  22723007.779    22723014.860
       225.000         175.000
  22168203.062   -14126414.42749 -10974678.25546  22168202.833    22168211.084
       228.000         178.000
 03  2  8  0 48 30.0000000  0  9G30G15G17G 6G23G18G10G29G26
  22630390.803   -16213168.77149 -12614848.77546  22630391.336    22630400.060
       226.000         176.000
  23303207.754   -10664352.08049  -8290362.41546  23303205.986    23303216.702
       220.000         164.000
  21612616.317   -14418565.01049 -11208325.96047  21612615.608    21612623.192
       238.000         199.000
  20259352.206   -26520333.78549 -20650984.97748  20259352.122    20259358.774
       244.000         214.000
  20698658.716   -22057690.95549 -17150171.21048  20698657.857    20698665.481
       244.000         213.000
  22857034.276   -11367563.08649  -8838761.81346  22857033.475    22857041.425
       226.000         170.000
  23306311.275    -9093134.29349  -7071391.91646  23306310.757    23306319.118
       218.000         164.000
  22718743.858   -14253836.84849 -11060190.84946  22718743.861    22718750.699
       225.000         176.000
  22156843.284   -14186110.43949 -11021194.51046  22156843.037    22156851.481
       227.000         178.000
 03  2  8  0 49  0.0000000  0  9G30G15G17G 6G23G18G10G29G26
  22648246.942   -16119334.14149 -12541730.91446  22648247.125    22648255.664
       226.000         176.000
  23290540.377   -10730918.55049  -8342232.22546  23290539.545    23290550.191
       220.000         163.000
  21606184.200   -14452365.53349 -11234663.98247  21606183.291    21606191.394
       238.000         199.000
  20257842.140   -26528269.08449 -20657168.29948  20257841.858    20257848.606
       244.000         215.000
  20692908.404   -22087908.75849 -17173717.47848  20692907.718    20692915.285
       244.000         214.000
  22839381.929   -11460326.19849  -8911044.57446  22839380.826    22839390.158
       226.000         171.000
  23325357.776    -8993044.04949  -6993399.52946  23325356.871    23325365.782
       219.000         164.000
  22714571.951   -14275759.85349 -11077273.61646  22714571.739    22714579.188
       225.000         175.000
  22145568.458   -14245359.66549 -11067362.62746  22145568.352    22145576.442
       227.000         178.000
 03  2  8  0 49 30.0000000  0  9G30G15G17G 6G23G18G10G29G26
  22666136.176   -16025325.29049 -12468477.28846  22666136.640    22666145.182
       226.000         175.000
  23277892.690   -10797381.66049  -8394021.50246  23277891.541    23277902.547
       220.000         164.000
  21599777.483   -14486032.82349 -11260898.18847  21599776.906    21599785.133
       238.000         199.000
  20256415.448   -26535766.31049 -20663010.26248  20256415.266    20256421.819
       246.000         215.000
  20687251.483   -22117635.81949 -17196881.35748  20687250.904    20687258.457
       245.000         214.000
  22821780.311   -11552822.85249  -8983119.71146  22821779.741    22821787.788
       225.000         171.000
  23344433.113    -8892802.15749  -6915288.96746  23344431.766    23344441.244
       218.000         164.000
  22710492.822   -14297195.39049 -11093976.55146  22710491.384    22710499.956
       224.000         175.000
  22134379.144   -14304159.18949 -11113180.32046  22134379.348    22134386.919
       226.000         178.000
 03  2  8  0 50  0.0000000  0  9G30G15G17G 6G23G18G10G29G26
  22684058.154   -15931144.92549 -12395090.01946  22684058.443    22684067.628
       225.000         175.000
  23265264.875   -10863740.93149  -8445729.86546  23265264.193    23265275.218
       222.000         164.000
  21593396.076   -14519567.23149 -11287028.84947  21593395.493    21593403.642
       238.000         200.000
  20255072.501   -26542823.54549 -20668509.38348  20255072.255    20255078.978
       247.000         215.000
  20681688.052   -22146871.60849 -17219662.42948  20681687.416    20681694.963
       245.000         214.000
  22804229.798   -11645050.83749  -9054985.49546  22804228.991    22804236.884
       226.000         171.000
  23363536.831    -8792410.62549  -6837061.81246  23363536.131    23363545.839
       219.000         164.000
  22706506.806   -14318141.48349 -11110298.09746  22706506.782    22706513.844
       225.000         175.000
  22123276.132   -14362505.51249 -11158644.85946  22123276.025    22123284.132
       227.000         178.000
 03  2  8  0 50 30.0000000  0  9G30G15G17G 6G23G18G10G29G26
  22702011.999   -15836796.76749 -12321572.00246  22702012.504    22702021.209
       224.000         174.000
  23252656.574   -10929997.28349  -8497358.02346  23252655.192    23252666.395
       222.000         165.000
  21587039.741   -14552969.72249 -11313056.71447  21587039.084    21587046.574
       238.000         199.000
  20253813.337   -26549440.35249 -20673665.31648  20253813.037    20253819.898
       246.000         215.000
  20676217.930   -22175617.06549 -17242061.41848  20676217.163    20676224.900
       245.000         214.000
  22786730.595   -11737009.12849  -9126641.14546  22786730.015    22786736.925
       227.000         171.000
  23382668.505    -8691872.82649  -6758720.66546  23382668.495    23382677.013
       219.000         164.000
  22702614.098   -14338597.32949 -11126237.62346  22702613.827    22702621.242
       225.000         175.000
  22112259.702   -14420396.38949 -11203754.51546  22112259.941    22112267.479
       228.000         178.000
 03  2  8  0 51  0.0000000  0  9G30G15G17G 6G23G18G10G29G26
  22719997.385   -15742283.41849 -12247925.25146  22719997.923    22720006.990
       225.000         174.000
  23240067.917   -10996150.36849  -8548905.71946  23240066.817    23240077.395
       222.000         166.000
  21580708.585   -14586240.20249 -11338981.72347  21580708.366    21580715.790
       239.000         200.000
  20252638.338   -26555615.04749 -20678476.74748  20252638.180    20252644.570
       246.000         215.000
  20670841.207   -22203871.64949 -17264077.91748  20670840.715    20670848.049
       245.000         214.000
  22769283.095   -11828695.69349  -9198085.04946  22769281.794    22769290.017
       227.000         171.000
  23401827.725    -8591190.81549  -6680267.15746  23401826.553    23401836.143
       218.000         163.000
  22698815.117   -14358560.95949 -11141793.61846  22698815.067    22698822.109
       225.000         175.000
  22101330.724   -14477828.31049 -11248506.54946  22101330.317    22101338.833
       228.000         179.000
 03  2  8  0 51 30.0000000  0  9G30G15G17G 6G23G18G10G29G26
  22738013.473   -15647608.43549 -12174152.55646  22738013.681    22738022.587
       223.000         174.000
  23227498.809   -11062200.90249  -8600373.49946  23227498.078    23227507.789
       221.000         165.000
  21574402.473   -14619379.47749 -11364804.49447  21574402.022    21574409.710
       239.000         201.000
  20251547.566   -26561346.92049 -20682943.11948  20251547.356    20251553.846
       246.000         215.000
  20665557.792   -22231635.97049 -17285712.39248  20665557.142    20665564.312
       245.000         214.000
  22751887.557   -11920109.23549  -9269316.22046  22751887.266    22751894.974
       227.000         172.000
  23421013.793    -8490367.69249  -6601703.68646  23421013.240    23421021.243
       218.000         163.000
  22695109.919   -14378031.52449 -11156965.40446  22695109.333    22695116.866
       224.000         175.000
  22090489.490   -14534798.86049 -11292899.06546  22090489.073    22090497.410
       227.000         179.000
 03  2  8  0 52  0.0000000  0  9G30G15G17G 6G23G18G10G29G26
  22756059.633   -15552774.77249 -12100256.22146  22756059.838    22756069.669
       224.000         173.000
  23214949.315   -11128148.66449  -8651761.20446  23214947.416    23214958.451
       220.000         166.000
  21568121.209   -14652387.53849 -11390525.01247  21568120.561    21568128.737
       240.000         202.000
  20250541.363   -26566634.44649 -20687063.24648  20250541.282    20250547.718
       246.000         215.000
  20660367.692   -22258909.86349 -17306964.71148  20660367.075    20660374.422
       244.000         214.000
  22734544.282   -12011247.88149  -9340333.17746  22734542.833    22734551.811
       227.000         172.000
  23440226.276    -8389405.74449  -6523032.04746  23440225.350    23440232.686
       219.000         163.000
  22691498.813   -14397007.31149 -11171751.65546  22691498.333    22691506.491
       226.000         176.000
  22079736.684   -14591304.79049 -11336929.54246  22079736.237    22079744.496
       227.000         178.000
 03  2  8  0 52 30.0000000  0  9G30G15G17G 6G23G18G10G29G26
  22774135.545   -15457785.16449 -12026238.37346  22774136.124    22774144.887
       223.000         173.000
  23202419.271   -11193993.79249  -8703068.93146  23202418.430    23202428.172
       221.000         165.000
  21561864.842   -14685264.67249 -11416143.51847  21561864.222    21561871.969
       239.000         202.000
  20249620.021   -26571476.17149 -20690836.00048  20249619.930    20249626.436
       246.000         215.000
  20655270.904   -22285693.27949 -17327834.84648  20655270.484    20655277.760
       245.000         214.000
  22717253.730   -12102109.63449  -9411134.37846  22717253.323    22717261.432
       226.000         171.000
  23459464.595    -8288307.44149  -6444254.15445  23459463.541    23459472.890
       217.000         161.000
  22687982.222   -14415486.89249 -11186151.24246  22687981.557    22687989.755
       225.000         176.000
  22069072.814   -14647342.99449 -11380595.56546  22069073.398    22069080.316
       226.000         178.000
 03  2  8  0 53  0.0000000  0  9G30G15G17G 6G23G18G10G29G26
  22792240.584   -15362642.70149 -11952101.42546  22792240.890    22792250.346
       222.000         173.000
  23189908.824   -11259736.41249  -8754296.77946  23189908.151    23189918.324
       221.000         166.000
  21555633.482   -14718010.91249 -11441660.02847  21555632.946    21555640.445
       240.000         203.000
  20248783.685   -26575871.05649 -20694260.56648  20248783.449    20248789.927
       246.000         214.000
  20650267.507   -22311986.26149 -17348322.82948  20650267.008    20650274.093
       245.000         215.000
  22700016.046   -12192692.86849  -9481718.54746  22700015.017    22700023.840
       227.000         172.000
  23478728.421    -8187075.19849  -6365371.88945  23478727.905    23478736.541
       219.000         161.000
  22684560.308   -14433468.79449 -11200163.03646  22684560.206    22684567.693
       226.000         176.000
  22058498.568   -14702910.53049 -11423894.83046  22058498.489    22058506.208
       227.000         178.000
 03  2  8  0 53 30.0000000  0  9G30G15G17G 6G23G18G10G29G26
  22810374.110   -15267350.62649 -11877847.88846  22810374.436    22810382.911
       221.000         172.000
  23177417.774   -11325376.99849  -8805445.11646  23177416.668    23177426.994
       222.000         166.000
  21549426.853   -14750627.15149 -11467075.23047  21549426.283    21549434.234
       241.000         203.000
  20248032.594   -26579817.99849 -20697336.08248  20248032.379    20248038.879
       246.000         214.000
  20645357.346   -22337789.15949 -17368428.93348  20645356.767    20645363.821
       245.000         214.000
  22682831.840   -12282995.97649  -9552084.43646  22682830.733    22682838.338
       227.000         173.000
  23498017.223    -8085712.10149  -6286387.66945  23498015.982    23498024.872
       217.000         160.000
  22681233.284   -14450952.03849 -11213786.27346  22681232.270    22681240.428
       225.000         176.000
  22048014.395   -14758004.71749 -11466825.24746  22048014.057    22048022.367
       228.000         179.000
 03  2  8  0 54  0.0000000  0  9G30G15G17G 6G23G18G10G29G26
  22828535.473   -15171911.99749 -11803480.16046  22828535.624    22828544.322
       222.000         171.000
  23164946.128   -11390915.43749  -8856513.86646  23164945.272    23164955.604
       223.000         168.000
  21543244.849   -14783113.53849 -11492389.24547  21543244.352    21543252.231
       240.000         204.000
  20247366.995   -26583315.59749 -20700061.46248  20247366.630    20247373.475
       245.000         214.000
  20640540.409   -22363102.14749 -17388153.28148  20640539.942    20640546.971
       245.000         214.000
  22665701.241   -12373017.43449  -9622230.84846  22665700.562    22665708.835
       227.000         174.000
  23517330.387    -7984220.45949  -6207303.27345  23517329.242    23517338.427
       217.000         159.000
  22678001.504   -14467935.00449 -11227019.67346  22678001.077    22678008.571
       226.000         176.000
  22037620.932   -14812622.39549 -11509384.37346  22037621.602    22037628.651
       228.000         179.000
 03  2  8  0 54 30.0000000  0  9G30G15G17G 6G23G18G10G29G26
  22846724.147   -15076329.71549 -11729000.48846  22846724.122    22846733.533
       221.000         171.000
  23152493.887   -11456351.96449  -8907503.20346  23152492.733    23152503.434
       221.000         168.000
  21537087.554   -14815470.37949 -11517602.32447  21537087.005    21537094.588
       239.000         204.000
  20246787.129   -26586362.66649 -20702435.78548  20246786.861    20246793.475
       246.000         214.000
  20635816.683   -22387925.40749 -17407496.02548  20635816.262    20635823.370
       245.000         215.000
  22648624.576   -12462755.59149  -9692156.50646  22648623.784    22648632.076
       227.000         174.000
  23536667.731    -7882602.56849  -6128120.49845  23536666.455    23536675.540
       218.000         159.000
  22674865.144   -14484416.52549 -11239862.34446  22674864.318    22674872.572
       225.000         176.000
  22027318.731   -14866760.80349 -11551570.04046  22027318.035    22027326.551
       228.000         179.000
 03  2  8  0 55  0.0000000  0  9G30G15G17G 6G23G18G10G29G26
  22864939.524   -14980606.78649 -11654411.23646  22864939.782    22864949.499
       222.000         171.000
  23140060.953   -11521686.81349  -8958413.32646  23140059.830    23140069.640
       223.000         168.000
  21530954.853   -14847697.64849 -11542714.43747  21530954.121    21530961.352
       238.000         203.000
  20246293.249   -26588958.01249 -20704458.10548  20246293.133    20246299.468
       245.000         213.000
  20631186.140   -22412258.99949 -17426457.20348  20631185.428    20631192.675
       245.000         214.000
  22631602.120   -12552208.70349  -9761860.03846  22631600.999    22631609.616
       226.000         174.000
  23556028.564    -7780861.13049  -6048841.47445  23556027.232    23556037.286
       217.000         158.000
  22671824.410   -14500395.18349 -11252313.16746  22671824.542    22671832.059
       225.000         176.000
  22017108.225   -14920416.96149 -11593379.92746  22017107.584    22017115.004
       228.000         179.000
 03  2  8  0 55 30.0000000  0  9G30G15G17G 6G23G18G10G29G26
  22883181.005   -14884747.76449 -11579715.94046  22883181.223    22883190.407
       222.000         171.000
  23127647.062   -11586921.71149  -9009245.56746  23127645.904    23127656.532
       222.000         168.000
  21524846.439   -14879797.43449 -11567727.21347  21524845.789    21524853.232
       239.000         202.000
  20245885.220   -26591101.97749 -20706128.71048  20245884.846    20245891.685
       245.000         213.000
  20626648.407   -22436104.55249 -17445038.10148  20626647.919    20626655.001
       245.000         214.000
  22614633.864   -12641376.60049  -9831341.34546  22614633.855    22614641.229
       226.000         173.000
  23575412.112    -7679000.36949  -5969469.45945  23575410.673    23575419.718
       219.000         158.000
  22668879.385   -14515871.26649 -11264372.38346  22668879.231    22668886.321
       226.000         176.000
  22006989.769   -14973589.50349 -11634812.97246  22006990.008    22006997.351
       229.000         180.000
 03  2  8  0 56  0.0000000  0  9G30G15G17G 6G23G18G10G29G26
  22901448.188   -14788753.44449 -11504915.21546  22901448.567    22901457.326
       222.000         170.000
  23115252.568   -11652054.28649  -9059998.08246  23115251.794    23115262.545
       224.000         169.000
  21518762.637   -14911767.61949 -11592638.99647  21518761.981    21518769.963
       238.000         202.000
  20245563.759   -26592791.11949 -20707444.90748  20245563.618    20245570.111
       245.000         213.000
  20622204.010   -22459460.01049 -17463237.11248  20622203.466    20622210.452
       245.000         215.000
  22597720.664   -12730255.38149  -9900597.35446  22597720.044    22597728.748
       226.000         173.000
  23594818.441    -7577020.32249  -5890004.48045  23594817.588    23594825.884
       218.000         157.000
  22666030.690   -14530841.16449 -11276037.16346  22666030.274    22666037.493
       226.000         176.000
  21996964.315   -15026273.21649 -11675865.10546  21996964.408    21996972.252
       228.000         180.000
 03  2  8  0 56 30.0000000  0  9G30G15G17G 6G23G18G10G29G26
  22919740.530   -14692626.86449 -11430011.43046  22919741.453    22919750.084
       222.000         170.000
  23102877.608   -11717084.95549  -9110671.19746  23102876.272    23102886.818
       222.000         169.000
  21512703.458   -14943608.65849 -11617450.14347  21512703.026    21512710.575
       238.000         202.000
  20245329.006   -26594024.59449 -20708406.03848  20245328.850    20245335.054
       245.000         213.000
  20617852.697   -22482325.90349 -17481054.63448  20617852.038    20617859.414
       245.000         215.000
  22580862.719   -12818843.56549  -9969626.92046  22580862.144    22580869.831
       225.000         174.000
  23614246.775    -7474923.53049  -5810448.54745  23614244.799    23614253.486
       215.000         156.000
  22663278.381   -14545303.86649 -11287306.73046  22663278.629    22663285.232
       226.000         176.000
  21987032.340   -15078465.59549 -11716534.38546  21987032.374    21987039.635
       228.000         181.000
 03  2  8  0 57  0.0000000  0  9G30G15G17G 6G23G18G10G29G26
  22938057.381   -14596371.39949 -11355007.21946  22938057.393    22938066.855
       223.000         169.000
  23090521.931   -11782013.99049  -9161265.12546  23090521.824    23090530.400
       224.000         169.000
  21506668.692   -14975321.08949 -11642161.08447  21506667.844    21506675.660
       238.000         201.000
  20245181.159   -26594801.42949 -20709011.34248  20245180.843    20245187.660
       245.000         213.000
  20613594.530   -22504702.46749 -17498490.86548  20613593.936    20613601.156
       245.000         215.000
  22564060.315   -12907139.64149 -10038428.87446  22564059.557    22564067.945
       227.000         175.000
  23633696.576    -7372712.71249  -5730803.78945  23633695.633    23633703.350
       216.000         156.000
  22660622.899   -14559258.40849 -11298180.32746  22660622.677    22660630.023
       226.000         176.000
  21977194.358   -15130163.80649 -11756818.60446  21977194.085    21977201.843
       228.000         181.000
 03  2  8  0 57 30.0000000  0  9G30G15G17G 6G23G18G10G29G26
  22956398.061   -14499990.79149 -11279905.48246  22956397.886    22956407.728
       223.000         169.000
  23078185.375   -11846842.46849  -9211780.69246  23078184.016    23078192.638
       220.000         168.000
  21500658.231   -15006905.86149 -11666772.55147  21500657.365    21500665.068
       238.000         201.000
  20245120.219   -26595121.42949 -20709260.67148  20245120.015    20245126.591
       245.000         213.000
  20609429.261   -22526590.89149 -17515546.73448  20609428.799    20609435.828
       246.000         215.000
  22547313.714   -12995143.01149 -10107002.75546  22547313.240    22547321.302
       227.000         176.000
  23653167.634    -7270391.35249  -5651072.86745  23653166.733    23653175.998
       218.000         157.000
  22658064.158   -14572704.22449 -11308657.51546  22658063.409    22658071.267
       225.000         176.000
  21967450.805   -15181366.03249 -11796716.34146  21967450.680    21967458.469
       228.000         181.000
 03  2  8  0 58  0.0000000  0  9G30G15G17G 6G23G18G10G29G26
  22974762.188   -14403486.83249 -11204707.63346  22974762.003    22974770.836
       223.000         168.000
  23065868.057   -11911569.32949  -9262217.09146  23065866.713    23065877.541
       219.000         166.000
  21494672.282   -15038361.82149 -11691283.64347  21494671.648    21494679.242
       238.000         201.000
  20245146.682   -26594982.23249 -20709152.18748  20245146.637    20245153.279
       245.000         213.000
  20605357.070   -22547990.30349 -17532221.55448  20605356.449    20605363.860
       245.000         215.000
  22530623.395   -13082850.68649 -10175346.22246  22530622.535    22530630.184
       228.000         176.000
  23672659.594    -7167960.68549  -5571256.76845  23672658.220    23672667.208
       216.000         156.000
  22655602.584   -14585639.21149 -11318736.65346  22655603.462    22655609.529
       226.000         176.000
  21957802.366   -15232068.12749 -11836224.36346  21957802.130    21957809.828
       228.000         180.000
 03  2  8  0 58 30.0000000  0  9G30G15G17G 6G23G18G10G29G26
  22993149.209   -14306862.98549 -11129416.36846  22993149.504    22993158.261
       224.000         168.000
  23053569.884   -11976195.07449  -9312574.68946  23053568.836    23053578.965
       218.000         165.000
  21488710.657   -15069690.17249 -11715695.29947  21488709.946    21488717.452
       238.000         201.000
  20245260.681   -26594383.20749 -20708685.40148  20245260.378    20245267.201
       245.000         213.000
  20601377.777   -22568901.41449 -17548515.87848  20601377.333    20601384.437
       245.000         215.000
  22513989.491   -13170261.70949 -10243458.54646  22513989.389    22513997.166
       227.000         176.000
  23692171.786    -7065423.48049  -5491357.65945  23692170.662    23692180.894
       218.000         157.000
  22653238.506   -14598062.53949 -11328417.10346  22653238.100    22653245.790
       225.000         176.000
  21948249.611   -15282267.86349 -11875340.94746  21948249.933    21948257.038
       228.000         180.000
 03  2  8  0 59  0.0000000  0  9G30G15G17G 6G23G18G10G29G26
  23011558.381   -14210122.77549 -11054034.43946  23011559.279    23011567.876
       223.000         168.000
  23041290.982   -12040720.20249  -9362853.89346  23041289.038    23041300.333
       219.000         165.000
  21482773.222   -15100891.31749 -11740007.83047  21482772.406    21482780.166
       238.000         201.000
  20245462.318   -26593323.61349 -20707859.72448  20245462.168    20245468.632
       245.000         213.000
  20597491.282   -22589324.99449 -17564430.30848  20597490.764    20597497.879
       246.000         215.000
  22497412.308   -13257374.65249 -10311338.61046  22497411.406    22497419.440
       227.000         176.000
  23711703.788    -6962782.46649  -5411377.66745  23711703.519    23711711.843
       218.000         159.000
  22650971.870   -14609973.51349 -11337698.30946  22650971.549    22650979.216
       226.000         176.000
  21938792.873   -15331962.96349 -11914064.30146  21938792.830    21938801.093
       229.000         181.000
 03  2  8  0 59 30.0000000  0  9G30G15G17G 6G23G18G10G29G26
  23029989.128   -14113268.88249 -10978563.92246  23029989.230    23029997.725
       222.000         168.000
  23029031.287   -12105144.78849  -9413054.77146  23029030.104    23029040.732
       220.000         166.000
  21476859.904   -15131965.60049 -11764221.51447  21476859.210    21476866.595
       237.000         201.000
  20245751.772   -26591802.43549 -20706674.37448  20245751.708    20245758.419
       246.000         214.000
  20593697.488   -22609261.36549 -17579965.09648  20593696.950    20593703.761
       245.000         215.000
  22480892.150   -13344187.96349 -10378985.19246  22480891.433    22480899.480
       229.000         177.000
  23731255.111    -6860039.95249  -5331318.57545  23731254.005    23731262.911
       217.000         158.000
  22648802.951   -14621370.90949 -11346579.32546  22648803.060    22648809.338
       226.000         176.000
  21929432.798   -15381150.51449 -11952392.15646  21929432.290    21929439.528
       229.000         182.000
 03  2  8  1  0  0.0000000  0  9G30G15G17G 6G23G18G10G29G26
  23048440.677   -14016304.82049 -10903007.55146  23048440.617    23048449.763
       223.000         167.000
  23016790.721   -12169469.36249  -9463177.71446  23016790.148    23016799.713
       223.000         167.000
  21470970.756   -15162913.19349 -11788336.47747  21470970.387    21470978.031
       238.000         202.000
  20246129.250   -26589818.79549 -20705128.66648  20246129.206    20246135.707
       245.000         214.000
  20589996.298   -22628711.13649 -17595120.71948  20589995.862    20590002.955
       245.000         215.000
  22464429.269   -13430700.32849 -10446397.28246  22464428.510    22464436.656
       228.000         177.000
  23750825.088    -6757198.93549  -5251182.73345  23750824.187    23750833.960
       217.000         158.000
  22646731.934   -14632253.94849 -11355059.55546  22646731.644    22646738.844
       226.000         176.000
  21920169.747   -15429828.08149 -11990322.63546  21920169.363    21920177.188
       230.000         182.000
 03  2  8  1  0 30.0000000  0  9G30G15G17G 6G23G18G10G29G26
  23066912.772   -13919233.24749 -10827367.40346  23066913.348    23066921.503
       223.000         167.000
  23004569.212   -12233693.78949  -9513222.63646  23004568.659    23004577.736
       223.000         168.000
  21465105.690   -15193734.15649 -11812352.76447  21465105.067    21465113.062
       238.000         202.000
  20246594.971   -26587371.44249 -20703221.62048  20246594.844    20246601.363
       246.000         214.000
  20586387.673   -22647674.33349 -17609897.19048  20586387.081    20586394.395
       245.000         215.000
  22448023.965   -13516910.05749 -10513573.56546  22448022.607    22448031.245
       230.000         177.000
  23770413.670    -6654261.17549  -5170971.47845  23770413.105    23770421.617
       218.000         160.000
  22644759.053   -14642621.29249 -11363137.92546  22644758.950    22644765.926
       225.000         176.000
  21911004.224   -15477992.62949 -12027853.35346  21911003.748    21911011.727
       229.000         181.000
 03  2  8  1  1  0.0000000  0  9G30G15G17G 6G23G18G10G29G26
  23085404.853   -13822056.96049 -10751645.66146  23085405.207    23085414.325
       222.000         167.000
  22992366.724   -12297818.14549  -9563189.57546  22992365.247    22992374.876
       223.000         169.000
  21459264.625   -15224428.91049 -11836270.71047  21459264.181    21459271.355
       238.000         202.000
  20247149.140   -26584459.44449 -20700952.50748  20247149.160    20247155.406
       246.000         214.000
  20582871.584   -22666151.41749 -17624294.87748  20582871.145    20582877.855
       245.000         215.000
  22431676.524   -13602815.48549 -10580512.73246  22431676.064    22431683.875
       229.000         178.000
  23790020.033    -6551229.39649  -5090686.97745  23790018.633    23790028.413
       217.000         159.000
  22642884.438   -14652471.99649 -11370813.73846  22642884.167    22642891.175
       226.000         176.000
  21901936.875   -15525641.63349 -12064982.35846  21901936.135    21901944.204
       230.000         181.000
 03  2  8  1  1 30.0000000  0  9G30G15G17G 6G23G18G10G29G26
  23103916.171   -13724779.07849 -10675844.75246  23103916.641    23103926.882
       221.000         165.000
  22980183.260   -12361842.47249  -9613078.55846  22980182.251    22980192.061
       223.000         170.000
  21453447.559   -15254997.54249 -11860090.36947  21453447.188    21453454.635
       238.000         202.000
  20247791.902   -26581081.75149 -20698320.51848  20247791.735    20247798.264
       245.000         214.000
  20579447.917   -22684142.78249 -17638314.08348  20579447.395    20579454.447
       245.000         215.000
  22415387.368   -13688414.99549 -10647213.51046  22415386.451    22415393.929
       228.000         178.000
  23809643.541    -6448105.75849  -5010330.90445  23809641.938    23809652.169
       214.000         158.000
  22641108.393   -14661804.93549 -11378086.08946  22641107.777    22641115.002
       225.000         176.000
  21892968.115   -15572772.40149 -12101707.54246  21892967.574    21892975.123
       229.000         181.000
 03  2  8  1  2  0.0000000  0  9G30G15G17G 6G23G18G10G29G26
  23122446.385   -13627402.19149 -10599966.70846  23122447.353    23122456.213
       222.000         164.000
  22968018.791   -12425766.48249  -9662889.37646  22968017.722    22968027.801
       223.000         170.000
  21447654.607   -15285439.73349 -11883811.50747  21447654.088    21447662.143
       238.000         203.000
  20248523.471   -26577237.12149 -20695324.68848  20248523.229    20248529.915
       245.000         214.000
  20576116.644   -22701648.50649 -17651954.86648  20576115.951    20576123.373
       245.000         215.000
  22399156.795   -13773706.77249 -10713674.51446  22399156.257    22399163.684
       230.000         179.000
  23829284.276    -6344892.34449  -4929904.86045  23829283.260    23829292.188
       215.000         157.000
  22639431.099   -14670618.80649 -11384953.97846  22639431.068    22639437.568
       225.000         176.000
  21884098.530   -15619381.81449 -12138026.47846  21884098.154    21884105.710
       230.000         182.000
 03  2  8  1  2 30.0000000  0  9G30G15G17G 6G23G18G10G29G26
  23140994.809   -13529930.10049 -10524014.48046  23140995.362    23141004.210
       221.000         164.000
  22955873.297   -12489591.18149  -9712622.79946  22955871.541    22955881.167
       222.000         169.000
  21441885.441   -15315756.73949 -11907435.09447  21441884.642    21441892.718
       238.000         203.000
  20249343.989   -26572925.27149 -20691964.78348  20249343.821    20249350.071
       245.000         214.000
  20572877.586   -22718669.85049 -17665218.20748  20572877.024    20572883.903
       245.000         215.000
  22382984.997   -13858689.99649 -10779895.08346  22382985.062    22382991.796
       231.000         180.000
  23848941.551    -6241592.60949  -4849411.55145  23848940.682    23848949.637
       215.000         156.000
  22637852.632   -14678913.44549 -11391417.26346  22637852.781    22637859.158
       226.000         176.000
  21875328.486   -15665468.10149 -12173937.78246  21875328.205    21875335.219
       229.000         182.000
 03  2  8  1  3  0.0000000  0  9G30G15G17G 6G23G18G10G29G26
  23159560.754   -13432365.11149 -10447989.86546  23159561.569    23159570.886
       221.000         164.000
  22943746.678   -12553316.11549  -9762278.49346  22943745.685    22943755.193
       222.000         168.000
  21436140.140   -15345947.99849 -11930960.69647  21436139.569    21436147.210
       239.000         203.000
  20250253.727   -26568144.50949 -20688239.49448  20250253.481    20250260.129
       245.000         213.000
  20569730.736   -22735206.56549 -17678103.91748  20569730.132    20569737.080
       245.000         215.000
  22366872.246   -13943362.73949 -10845873.72546  22366871.517    22366878.834
       231.000         180.000
  23868615.017    -6138208.19549  -4768852.27445  23868614.382    23868623.218
       216.000         155.000
  22636373.214   -14686687.19849 -11397474.66746  22636373.215    22636379.786
       227.000         176.000
  21866658.598   -15711028.08149 -12209438.96846  21866658.627    21866665.737
       228.000         181.000
 03  2  8  1  3 30.0000000  0  9G30G15G17G 6G23G18G10G29G26
  23178143.779   -13334710.85049 -10371895.69346  23178144.385    23178153.878
       221.000         164.000
  22931638.959   -12616942.08549  -9811857.06046  22931637.847    22931646.877
       222.000         167.000
  21430418.675   -15376014.52549 -11954389.11247  21430418.360    21430425.739
       240.000         204.000
  20251252.712   -26562894.62649 -20684148.66048  20251252.480    20251259.137
       245.000         213.000
  20566675.814   -22751259.91949 -17690612.98048  20566675.037    20566682.398
       245.000         215.000
  22350818.818   -14027723.89949 -10911609.58546  22350817.901    22350825.441
       231.000         180.000
  23888304.208    -6034741.88449  -4688229.17645  23888304.091    23888312.353
       214.000         154.000
  22634993.061   -14693939.68449 -11403125.89646  22634992.491    22635000.135
       226.000         176.000
  21858089.299   -15756059.70449 -12244528.46246  21858089.450    21858096.658
       229.000         181.000
 03  2  8  1  4  0.0000000  0  9G30G15G17G 6G23G18G10G29G26
  23196743.429   -13236969.98849 -10295734.03146  23196744.528    23196752.627
       221.000         164.000
  22919550.132   -12680468.95049  -9861358.39746  22919549.556    22919558.984
       222.000         167.000
  21424721.140   -15405955.84649 -11977719.97047  21424720.595    21424727.667
       240.000         204.000
  20252341.180   -26557174.57249 -20679691.46148  20252341.086    20252347.456
       245.000         213.000
  20563712.867   -22766830.04749 -17702745.50048  20563712.248    20563719.425
       245.000         215.000
  22334824.916   -14111771.81349 -10977101.35946  22334824.483    22334831.585
       231.000         180.000
  23908008.418    -5931195.99449  -4607544.05745  23908007.771    23908015.381
       212.000         150.000
  22633712.321   -14700669.91049 -11408370.17146  22633712.227    22633719.303
       225.000         176.000
  21849621.061   -15800560.24949 -12279204.13146  21849621.182    21849628.650
       231.000         182.000
 03  2  8  1  4 30.0000000  0  9G30G15G17G 6G23G18G10G29G26
  23215358.996   -13139145.41749 -10219507.14146  23215359.931    23215368.370
       220.000         163.000
  22907480.147   -12743896.65949  -9910782.47546  22907479.132    22907488.066
       224.000         168.000
  21419047.167   -15435772.52549 -12000953.69147  21419046.573    21419053.968
       240.000         204.000
  20253519.314   -26550983.36149 -20674867.11848  20253519.180    20253525.527
       245.000         213.000
  20560841.780   -22781917.39649 -17714501.82848  20560841.106    20560848.142
       245.000         215.000
  22318890.936   -14195504.87249 -11042347.78146  22318890.993    22318897.779
       232.000         181.000
  23927727.450    -5827572.37349  -4526798.37745  23927726.650    23927734.935
       210.000         148.000
  22632531.125   -14706876.91449 -11413206.74446  22632530.955    22632538.119
       226.000         176.000
  21841254.510   -15844526.93849 -12313463.80846  21841254.124    21841262.219
       230.000         183.000
 03  2  8  1  5  0.0000000  0  9G30G15G17G 6G23G18G10G29G26
  23233989.814   -13041240.35649 -10143217.55045  23233990.113    23233999.257
       220.000         162.000
  22895429.027   -12807225.60449  -9960129.62146  22895428.255    22895436.875
       225.000         169.000
  21413396.966   -15465464.55649 -12024090.29347  21413396.474    21413403.824
       240.000         204.000
  20254787.267   -26544320.20149 -20669675.02548  20254787.033    20254793.545
       245.000         213.000
  20558062.404   -22796522.85849 -17725882.66048  20558061.850    20558068.892
       245.000         215.000
  22303017.142   -14278921.82349 -11107347.89246  22303016.413    22303023.505
       231.000         181.000
  23947460.670    -5723873.77349  -4445994.27045  23947459.619    23947467.651
       209.000         147.000
  22631449.659   -14712560.06449 -11417635.12046  22631450.143    22631456.064
       226.000         176.000
  21832989.897   -15887957.49549 -12347305.70546  21832989.026    21832997.313
       229.000         183.000
 03  2  8  1  5 30.0000000  0  9G30G15G17G 6G23G18G10G29G26
  23252635.398   -12943257.36949 -10066867.24645  23252635.885    23252644.475
       221.000         162.000
  22883396.713   -12870455.45349 -10009399.53646  22883395.755    22883404.865
       225.000         170.000
  21407770.466   -15495032.26849 -12047130.02547  21407769.969    21407776.895
       239.000         204.000
  20256145.236   -26537183.89349 -20664114.25148  20256145.063    20256151.677
       245.000         214.000
  20555374.691   -22810646.61749 -17736888.14048  20555374.300    20555381.048
       245.000         215.000
  22287203.832   -14362021.00749 -11172100.39146  22287203.740    22287210.523
       232.000         181.000
  23967207.520    -5620102.30949  -4365133.38245  23967205.509    23967215.223
       208.000         144.000
  22630468.121   -14717717.97749 -11421654.22146  22630467.963    22630474.760
       226.000         176.000
  21824827.765   -15930849.30849 -12380727.81446  21824827.506    21824835.307
       230.000         183.000
 03  2  8  1  6  0.0000000  0  9G30G15G17G 6G23G18G10G29G26
  23271295.216   -12845199.50349  -9990458.56946  23271296.407    23271304.515
       221.000         163.000
  22871383.265   -12933586.26449 -10058592.26546  22871382.711    22871392.091
       225.000         172.000
  21402167.533   -15524475.35449 -12070072.64647  21402166.818    21402173.989
       239.000         203.000
  20257593.390   -26529573.66949 -20658184.18848  20257593.360    20257599.656
       246.000         213.000
  20552778.544   -22824289.33749 -17747518.78648  20552777.948    20552785.086
       245.000         215.000
  22271451.335   -14444800.91649 -11236604.11046  22271451.115    22271457.846
       233.000         182.000
  23986967.719    -5516260.21349  -4284217.48045  23986967.588    23986975.849
       206.000         142.000
  22629586.647   -14722349.99449 -11425263.54946  22629586.873    22629592.938
       227.000         176.000
  21816768.744   -15973199.68149 -12413728.03246  21816768.785    21816775.240
       231.000         183.000
 03  2  8  1  6 30.0000000  0  9G30G15G17G 6G23G18G10G29G26
  23289968.811   -12747069.11049  -9913993.39046  23289968.950    23289978.277
       221.000         163.000
  22859388.725   -12996617.76549 -10107707.61046  22859387.595    22859397.363
       226.000         172.000
  21396588.303   -15553793.78249 -12092918.12447  21396587.471    21396595.199
       239.000         203.000
  20259132.010   -26521488.21849 -20651883.81848  20259131.775    20259138.162
       245.000         213.000
  20550273.900   -22837451.14449 -17757774.69048  20550273.212    20550280.332
       247.000         215.000
  22255759.822   -14527259.55149 -11300857.47146  22255758.989    22255766.537
       231.000         182.000
  24006741.346    -5412349.44949  -4203248.02845  24006741.089    24006749.697
       208.000         141.000
  22628805.510   -14726455.02149 -11428462.22746  22628805.794    22628812.257
       227.000         177.000
  21808813.223   -16015005.82349 -12446304.16346  21808812.923    21808820.615
       230.000         183.000
 03  2  8  1  7  0.0000000  0  9G30G15G17G 6G23G18G10G29G26
  23308655.495   -12648870.17249  -9837474.79746  23308655.793    23308665.582
       222.000         163.000
  22847412.827   -13059551.04949 -10156746.41246  22847411.966    22847420.581
       225.000         172.000
  21391032.632   -15582988.71149 -12115667.37047  21391031.987    21391039.716
       239.000         203.000
  20260760.987   -26512927.80749 -20645213.35648  20260760.727    20260767.185
       244.000         214.000
  20547860.468   -22850133.67449 -17767657.13648  20547860.003    20547866.805
       247.000         215.000
  22240129.574   -14609396.77249 -11364860.38146  22240128.559    22240135.919
       231.000         182.000
  24026527.466    -5308372.99849  -4122227.38245  24026526.372    24026534.714
       206.000         141.000
  22628124.561   -14730033.34249 -11431250.47346  22628124.575    22628132.061
       227.000         177.000
  21800961.542   -16056266.32849 -12478455.12546  21800961.688    21800968.838
       230.000         183.000
 03  2  8  1  7 30.0000000  0  9G30G15G17G 6G23G18G10G29G26
  23327354.750   -12550605.24249  -9760904.78646  23327355.378    23327364.618
       222.000         163.000
  22835455.663   -13122385.86149 -10205708.48646  22835455.103    22835463.886
       225.000         171.000
  21385500.498   -15612059.93849 -12138320.22847  21385499.797    21385507.543
       239.000         203.000
  20262480.604   -26503891.13749 -20638171.77848  20262480.457    20262486.905
       245.000         214.000
  20545538.234   -22862337.09649 -17777166.24848  20545537.540    20545544.678
       246.000         215.000
  22224560.815   -14691210.31449 -11428611.06746  22224560.067    22224567.663
       231.000         182.000
  24046325.389    -5204332.77449  -4041157.06345  24046323.467    24046331.205
       206.000         140.000
  22627544.120   -14733083.47949 -11433627.15946  22627544.117    22627550.273
       227.000         177.000
  21793214.184   -16096978.25949 -12510178.62246  21793214.122    21793221.311
       230.000         183.000
 03  2  8  1  8  0.0000000  0  9G30G15G17G 6G23G18G10G29G26
  23346066.012   -12452276.73149  -9684285.25046  23346066.295    23346074.894
       220.000         163.000
  22823517.304   -13185121.86649 -10254593.58546  22823516.049    22823524.539
       225.000         171.000
  21379991.996   -15641007.14849 -12160876.45547  21379991.530    21379998.887
       238.000         204.000
  20264291.115   -26494376.94649 -20630758.10448  20264290.993    20264297.243
       244.000         214.000
  20543307.098   -22874061.59549 -17786302.17448  20543306.455    20543313.456
       246.000         215.000
  22209053.942   -14772698.68649 -11492108.38746  22209052.643    22209060.457
       231.000         182.000
  24066135.006    -5100230.86249  -3960038.67245  24066134.352    24066143.591
       207.000         141.000
  22627064.400   -14735604.48849 -11435591.53646  22627064.209    22627071.082
       227.000         177.000
  21785571.822   -16137138.75249 -12541472.43846  21785571.932    21785579.080
       231.000         184.000
 03  2  8  1  8 30.0000000  0  9G30G15G17G 6G23G18G10G29G26
  23364788.727   -12353888.05149  -9607618.83245  23364788.963    23364798.858
       220.000         162.000
  22811597.742   -13247759.30749 -10303401.88046  22811596.990    22811605.954
       226.000         172.000
  21374506.944   -15669831.07449 -12183336.61447  21374505.897    21374514.168
       238.000         203.000
  20266192.516   -26484384.91149 -20622972.08148  20266192.397    20266198.544
       245.000         214.000
  20541166.848   -22885308.28949 -17795065.78848  20541166.356    20541173.102
       247.000         215.000
  22193609.182   -14853860.86249 -11555351.52046  22193608.684    22193615.652
       232.000         183.000
  24085956.024    -4996069.68649  -3878874.09945  24085955.790    24085964.463
       210.000         144.000
  22626685.361   -14737595.97249 -11437143.30146  22626684.882    22626691.737
       227.000         177.000
  21778034.810   -16176745.97149 -12572335.12946  21778034.850    21778041.639
       229.000         184.000
 03  2  8  1  9  0.0000000  0  9G30G15G17G 6G23G18G10G29G26
  23383522.292   -12255442.68749  -9530908.23145  23383522.454    23383532.538
       220.000         162.000
  22799696.781   -13310299.07449 -10352134.05746  22799695.739    22799704.087
       227.000         174.000
  21369045.154   -15698532.28649 -12205701.15447  21369044.698    21369052.264
       239.000         203.000
  20268184.886   -26473914.91549 -20614813.62548  20268184.668    20268191.142
       244.000         214.000
  20539117.339   -22896078.53549 -17803458.14148  20539116.765    20539123.757
       246.000         215.000
  22178226.656   -14934696.09049 -11618339.89146  22178225.824    22178232.991
       232.000         183.000
  24105787.912    -4891852.49049  -3797665.87945  24105787.151    24105795.945
       211.000         145.000
  22626407.013   -14739057.94749 -11438282.44746  22626406.854    22626414.591
       227.000         177.000
  21770603.333   -16215798.27449 -12602765.40546  21770603.085    21770610.317
       229.000         184.000
 03  2  8  1  9 30.0000000  0  9G30G15G17G 6G23G18G10G29G26
  23402266.113   -12156942.93949  -9454155.25945  23402266.918    23402276.304
       220.000         161.000
  22787814.599   -13372740.69549 -10400789.77846  22787813.705    22787822.512
       226.000         174.000
  21363607.056   -15727109.88649 -12227969.37547  21363606.763    21363614.130
       239.000         204.000
  20270268.455   -26462965.55549 -20606281.64348  20270268.225    20270274.636
       244.000         214.000
  20537158.453   -22906372.30049 -17811479.21148  20537157.742    20537164.920
       246.000         214.000
  22162906.781   -15015202.31649 -11681071.90946  22162906.309    22162913.572
       233.000         184.000
  24125630.213    -4787580.62549  -3716415.06645  24125630.354    24125638.194
       213.000         147.000
  22626229.787   -14739989.16649 -11439008.03146  22626229.197    22626237.122
       226.000         177.000
  21763277.999   -16254292.61649 -12632760.91746  21763277.866    21763285.182
       230.000         184.000
 03  2  8  1 10  0.0000000  0  9G30G15G17G 6G23G18G10G29G26
  23421019.801   -12058391.91349  -9377362.32545  23421020.105    23421029.838
       220.000         161.000
  22775950.875   -13435084.47249 -10449369.25046  22775949.958    22775958.618
       226.000         174.000
  21358192.287   -15755564.80749 -12250142.00647  21358191.911    21358199.319
       239.000         204.000
  20272443.389   -26451536.30949 -20597375.71748  20272443.340    20272449.567
       245.000         214.000
  20535290.056   -22916190.44449 -17819129.66848  20535289.555    20535296.428
       246.000         214.000
  22147649.750   -15095378.24249 -11743546.54046  22147649.092    22147656.001
       232.000         184.000
  24145482.548    -4683256.51049  -3635123.52045  24145482.400    24145489.971
       214.000         148.000
  22626153.597   -14740389.18549 -11439319.68046  22626153.770    22626159.911
       227.000         177.000
  21756059.340   -16292226.82649 -12662319.96846  21756058.954    21756066.525
       230.000         185.000
 03  2  8  1 10 30.0000000  0  9G30G15G17G 6G23G18G10G29G26
  23439782.757   -11959792.56149  -9300531.74045  23439782.886    23439791.943
       221.000         161.000
  22764105.805   -13497330.39449 -10497872.45546  22764104.528    22764113.551
       224.000         174.000
  21352800.814   -15783896.99649 -12272218.99947  21352800.534    21352807.573
       239.000         204.000
  20274709.741   -26439626.57649 -20588095.39448  20274709.501    20274716.006
       244.000         213.000
  20533512.008   -22925533.91949 -17826410.25948  20533511.426    20533518.207
       246.000         214.000
  22132455.785   -15175222.70449 -11805762.89646  22132454.620    22132462.006
       233.000         185.000
  24165344.406    -4578882.67949  -3553793.23945  24165343.081    24165351.442
       214.000         150.000
  22626178.619   -14740257.51649 -11439217.01546  22626178.293    22626185.549
       226.000         177.000
  21748947.630   -16329598.78249 -12691440.89246  21748947.667    21748954.561
       230.000         185.000
 03  2  8  1 11  0.0000000  0  9G30G15G17G 6G23G18G10G29G26
  23458554.384   -11861147.89549  -9223665.85045  23458554.870    23458564.043
       220.000         161.000
  22752279.199   -13559478.56449 -10546299.48646  22752277.806    22752287.082
       222.000         172.000
  21347432.685   -15812106.54549 -12294200.43347  21347431.820    21347439.176
       238.000         203.000
  20277067.618   -26427235.72449 -20578440.17748  20277067.488    20277073.732
       244.000         214.000
  20531824.139   -22934403.49449 -17833321.57248  20531823.504    20531830.559
       246.000         214.000
  22117325.162   -15254734.31149 -11867719.88346  22117324.485    22117331.398
       234.000         185.000
  24185215.419    -4474460.98749  -3472425.67145  24185214.554    24185222.576
       213.000         151.000
  22626304.860   -14739593.60549 -11438699.62146  22626304.625    22626311.671
       225.000         176.000
  21741943.309   -16366406.27349 -12720121.97746  21741943.016    21741950.133
       231.000         185.000
 03  2  8  1 11 30.0000000  0  9G30G15G17G 6G23G18G10G29G26
  23477334.088   -11762460.48349  -9146766.65845  23477335.249    23477343.972
       218.000         160.000
  22740471.335   -13621528.70949 -10594650.14846  22740470.630    22740479.585
       226.000         174.000
  21342087.844   -15840193.25349 -12316086.13947  21342087.091    21342094.357
       239.000         203.000
  20279517.212   -26414362.91949 -20568409.40248  20279517.152    20279523.379
       244.000         214.000
  20530226.353   -22942799.78149 -17839864.09348  20530225.820    20530232.733
       246.000         214.000
  22102258.180   -15333911.47449 -11929416.27046  22102257.396    22102264.869
       234.000         185.000
  24205094.889    -4369993.36649  -3391022.31345  24205093.822    24205101.618
       212.000         152.000
  22626532.541   -14738396.45049 -11437766.71746  22626532.767    22626539.928
       226.000         177.000
  21735046.922   -16402646.75449 -12748361.23746  21735047.130    21735054.429
       230.000         186.000
 03  2  8  1 12  0.0000000  0  9G30G15G17G 6G23G18G10G29G26
  23496121.367   -11663733.57649  -9069836.68945  23496121.593    23496130.202
       219.000         159.000
  22728682.185   -13683481.56549 -10642925.01346  22728680.962    22728690.132
       225.000         175.000
  21336766.330   -15868157.68049 -12337876.56247  21336766.104    21336772.891
       239.000         203.000
  20282058.622   -26401007.77449 -20558002.78048  20282058.373    20282064.630
       244.000         213.000
  20528718.412   -22950723.88849 -17846038.68448  20528717.714    20528724.555
       245.000         214.000
  22087255.039   -15412753.40049 -11990851.43646  22087254.762    22087261.088
       234.000         185.000
  24224982.677    -4265482.52949  -3309585.27845  24224982.384    24224989.944
       212.000         153.000
  22626861.762   -14736666.22249 -11436418.42546  22626861.580    22626868.458
       226.000         177.000
  21728258.717   -16438318.46449 -12776157.30046  21728258.749    21728265.646
       230.000         186.000
 03  2  8  1 12 30.0000000  0  9G30G15G17G 6G23G18G10G29G26
  23514915.701   -11564969.58749  -8992877.82645  23514915.493    23514924.595
       218.000         157.000
  22716911.300   -13745336.88649 -10691123.85946  22716911.080    22716919.765
       226.000         175.000
  21331468.180   -15895999.48649 -12359571.43147  21331467.422    21331474.963
       240.000         204.000
  20284691.961   -26387169.40749 -20547219.62448  20284691.810    20284698.281
       244.000         213.000
  20527300.211   -22958176.36949 -17851845.78048  20527299.876    20527306.476
       246.000         214.000
  22072315.977   -15491258.49649 -12052024.14446  22072315.174    22072322.178
       235.000         186.000
  24244878.144    -4160930.54049  -3228116.18445  24244877.541    24244885.039
       212.000         152.000
  22627292.573   -14734401.96649 -11434654.02446  22627293.041    22627299.329
       227.000         177.000
  21721579.282   -16473418.96349 -12803508.26746  21721579.314    21721586.271
       230.000         186.000
 03  2  8  1 13  0.0000000  0  9G30G15G17G 6G23G18G10G29G26
  23533716.363   -11466171.65049  -8915892.51245  23533717.157    23533726.715
       217.000         157.000
  22705159.226   -13807094.58549 -10739246.64146  22705158.466    22705166.802
       226.000         176.000
  21326193.350   -15923718.93349 -12381170.95647  21326193.024    21326200.056
       240.000         204.000
  20287417.404   -26372846.97149 -20536059.27448  20287417.193    20287423.613
       245.000         214.000
  20525971.625   -22965157.97149 -17857285.95148  20525971.016    20525978.082
       245.000         214.000
  22057441.253   -15569425.32249 -12112933.26646  22057440.672    22057447.944
       235.000         187.000
  24264781.087    -4056339.41049  -3146616.58545  24264779.832    24264787.951
       210.000         152.000
  22627825.195   -14731603.12149 -11432473.04346  22627824.963    22627831.901
       226.000         177.000
  21715008.947   -16507946.11349 -12830412.46446  21715009.062    21715016.118
       231.000         186.000
 03  2  8  1 13 30.0000000  0  9G30G15G17G 6G23G18G10G29G26
  23552523.059   -11367342.39049  -8838882.79845  23552523.078    23552532.451
       217.000         157.000
  22693425.574   -13868754.70849 -10787293.38646  22693424.229    22693433.526
       226.000         175.000
  21320941.826   -15951316.16949 -12402675.25147  21320941.769    21320948.482
       242.000         205.000
  20290235.109   -26358039.93849 -20524521.31448  20290234.883    20290241.016
       244.000         213.000
  20524732.486   -22971669.47149 -17862359.80548  20524731.884    20524738.825
       246.000         214.000
  22042631.130   -15647252.65049 -12173577.84446  22042630.474    22042637.095
       235.000         187.000
  24284691.067    -3951711.39249  -3065088.24545  24284690.429    24284698.315
       211.000         152.000
  22628459.625   -14728269.18349 -11429875.10246  22628458.784    22628465.912
       226.000         177.000
  21708548.190   -16541897.49449 -12856868.01646  21708547.905    21708555.325
       230.000         187.000
 03  2  8  1 14  0.0000000  0  9G30G15G17G 6G23G18G10G29G26
  23571335.136   -11268485.00549  -8761851.16845  23571335.444    23571345.169
       217.000         156.000
  22681710.461   -13930317.74849 -10835264.48946  22681710.019    22681718.234
       226.000         175.000
  21315713.618   -15978791.22149 -12424084.33547  21315713.419    21315720.313
       242.000         206.000
  20293145.037   -26342748.01949 -20512605.51848  20293144.698    20293151.349
       243.000         213.000
  20523582.618   -22977711.97149 -17867068.21448  20523582.180    20523588.959
       246.000         214.000
  22027885.760   -15724739.43649 -12233957.06346  22027885.092    22027892.086
       234.000         187.000
  24304607.790    -3847048.76449  -2983532.91845  24304606.751    24304615.694
       208.000         151.000
  22629195.827   -14724400.05349 -11426860.15046  22629196.124    22629202.473
       227.000         177.000
  21702197.292   -16575271.43749 -12882873.61746  21702196.982    21702204.253
       231.000         187.000
 03  2  8  1 14 30.0000000  0  9G30G15G17G 6G23G18G10G29G26
  23590151.850   -11169603.35149  -8684800.62245  23590152.307    23590161.672
       216.000         157.000
  22670013.726   -13991784.48649 -10883160.55446  22670012.927    22670021.420
       228.000         177.000
  21310508.383   -16006145.11549 -12445399.01047  21310508.242    21310515.179
       242.000         206.000
  20296147.174   -26326971.53749 -20500312.14848  20296147.120    20296153.468
       244.000         213.000
  20522521.650   -22983287.19549 -17871412.50948  20522521.064    20522527.897
       245.000         214.000
  22013205.208   -15801885.33649 -12294070.65446  22013204.226    22013211.984
       234.000         187.000
  24324530.389    -3742354.31049  -2901952.82045  24324528.619    24324537.300
       206.000         149.000
  22630033.831   -14719996.18249 -11423428.50546  22630033.384    22630040.605
       226.000         177.000
  21695956.561   -16608066.64049 -12908428.26146  21695956.832    21695963.670
       232.000         186.000
 03  2  8  1 15  0.0000000  0  9G30G15G17G 6G23G18G10G29G26
  23608972.897   -11070698.08249  -8607731.68945  23608973.368    23608982.460
       215.000         156.000
  22658335.619   -14053153.07449 -10930980.12946  22658334.571    22658343.079
       227.000         178.000
  21305326.497   -16033376.21649 -12466618.00347  21305326.090    21305333.298
       242.000         207.000
  20299242.036   -26310707.98549 -20487639.24248  20299241.697    20299248.155
       244.000         213.000
  20521549.772   -22988394.27449 -17875392.01348  20521549.437    20521556.223
       246.000         214.000
  21998590.267   -15878687.01049 -12353916.02047  21998589.373    21998596.737
       235.000         188.000
  24344458.771    -3637628.22649  -2820348.06545  24344457.203    24344466.125
       205.000         148.000
  22630973.971   -14715055.27049 -11419578.38146  22630973.413    22630980.977
       227.000         177.000
  21689826.682   -16640279.18349 -12933528.87346  21689826.675    21689833.515
       231.000         187.000
 03  2  8  1 15 30.0000000  0  9G30G15G17G 6G23G18G10G29G26
  23627797.625   -10971773.05249  -8530647.34445  23627797.996    23627807.276
       214.000         155.000
  22646676.028   -14114424.33249 -10978723.86646  22646675.283    22646683.602
       229.000         177.000
  21300167.827   -16060485.08749 -12487741.75347  21300167.141    21300174.574
       241.000         206.000
  20302429.529   -26293957.42549 -20474586.84948  20302429.421    20302435.650
       244.000         213.000
  20520666.702   -22993034.86849 -17879008.02448  20520666.248    20520672.951
       246.000         215.000
  21984040.943   -15955144.06149 -12413492.85247  21984040.326    21984047.163
       235.000         188.000
  24364392.753    -3532873.56649  -2738721.05945  24364392.952    24364400.505
       206.000         147.000
  22632016.307   -14709577.68849 -11415310.09346  22632015.642    22632022.899
       226.000         177.000
  21683807.944   -16671907.82349 -12958174.50446  21683807.952    21683814.730
       232.000         187.000
 03  2  8  1 16  0.0000000  0  9G30G15G17G 6G23G18G10G29G26
  23646625.617   -10872831.04449  -8453549.77745  23646626.281    23646635.780
       214.000         154.000
  22635034.948   -14175598.44149 -11026391.91546  22635034.492    22635042.715
       229.000         178.000
  21295032.264   -16087472.05249 -12508770.50747  21295031.456    21295038.694
       240.000         206.000
  20305709.775   -26276719.65149 -20461154.81248  20305709.630    20305715.753
       244.000         213.000
  20519872.192   -22997210.00649 -17882261.34748  20519871.559    20519878.333
       246.000         214.000
  21969557.418   -16031255.21649 -12472800.15747  21969556.572    21969563.593
       236.000         189.000
  24384332.129    -3428092.59449  -2657073.52445  24384330.919    24384339.986
       206.000         146.000
  22633160.780   -14703563.19149 -11410623.42146  22633160.759    22633167.402
       227.000         177.000
  21677900.666   -16702950.71349 -12982363.70246  21677900.812    21677907.150
       231.000         187.000
 03  2  8  1 16 30.0000000  0  9G30G15G17G 6G23G18G10G29G26
  23665456.258   -10773875.21849  -8376441.45545  23665457.085    23665466.887
       214.000         155.000
  22623412.316   -14236675.65549 -11073984.43146  22623411.058    22623419.492
       226.000         178.000
  21289919.865   -16114337.35149 -12529704.45947  21289919.036    21289926.325
       240.000         205.000
  20309082.747   -26258994.56949 -20447343.05348  20309082.595    20309089.019
       244.000         213.000
  20519165.982   -23000920.90049 -17885152.92048  20519165.607    20519172.174
       246.000         214.000
  21955139.784   -16107019.99249 -12531837.56247  21955139.103    21955146.109
       235.000         189.000
  24404275.792    -3323287.82349  -2575407.45345  24404274.492    24404284.184
       204.000         145.000
  22634407.444   -14697011.77949 -11405518.37546  22634407.146    22634414.019
       227.000         178.000
  21672105.143   -16733406.14049 -13006095.14646  21672104.534    21672111.465
       230.000         187.000
 03  2  8  1 17  0.0000000  0  9G30G15G17G 6G23G18G10G29G26
  23684289.039   -10674908.34049  -8299324.51745  23684289.657    23684298.944
       214.000         155.000
  22611808.022   -14297655.72949 -11121501.27046  22611807.262    22611815.672
       228.000         178.000
  21284830.746   -16141080.54049 -12550543.26247  21284829.969    21284837.359
       239.000         205.000
  20312548.623   -26240781.26949 -20433150.85948  20312548.405    20312554.859
       244.000         213.000
  20518548.023   -23004168.29749 -17887683.32548  20518547.585    20518554.285
       245.000         214.000
  21940788.327   -16182436.65249 -12590603.69247  21940787.289    21940794.685
       234.000         189.000
  24424223.449    -3218460.85349  -2493724.10245  24424222.173    24424232.488
       203.000         144.000
  22635756.395   -14689922.89249 -11399994.53346  22635755.523    22635763.095
       227.000         177.000
  21666421.788   -16763271.84749 -13029367.06846  21666421.459    21666428.304
       231.000         187.000
 03  2  8  1 17 30.0000000  0  9G30G15G17G 6G23G18G10G29G26
  23703123.551   -10575932.78249  -8222200.81245  23703123.819    23703133.449
       215.000         155.000
  22600222.327   -14358538.63949 -11168942.39746  22600221.542    22600229.791
       225.000         178.000
  21279764.783   -16167701.96149 -12571287.17947  21279764.346    21279771.344
       240.000         205.000
  20316107.512   -26222079.17849 -20418577.78048  20316107.332    20316113.672
       244.000         213.000
  20518018.076   -23006952.93649 -17889853.13948  20518017.342    20518024.198
       245.000         214.000
  21926503.415   -16257503.83049 -12649097.50847  21926502.988    21926510.092
       234.000         189.000
  24444175.091    -3113613.59149  -2412024.93345  24444174.950    24444182.210
       205.000         143.000
  22637207.710   -14682296.15649 -11394051.57946  22637207.897    22637214.970
       227.000         178.000
  21660851.058   -16792545.87349 -13052177.93846  21660851.435    21660857.760
       231.000         187.000
 03  2  8  1 18  0.0000000  0  9G30G15G17G 6G23G18G10G29G26
  23721958.931   -10476951.91149  -8145072.96545  23721959.479    23721969.610
       216.000         156.000
  22588655.029   -14419324.59249 -11216307.97146  22588654.290    22588662.339
       227.000         176.000
  21274721.995   -16194201.96849 -12591936.49047  21274721.507    21274728.635
       239.000         205.000
  20319759.412   -26202888.24249 -20403623.78648  20319759.283    20319765.595
       244.000         214.000
  20517575.918   -23009276.26849 -17891663.49448  20517575.448    20517582.143
       245.000         213.000
  21912285.265   -16332220.67449 -12707318.33247  21912284.851    21912291.674
       236.000         190.000
  24464130.594    -3008748.57749  -2330311.89945  24464130.035    24464139.835
       207.000         143.000
  22638761.346   -14674131.67649 -11387689.59746  22638760.792    22638767.628
       227.000         178.000
  21655393.269   -16821226.52049 -13074526.42346  21655393.113    21655400.096
       230.000         187.000
 03  2  8  1 18 30.0000000  0  9G30G15G17G 6G23G18G10G29G26
  23740794.898   -10377968.72249  -8067943.31845  23740794.420    23740805.501
       216.000         157.000
  22577106.051   -14480013.97649 -11263598.30646  22577104.786    22577113.880
       226.000         176.000
  21269702.257   -16220580.82749 -12612491.40047  21269701.422    21269708.973
       239.000         205.000
  20323504.381   -26183208.38249 -20388288.81948  20323504.291    20323510.558
       244.000         213.000
  20517221.335   -23011139.46349 -17893115.30548  20517220.824    20517227.569
       245.000         213.000
  21898133.865   -16406586.40849 -12765265.56147  21898133.688    21898139.893
       236.000         191.000
  24484088.722    -2903867.86949  -2248586.65245  24484088.148    24484096.934
       206.000         142.000
  22640417.274   -14665429.42849 -11380908.59246  22640417.025    22640424.253
       228.000         178.000
  21650048.603   -16849312.35049 -13096411.42946  21650048.263    21650055.191
       231.000         187.000
 03  2  8  1 19  0.0000000  0  9G30G15G17G 6G23G18G10G29G26
  23759630.821   -10278985.87549  -7990813.93645  23759630.350    23759641.446
       215.000         158.000
  22565575.530   -14540606.53549 -11310813.18046  22565575.007    22565583.523
       228.000         178.000
  21264705.622   -16246837.99349 -12632951.48147  21264704.931    21264712.205
       239.000         205.000
  20327342.470   -26163038.99249 -20372572.39848  20327342.234    20327348.425
       244.000         213.000
  20516954.076   -23012543.46749 -17894209.29748  20516953.439    20516960.475
       245.000         213.000
  21884049.606   -16480599.73049 -12822938.18947  21884049.138    21884055.849
       236.000         191.000
  24504049.479    -2798973.58949  -2166850.84345  24504049.170    24504057.854
       206.000         142.000
  22642175.719   -14656189.14849 -11373708.34446  22642175.278    22642182.506
       228.000         178.000
  21644817.582   -16876801.20349 -13117831.25046  21644817.095    21644824.680
       232.000         187.000
 03  2  8  1 19 30.0000000  0  9G30G15G17G 6G23G18G10G29G26
  23778465.996   -10180005.83149  -7913686.74245  23778466.670    23778477.281
       215.000         158.000
  22554063.560   -14601102.15049 -11357952.53746  22554062.647    22554070.817
       229.000         179.000
  21259732.124   -16272973.47949 -12653316.75047  21259731.194    21259738.777
       239.000         205.000
  20331273.864   -26142379.31649 -20356473.94148  20331273.472    20331279.974
       244.000         213.000
  20516774.110   -23013489.01749 -17894946.05348  20516773.743    20516780.220
       245.000         213.000
  21870032.618   -16554259.28649 -12880335.16447  21870032.162    21870038.475
       236.000         191.000
  24524012.551    -2694067.49449  -2085105.81945  24524012.439    24524020.958
       211.000         143.000
  22644036.527   -14646410.38449 -11366088.49146  22644036.510    22644042.948
       227.000         178.000
  21639700.548   -16903691.07649 -13138784.34147  21639700.357    21639707.396
       231.000         188.000
 03  2  8  1 20  0.0000000  0  9G30G15G17G 6G23G18G10G29G26
  23797300.152   -10081031.91549  -7836564.32645  23797300.412    23797311.058
       213.000         158.000
  22542569.923   -14661501.37449 -11405016.77346  22542569.234    22542577.494
       228.000         180.000
  21254781.696   -16298987.60349 -12673587.45447  21254780.781    21254788.175
       238.000         204.000
  20335298.511   -26121229.53049 -20339993.58248  20335298.246    20335304.734
       243.000         213.000
  20516681.097   -23013977.61749 -17895326.75448  20516680.717    20516687.433
       245.000         213.000
  21856083.086   -16627564.26249 -12937455.83647  21856082.789    21856088.791
       236.000         191.000
  24543977.533    -2589151.99349  -2003353.45045  24543977.208    24543986.110
       212.000         144.000
  22645999.782   -14636093.44249 -11358049.28446  22645999.131    22646005.993
       228.000         178.000
  21634697.758   -16929980.54649 -13159269.57147  21634697.630    21634704.274
       231.000         188.000
 03  2  8  1 20 30.0000000  0  9G30G15G17G 6G23G18G10G29G26
  23816132.689    -9982066.66649  -7759448.66145  23816133.014    23816144.314
       215.000         158.000
  22531094.599   -14721804.02849 -11452005.75846  22531094.198    22531102.387
       229.000         180.000
  21249854.358   -16324880.12549 -12693763.40247  21249853.632    21249861.113
       239.000         204.000
  20339416.502   -26099589.14849 -20323130.94148  20339416.255    20339422.629
       244.000         213.000
  20516674.892   -23014010.20949 -17895352.11648  20516674.362    20516681.356
       245.000         213.000
  21842201.248   -16700513.38849 -12994299.22147  21842200.779    21842207.196
       235.000         191.000
  24563943.863    -2484228.81749  -1921595.08345  24563943.026    24563952.278
       210.000         142.000
  22648065.508   -14625237.83649 -11349590.33146  22648065.481    22648071.650
       227.000         178.000
  21629809.601   -16955667.73549 -13179285.50747  21629809.814    21629816.460
       231.000         188.000
 03  2  8  1 21  0.0000000  0  9G30G15G17G 6G23G18G10G29G26
  23834963.036    -9883113.01049  -7682342.03745  23834963.638    23834973.760
       215.000         157.000
  22519637.778   -14782010.06349 -11498919.46446  22519636.850    22519644.729
       228.000         179.000
  21244950.183   -16350651.28749 -12713844.78347  21244949.268    21244957.043
       239.000         204.000
  20343627.952   -26077457.76949 -20305885.69847  20343627.530    20343633.980
       243.000         212.000
  20516755.217   -23013587.95549 -17895023.04848  20516754.706    20516761.536
       245.000         214.000
  21828387.317   -16773105.68849 -13050864.56147  21828386.852    21828393.334
       236.000         192.000
  24583911.211    -2379300.29149  -1839832.54845  24583910.703    24583918.939
       211.000         141.000
  22650233.744   -14613843.55749 -11340711.63146  22650233.610    22650239.870
       228.000         178.000
  21625036.363   -16980750.89549 -13198830.76847  21625035.769    21625043.187
       232.000         188.000
 03  2  8  1 21 30.0000000  0  9G30G15G17G 6G23G18G10G29G26
  23853790.767    -9784173.42649  -7605246.37845  23853791.204    23853801.583
       216.000         157.000
  22508199.232   -14842119.37949 -11545757.80246  22508198.628    22508206.905
       229.000         178.000
  21240069.167   -16376301.04049 -12733831.56247  21240068.676    21240076.241
       239.000         205.000
  20347932.867   -26054834.88849 -20288257.47147  20347932.669    20347939.117
       243.000         212.000
  20516921.945   -23012711.82049 -17894340.31048  20516921.541    20516928.140
       244.000         214.000
  21814641.612   -16845339.81049 -13107150.79747  21814641.128    21814647.671
       236.000         193.000
  24603878.986    -2274368.17249  -1758067.24645  24603878.349    24603886.767
       210.000         141.000
  22652504.514   -14601910.58049 -11331413.17246  22652504.358    22652509.953
       227.000         177.000
  21620378.445   -17005228.21649 -13217903.93347  21620378.493    21620385.605
       232.000         188.000
 03  2  8  1 22  0.0000000  0  9G30G15G17G 6G23G18G10G29G26
  23872615.395    -9685250.50449  -7528163.70045  23872616.761    23872625.867
       217.000         156.000
  22496779.235   -14902131.68949 -11592520.57046  22496778.814    22496786.813
       228.000         178.000
  21235211.362   -16401829.01749 -12753723.45647  21235211.139    21235218.056
       240.000         205.000
  20352331.454   -26031720.04749 -20270245.90447  20352331.194    20352337.688
       243.000         212.000
  20517174.868   -23011382.69949 -17893304.59648  20517174.266    20517181.100
       243.000         214.000
  21800964.268   -16917214.34749 -13163156.84147  21800963.637    21800970.068
       237.000         193.000
  24623847.184    -2169434.22349  -1676300.50145  24623846.596    24623855.755
       213.000         143.000
  22654877.823   -14589438.53049 -11321694.65546  22654877.485    22654884.925
       227.000         177.000
  21615836.192   -17029097.68249 -13236503.45847  21615836.218    21615843.175
       232.000         188.000
 03  2  8  1 22 30.0000000  0  9G30G15G17G 6G23G18G10G29G26
  23891436.323    -9586347.81549  -7451096.78645  23891436.922    23891447.057
       215.000         155.000
  22485377.481   -14962047.86249 -11639208.39946  22485376.088    22485385.356
       227.000         177.000
  21230376.578   -16427236.06649 -12773521.11847  21230376.476    21230382.963
       241.000         205.000
  20356823.583   -26008113.81649 -20251851.43147  20356823.195    20356829.657
       243.000         212.000
  20517513.622   -23009602.38049 -17891917.29448  20517513.271    20517519.946
       244.000         214.000
  21787355.372   -16988729.32049 -13218882.71047  21787354.798    21787361.287
       237.000         193.000
  24643815.364    -2064501.15749  -1594534.43045  24643813.523    24643823.912
       211.000         143.000
  22657353.618   -14576428.03549 -11311556.56146  22657353.441    22657359.595
       226.000         177.000
  21611409.705   -17052358.65249 -13254628.82547  21611409.722    21611416.237
       232.000         188.000
 03  2  8  1 23  0.0000000  0  9G30G15G17G 6G23G18G10G29G26
  23910252.854    -9487467.60849  -7374047.40745  23910253.036    23910263.419
       216.000         154.000
  22473994.030   -15021867.38849 -11685820.92546  22473993.388    22474001.168
       228.000         176.000
  21225565.069   -16452521.39049 -12793223.93947  21225564.927    21225571.172
       241.000         205.000
  20361409.305   -25984015.44149 -20233073.46747  20361409.270    20361415.576
       243.000         212.000
  20517938.121   -23007371.65449 -17890179.02348  20517937.657    20517944.336
       244.000         214.000
  21773815.221   -17059882.98049 -13274327.03347  21773814.522    21773821.310
       236.000         193.000
  24663782.918    -1959570.50349  -1512770.25645  24663782.099    24663789.750
       210.000         141.000
  22659931.870   -14562878.94749 -11300998.79146  22659931.566    22659937.715
       227.000         177.000
  21607099.489   -17075008.94849 -13272278.34947  21607099.696    21607106.245
       232.000         189.000
 03  2  8  1 23 30.0000000  0  9G30G15G17G 6G23G18G10G29G26
  23929064.482    -9388612.32349  -7297017.44045  23929064.803    23929074.331
       214.000         153.000
  22462629.242   -15081589.98749 -11732357.93446  22462627.956    22462636.987
       228.000         177.000
  21220776.717   -16477684.76549 -12812831.73447  21220776.282    21220782.513
       240.000         205.000
  20366088.877   -25959424.38549 -20213911.59748  20366088.790    20366095.309
       243.000         213.000
  20518448.182   -23004691.30649 -17888090.40248  20518447.544    20518454.247
       244.000         214.000
  21760344.018   -17130674.18549 -13329488.93447  21760343.678    21760349.861
       237.000         193.000
  24683749.598    -1854643.58149  -1431008.97445  24683748.966    24683758.868
       209.000         140.000
  22662612.692   -14548790.76149 -11290020.94346  22662612.340    22662618.677
       227.000         176.000
  21602905.851   -17097046.68549 -13289450.54547  21602906.289    21602912.657
       231.000         189.000
 03  2  8  1 24  0.0000000  0  9G30G15G17G 6G23G18G10G29G26
  23947870.826    -9289784.67649  -7220009.00745  23947871.623    23947880.483
       212.000         153.000
  22451282.697   -15141215.69649 -11778819.43446  22451281.621    22451290.345
       228.000         177.000
  21216011.481   -16502725.88349 -12832344.26347  21216010.721    21216017.667
       240.000         205.000
  20370862.193   -25934340.40249 -20194365.63347  20370861.846    20370868.520
       243.000         212.000
  20519043.571   -23001562.40149 -17885652.25248  20519043.052    20519049.649
       244.000         214.000
  21746942.047   -17201101.67149 -13384367.40747  21746941.546    21746947.763
       237.000         194.000
  24703715.361    -1749722.37449  -1349252.16045  24703714.215    24703724.715
       212.000         141.000
  22665396.180   -14534163.48049 -11278623.02746  22665396.662    22665402.325
       227.000         177.000
  21598829.008   -17118470.25349 -13306144.16847  21598829.022    21598835.717
       231.000         189.000
 03  2  8  1 24 30.0000000  0  9G30G15G17G 6G23G18G10G29G26
  23966671.180    -9190988.10949  -7143024.81245  23966671.668    23966681.848
       214.000         152.000
  22439954.588   -15200745.24449 -11825206.02346  22439954.233    22439962.055
       228.000         178.000
  21211269.255   -16527645.81849 -12851762.35447  21211268.394    21211275.798
       240.000         205.000
  20375729.167   -25908764.06449 -20174436.00647  20375729.246    20375735.133
       244.000         212.000
  20519723.939   -22997986.89249 -17882866.09748  20519723.461    20519729.954
       244.000         214.000
  21733609.314   -17271165.40849 -13438962.44347  21733608.606    21733615.375
       239.000         195.000
  24723679.859    -1644809.64349  -1267501.93645  24723679.343    24723688.086
       210.000         143.000
  22668282.063   -14518997.88249 -11266805.62846  22668282.225    22668287.878
       226.000         176.000
  21594869.321   -17139278.73849 -13322358.51347  21594869.183    21594876.091
       233.000         188.000
 03  2  8  1 25  0.0000000  0  8G30G15G17G 6G23G18G29G26
  23985466.199    -9092219.56549  -7066062.45745  23985467.007    23985476.446
       213.000         151.000
  22428645.851   -15260172.88849 -11871513.19546  22428644.802    22428654.348
       228.000         178.000
  21206551.197   -16552438.79749 -12871081.52947  21206550.650    21206557.958
       240.000         205.000
  20380691.070   -25882689.43249 -20154118.09948  20380691.141    20380697.268
       244.000         213.000
  20520490.122   -22993960.42749 -17879728.55148  20520489.431    20520496.385
       244.000         214.000
  21720347.097   -17340858.60649 -13493268.76047  21720346.327    21720352.949
       238.000         195.000
  22671271.414   -14503288.35449 -11254564.40746  22671271.605    22671277.650
       227.000         176.000
  21591027.954   -17159464.93949 -13338087.96547  21591027.703    21591034.924
       231.000         188.000
 03  2  8  1 25 30.0000000  0  8G30G15G17G 6G23G18G29G26
  24004254.146    -8993488.63649  -6989129.40345  24004254.580    24004264.659
       213.000         150.000
  22417355.120   -15319505.26149 -11917746.11846  22417354.768    22417362.485
       229.000         179.000
  21201856.134   -16577111.35849 -12890306.86347  21201855.481    21201862.965
       240.000         206.000
  20385746.456   -25856123.16549 -20133417.10548  20385746.242    20385752.685
       244.000         213.000
  20521340.594   -22989491.00449 -17876245.84048  20521339.972    20521346.572
       243.000         214.000
  21707154.271   -17410187.05449 -13547290.84847  21707153.990    21707160.023
       238.000         195.000
  22674362.998   -14487041.89849 -11241904.79346  22674362.436    22674369.019
       226.000         176.000
  21587303.999   -17179034.16249 -13353336.64847  21587303.801    21587311.000
       233.000         189.000
 03  2  8  1 26  0.0000000  0  8G30G15G17G 6G23G18G29G26
  24023034.373    -8894798.12349  -6912227.83245  24023035.019    24023044.164
       211.000         149.000
  22406082.650   -15378742.57149 -11963904.97946  22406081.193    22406089.870
       228.000         180.000
  21197183.991   -16601663.66449 -12909438.49847  21197183.515    21197190.762
       241.000         206.000
  20390895.399   -25829065.30649 -20112333.05547  20390895.237    20390901.560
       244.000         212.000
  20522275.099   -22984580.04149 -17872419.08048  20522274.305    20522280.928
       243.000         214.000
  21694031.003   -17479149.91049 -13601028.06147  21694030.245    21694036.754
       238.000         195.000
  22677556.655   -14470258.75449 -11228826.97546  22677556.155    22677563.104
       226.000         176.000
  21583697.720   -17197985.35049 -13368103.76047  21583697.417    21583703.815
       231.000         189.000
 03  2  8  1 26 30.0000000  0  8G30G15G17G 6G23G18G29G26
  24041806.509    -8796150.18649  -6835359.45745  24041807.903    24041816.759
       211.000         148.000
  22394828.251   -15437884.07549 -12009989.16146  22394826.954    22394836.316
       228.000         180.000
  21192534.923   -16626094.69149 -12928475.62847  21192534.753    21192541.345
       241.000         206.000
  20396138.009   -25801515.27549 -20090865.48547  20396137.618    20396144.011
       244.000         212.000
  20523293.458   -22979228.26749 -17868248.82548  20523292.790    20523299.532
       243.000         214.000
  21680977.627   -17547745.53049 -13654479.11647  21680977.072    21680983.168
       239.000         195.000
  22680852.506   -14452938.41549 -11215330.57446  22680852.463    22680858.869
       226.000         176.000
  21580209.414   -17216316.13749 -13382387.42947  21580209.482    21580215.552
       232.000         189.000
 03  2  8  1 27  0.0000000  0  8G30G15G17G 6G23G18G29G26
  24060570.354    -8697547.18149  -6758526.09145  24060571.433    24060581.216
       214.000         149.000
  22383592.159   -15496929.37849 -12055998.40146  22383591.632    22383599.848
       229.000         180.000
  21187909.095   -16650404.19649 -12947418.07147  21187908.866    21187915.550
       242.000         207.000
  20401474.406   -25773472.23049 -20069013.74947  20401474.283    20401480.617
       244.000         212.000
  20524395.596   -22973436.37949 -17863735.62648  20524395.097    20524401.624
       244.000         213.000
  21667994.379   -17615972.62349 -13707643.00847  21667993.840    21668000.135
       238.000         196.000
  22684250.680   -14435080.59649 -11201415.35746  22684250.700    22684256.776
       226.000         176.000
  21576839.517   -17234024.88749 -13396186.40447  21576839.695    21576846.283
       233.000         189.000
 03  2  8  1 27 30.0000000  0  8G30G15G17G 6G23G18G29G26
  24079325.191    -8598991.69049  -6681729.74145  24079326.389    24079335.433
       216.000         149.000
  22372374.422   -15555878.72349 -12101932.86546  22372373.518    22372381.636
       229.000         180.000
  21183306.290   -16674592.48049 -12966266.05847  21183305.823    21183312.556
       241.000         207.000
  20406904.581   -25744936.36249 -20046777.99547  20406904.424    20406910.780
       244.000         212.000
  20525581.214   -22967205.73249 -17858880.54348  20525580.626    20525587.099
       243.000         213.000
  21655081.377   -17683830.32749 -13760519.05947  21655080.820    21655087.355
       238.000         195.000
  22687751.099   -14416685.69749 -11187081.62746  22687750.897    22687757.149
       227.000         177.000
  21573588.268   -17251110.25949 -13409499.63247  21573587.816    21573594.421
       232.000         189.000
 03  2  8  1 28  0.0000000  0  8G30G15G17G 6G23G18G29G26
  24098070.329    -8500486.25749  -6604972.40945  24098070.463    24098080.018
       214.000         149.000
  22361175.013   -15614731.65249 -12147792.20846  22361174.201    22361182.423
       229.000         180.000
  21178726.627   -16698658.91149 -12985019.09747  21178726.073    21178732.826
       240.000         207.000
  20412428.600   -25715907.33949 -20024157.96747  20412428.580    20412434.714
       244.000         212.000
  20526850.083   -22960537.45549 -17853684.45648  20526849.348    20526856.198
       243.000         213.000
  21642238.954   -17751317.47949 -13813106.37347  21642237.950    21642244.669
       237.000         196.000
  22691353.713   -14397753.82849 -11172329.49646  22691353.833    22691360.433
       226.000         176.000
  21570455.856   -17267570.79349 -13422325.97347  21570455.944    21570462.252
       232.000         189.000
 03  2  8  1 28 30.0000000  0  8G30G15G17G 6G23G18G29G26
  24116805.357    -8402033.11349  -6528255.82545  24116806.562    24116814.198
       213.000         149.000
  22349994.118   -15673487.50249 -12193575.90346  22349993.262    22350000.735
       231.000         181.000
  21174170.171   -16722603.02249 -13003676.81647  21174169.677    21174176.537
       241.000         207.000
  20418046.618   -25686384.55749 -20001153.18847  20418046.511    20418052.686
       243.000         212.000
  20528202.054   -22953432.37849 -17848147.99548  20528201.532    20528208.084
       244.000         213.000
  21629467.215   -17818432.78149 -13865403.93047  21629466.642    21629473.188
       238.000         196.000
  22695058.528   -14378284.70149 -11157158.71846  22695058.098    22695064.926
       226.000         177.000
  21567442.738   -17283404.58449 -13434663.94747  21567442.550    21567448.945
       233.000         189.000
 03  2  8  1 29  0.0000000  0  8G30G15G17G 6G23G18G29G26
  24135529.916    -8303634.80749  -6451581.96245  24135531.539    24135539.923
       214.000         147.000
  22338831.737   -15732146.13649 -12239283.84246  22338830.609    22338838.945
       231.000         181.000
  21169637.036   -16746424.35049 -13022238.85547  21169636.276    21169643.282
       241.000         207.000
  20423758.560   -25656367.78449 -19977763.49247  20423758.096    20423764.785
       243.000         211.000
  20529637.021   -22945891.67549 -17842272.10048  20529636.668    20529643.049
       243.000         213.000
  21616766.492   -17885175.14949 -13917410.89247  21616766.114    21616772.366
       238.000         196.000
  22698865.526   -14358278.47649 -11141569.42246  22698865.432    22698872.404
       226.000         177.000
  21564549.144   -17298610.44549 -13446512.61747  21564548.534    21564555.592
       232.000         189.000
 03  2  8  1 29 30.0000000  0  8G30G15G17G 6G23G18G29G26
  24154243.489    -8205294.18149  -6374953.05745  24154245.094    24154254.022
       214.000         148.000
  22327687.805   -15790707.78849 -12284916.22146  22327687.324    22327694.902
       232.000         182.000
  21165127.220   -16770123.13749 -13040705.40947  21165126.528    21165133.552
       240.000         207.000
  20429564.517   -25625857.32749 -19953989.10147  20429564.447    20429570.746
       244.000         212.000
  20531154.516   -22937916.96749 -17836058.01448  20531153.918    20531160.345
       244.000         213.000
  21604136.867   -17951544.05149 -13969126.83747  21604136.188    21604142.540
       237.000         196.000
  22702774.674   -14337735.76449 -11125562.07846  22702775.655    22702780.705
       227.000         177.000
  21561775.200   -17313187.12949 -13457871.02047  21561775.394    21561781.488
       233.000         189.000
 03  2  8  1 30  0.0000000  0  8G30G15G17G 6G23G18G29G26
  24172945.623    -8107014.09649  -6298371.32945  24172945.938    24172956.388
       212.000         149.000
  22316562.283   -15849172.71749 -12330473.21646  22316561.186    22316569.700
       231.000         182.000
  21160640.791   -16793699.32949 -13059076.42647  21160640.224    21160647.324
       241.000         207.000
  20435464.365   -25594853.46649 -19929830.24147  20435463.973    20435470.317
       243.000         211.000
  20532754.327   -22929509.79149 -17829506.94448  20532753.880    20532760.364
       244.000         213.000
  21591578.333   -18017539.00249 -14020551.39547  21591577.402    21591584.244
       237.000         195.000
  22706785.878   -14316656.88449 -11109136.95846  22706785.589    22706792.436
       227.000         177.000
  21559121.242   -17327133.85049 -13468738.55447  21559121.061    21559127.601
       232.000         189.000
 03  2  8  1 30 30.0000000  0  8G30G15G17G 6G23G18G29G26
  24191635.680    -8008796.96149  -6221838.66845  24191634.970    24191646.791
       212.000         149.000
  22305455.242   -15907540.25249 -12375954.34046  22305453.876    22305462.453
       229.000         182.000
  21156177.801   -16817152.28249 -13077351.42147  21156177.273    21156184.197
       241.000         207.000
  20441458.106   -25563355.97249 -19905286.73647  20441457.873    20441464.484
       242.000         211.000
  20534436.287   -22920671.25249 -17822619.75548  20534435.716    20534442.179
       244.000         213.000
  21579091.299   -18083158.48249 -14071683.38547  21579090.447    21579097.247
       238.000         195.000
  22710899.013   -14295042.05549 -11092294.19746  22710898.502    22710905.476
       228.000         178.000
  21556587.345   -17340449.04649 -13479113.98147  21556586.646    21556593.686
       231.000         189.000
 03  2  8  1 31  0.0000000  0  8G30G15G17G 6G23G18G29G26
  24210313.404    -7910644.95949  -6145356.76345  24210314.318    24210324.490
       213.000         149.000
  22294366.629   -15965810.00649 -12421359.24946  22294365.452    22294374.338
       230.000         181.000
  21151738.280   -16840482.04749 -13095530.41947  21151737.707    21151744.841
       241.000         207.000
  20447545.875   -25531364.57849 -19880358.36647  20447545.459    20447552.277
       243.000         211.000
  20536200.053   -22911402.36449 -17815397.22048  20536199.665    20536205.941
       244.000         213.000
  21566675.876   -18148401.44949 -14122521.97747  21566675.201    21566681.580
       238.000         196.000
  22715114.255   -14272891.19049 -11075033.75546  22715114.214    22715120.869
       228.000         177.000
  21554174.008   -17353131.03349 -13488995.99747  21554174.126    21554180.860
       233.000         189.000
 03  2  8  1 31 30.0000000  0  8G30G15G17G 6G23G18G29G26
  24228977.972    -7812561.96149  -6068928.63345  24228978.557    24228988.308
       211.000         147.000
  22283296.594   -16023983.25749 -12466688.96546  22283295.945    22283303.916
       230.000         182.000
  21147322.067   -16863689.06049 -13113613.76847  21147321.284    21147328.797
       241.000         207.000
  20453727.380   -25498880.37449 -19855046.00047  20453727.119    20453733.577
       242.000         211.000
  20538045.289   -22901705.59749 -17807841.28148  20538044.887    20538051.086
       244.000         213.000
  21554332.063   -18213268.45549 -14173067.61747  21554331.367    21554338.084
       238.000         197.000
  22719431.008   -14250205.87949 -11057356.85246  22719430.805    22719437.640
       226.000         177.000
  21551881.159   -17365179.95249 -13498384.72247  21551881.013    21551887.702
       232.000         189.000
 03  2  8  1 32  0.0000000  0  8G30G15G17G 6G23G18G29G26
  24247629.055    -7714550.10449  -5992555.93845  24247629.815    24247640.571
       209.000         147.000
  22272245.021   -16082059.47849 -12511943.08846  22272243.617    22272252.463
       231.000         183.000
  21142929.229   -16886773.24949 -13131601.40447  21142928.635    21142935.707
       240.000         207.000
  20460002.699   -25465903.17449 -19829349.46747  20460002.435    20460008.788
       242.000         211.000
  20539971.710   -22891582.14549 -17799952.85248  20539971.144    20539977.755
       244.000         213.000
  21542059.978   -18277758.05449 -14223319.17447  21542059.363    21542065.747
       237.000         197.000
  22723849.559   -14226986.13249 -11039263.51946  22723849.836    22723856.166
       227.000         177.000
  21549708.984   -17376594.38749 -13507279.03147  21549709.377    21549715.170
       233.000         189.000
 03  2  8  1 32 30.0000000  0  8G30G15G17G 6G23G18G29G26
  24266266.120    -7616612.11249  -5916240.82445  24266266.923    24266277.978
       210.000         147.000
  22261211.900   -16140038.44149 -12557121.42046  22261211.824    22261219.343
       232.000         184.000
  21138559.875   -16909734.21149 -13149493.02247  21138559.250    21138566.282
       241.000         207.000
  20466371.805   -25432433.18949 -19803268.95547  20466371.466    20466378.011
       243.000         211.000
  20541979.062   -22881033.24949 -17791732.91548  20541978.524    20541984.978
       243.000         213.000
  21529859.918   -18341869.56349 -14273276.12547  21529859.069    21529865.630
       237.000         197.000
  22728369.757   -14203232.56049 -11020754.20646  22728369.297    22728376.372
       226.000         176.000
  21547657.852   -17387373.22149 -13515678.07147  21547658.107    21547664.090
       233.000         189.000
 03  2  8  1 33  0.0000000  0  8G30G15G17G 6G23G18G29G26
  24284888.785    -7518750.34349  -5839985.10045  24284888.861    24284900.456
       211.000         148.000
  22250197.400   -16197920.08849 -12602223.92846  22250197.029    22250204.910
       232.000         184.000
  21134214.051   -16932571.43349 -13167288.21847  21134213.339    21134220.239
       241.000         207.000
  20472834.721   -25398470.30849 -19776804.36847  20472834.572    20472840.924
       243.000         211.000
  20544067.162   -22870060.22949 -17783182.48848  20544066.609    20544073.117
       243.000         213.000
  21517731.922   -18405601.94849 -14322937.65347  21517731.415    21517737.747
       238.000         197.000
  22732991.412   -14178945.33049 -11001829.06646  22732991.587    22732997.654
       227.000         177.000
  21545727.838   -17397515.23949 -13523580.88847  21545727.593    21545734.667
       232.000         189.000
 03  2  8  1 33 30.0000000  0  8G30G15G17G 6G23G18G29G26
  24303496.368    -7420967.22749  -5763790.67545  24303496.919    24303509.046
       209.000         147.000
  22239201.494   -16255703.96749 -12647250.25246  22239200.432    22239207.807
       232.000         184.000
  21129891.691   -16955285.39149 -13184987.36647  21129891.171    21129897.769
       240.000         207.000
  20479391.477   -25364014.31049 -19749955.53447  20479391.212    20479397.630
       243.000         211.000
  20546235.719   -22858664.34349 -17774302.55548  20546235.337    20546241.918
       243.000         214.000
  21505676.307   -18468954.16549 -14372302.94647  21505675.501    21505682.290
       238.000         197.000
  22737714.651   -14154124.73249 -10982488.30746  22737714.937    22737720.788
       227.000         176.000
  21543919.193   -17407019.24949 -13530986.54847  21543919.425    21543925.316
       232.000         189.000
 03  2  8  1 34  0.0000000  0  8G30G15G17G 6G23G18G29G26
  24322088.548    -7323265.53249  -5687659.70045  24322088.758    24322099.946
       210.000         147.000
  22228224.099   -16313390.28549 -12692200.55046  22228223.321    22228231.018
       230.000         184.000
  21125592.882   -16977875.33249 -13202589.87247  21125592.237    21125599.310
       240.000         207.000
  20486041.975   -25329065.73249 -19722722.87047  20486041.778    20486048.125
       243.000         211.000
  20548484.426   -22846847.28249 -17765094.43048  20548483.871    20548490.353
       243.000         214.000
  21493693.136   -18531925.86649 -14421371.73247  21493692.616    21493698.805
       238.000         198.000
  22742539.132   -14128771.56249 -10962732.55746  22742538.958    22742544.682
       225.000         175.000
  21542232.193   -17415884.46149 -13537894.45347  21542232.373    21542238.553
       233.000         189.000
 03  2  8  1 34 30.0000000  0  8G30G15G17G 6G23G18G29G26
  24340664.819    -7225647.86149  -5611594.21245  24340665.368    24340677.396
       210.000         147.000
  22217265.186   -16370979.12349 -12737074.89146  22217264.528    22217272.258
       232.000         184.000
  21121317.715   -17000341.17449 -13220095.68147  21121317.076    21121324.145
       240.000         207.000
  20492786.139   -25293624.85749 -19695106.59747  20492786.089    20492792.539
       243.000         211.000
  20550812.997   -22834610.39349 -17755559.16348  20550812.209    20550818.914
       243.000         213.000
  21481782.540   -18594516.21449 -14470143.36347  21481782.012    21481788.209
       239.000         198.000
  22747464.884   -14102886.37949 -10942562.24646  22747464.908    22747472.034
       226.000         176.000
  21540666.831   -17424110.12449 -13544303.99547  21540667.096    21540673.033
       232.000         189.000
 03  2  8  1 35  0.0000000  0  8G30G15G17G 6G23G18G29G26
  24359224.566    -7128116.81649  -5535596.22145  24359225.579    24359236.827
       209.000         147.000
  22206324.979   -16428470.11349 -12781872.98946  22206324.172    22206331.791
       232.000         184.000
  21117066.209   -17022682.75349 -13237504.66547  21117065.480    21117072.650
       240.000         206.000
  20499624.013   -25257691.69549 -19667106.73247  20499623.846    20499630.255
       243.000         211.000
  20553221.222   -22821954.95949 -17745697.76048  20553220.681    20553227.213
       243.000         213.000
  21469944.717   -18656724.32549 -14518617.15747  21469944.017    21469950.130
       239.000         198.000
  22752491.787   -14076469.55549 -10921977.67046  22752491.228    22752497.396
       225.000         175.000
  21539223.438   -17431695.09749 -13550214.31047  21539223.116    21539229.451
       233.000         189.000
 03  2  8  1 35 30.0000000  0  8G30G15G17G 6G23G18G29G26
  24377767.339    -7030675.05249  -5459667.78045  24377767.922    24377779.060
       210.000         146.000
  22195403.357   -16485863.46549 -12826595.00346  22195402.942    22195410.493
       231.000         185.000
  21112838.307   -17044900.38549 -13254817.06347  21112837.777    21112844.842
       240.000         206.000
  20506555.431   -25221266.72349 -19638723.63547  20506555.347    20506561.504
       243.000         211.000
  20555708.732   -22808882.88949 -17735511.70748  20555707.969    20555714.944
       242.000         213.000
  21458179.726   -18718549.79449 -14566792.78647  21458179.202    21458185.422
       240.000         198.000
  22757619.739   -14049521.90949 -10900979.47946  22757619.838    22757625.705
       227.000         175.000
  21537902.062   -17438638.71849 -13555624.87047  21537901.751    21537908.382
       233.000         189.000
 03  2  8  1 36  0.0000000  0  8G30G15G17G 6G23G18G29G26
  24396292.575    -6933324.97649  -5383810.82145  24396293.987    24396305.147
       211.000         146.000
  22184500.426   -16543158.79949 -12871240.65146  22184499.730    22184507.379
       232.000         186.000
  21108634.216   -17066993.21349 -13272032.21347  21108633.517    21108640.586
       240.000         206.000
  20513580.468   -25184349.96649 -19609957.32847  20513580.384    20513586.619
       243.000         210.000
  20558275.219   -22795395.55649 -17725002.06547  20558274.613    20558281.124
       242.000         212.000
  21446487.673   -18779991.86449 -14614669.66447  21446487.086    21446493.355
       239.000         199.000
  22762848.674   -14022043.87749 -10879567.98046  22762848.458    22762855.148
       225.000         175.000
  21536702.882   -17444940.05449 -13560534.94447  21536703.211    21536709.483
       233.000         189.000
 03  2  8  1 36 30.0000000  0  8G30G15G17G 6G23G18G29G26
  24414799.936    -6836069.24849  -5308027.37845  24414801.914    24414813.258
       211.000         149.000
  22173616.160   -16600355.61649 -12915809.51346  22173615.286    22173623.151
       231.000         185.000
  21104453.859   -17088961.10849 -13289150.00947  21104453.121    21104460.411
       240.000         206.000
  20520698.991   -25146941.83949 -19580808.13347  20520698.926    20520705.056
       243.000         210.000
  20560920.518   -22781494.36549 -17714169.94047  20560920.101    20560926.599
       242.000         212.000
  21434868.682   -18841049.95349 -14662247.33347  21434867.910    21434874.367
       240.000         200.000
  22768178.307   -13994036.27149 -10857743.82946  22768178.498    22768184.554
       227.000         175.000
  21535626.108   -17450598.32049 -13564943.93847  21535626.026    21535632.389
       233.000         189.000
 03  2  8  1 37  0.0000000  0  8G30G15G17G 6G23G18G29G26
  24433288.812    -6738910.49849  -5232319.50445  24433289.815    24433301.020
       212.000         149.000
  22162750.538   -16657454.37449 -12960301.97746  22162748.558    22162757.694
       228.000         184.000
  21100297.201   -17110804.10249 -13306170.48547  21100296.439    21100303.582
       240.000         206.000
  20527910.939   -25109042.83949 -19551276.44647  20527910.793    20527917.192
       242.000         210.000
  20563644.223   -22767181.01749 -17703016.65747  20563643.626    20563650.219
       242.000         212.000
  21423322.890   -18901723.26449 -14709525.18147  21423322.632    21423328.521
       241.000         200.000
  22773608.648   -13965499.56949 -10835507.41146  22773608.429    22773614.024
       226.000         175.000
  21534671.818   -17455612.79349 -13568851.27047  21534671.217    21534678.292
       233.000         189.000
 03  2  8  1 37 30.0000000  0  8G30G15G17G 6G23G18G29G26
  24451758.904    -6641850.46649  -5156688.55545  24451760.329    24451770.811
       210.000         147.000
  22151903.567   -16714454.41449 -13004717.50446  22151902.187    22151910.119
       230.000         183.000
  21096164.409   -17132521.47349 -13323093.07347  21096163.620    21096170.715
       240.000         206.000
  20535216.365   -25070652.43249 -19521361.84447  20535216.016    20535222.794
       242.000         210.000
  20566446.213   -22752456.28949 -17691542.81047  20566445.786    20566452.139
       242.000         212.000
  21411850.615   -18962010.58449 -14756502.25447  21411850.175    21411856.120
       240.000         200.000
  22779139.545   -13936434.08949 -10812858.95246  22779139.990    22779145.785
       227.000         175.000
  21533840.259   -17459982.14749 -13572255.91347  21533840.402    21533847.013
       233.000         190.000
 03  2  8  1 38  0.0000000  0  8G30G15G17G 6G23G18G29G26
  24470209.687    -6544892.55549  -5081137.18945  24470211.295    24470221.846
       212.000         146.000
  22141075.401   -16771356.16349 -13049056.45046  22141074.133    22141082.590
       230.000         183.000
  21092055.519   -17154113.59349 -13339918.06647  21092054.964    21092061.827
       241.000         206.000
  20542615.100   -25031771.62949 -19491065.11847  20542614.684    20542621.279
       242.000         209.000
  20569326.023   -22737322.59849 -17679750.30047  20569325.562    20569332.008
       242.000         212.000
  21400451.664   -19021912.00349 -14803178.62747  21400450.986    21400456.994
       240.000         200.000
  22784770.941   -13906841.16949 -10789799.49446  22784770.272    22784776.772
       226.000         175.000
  21533131.534   -17463706.23349 -13575157.76647  21533131.423    21533137.944
       233.000         190.000
 03  2  8  1 38 30.0000000  0  8G30G15G17G 6G23G18G29G26
  24488640.611    -6448039.02149  -5005667.14045  24488641.576    24488653.176
       213.000         147.000
  22130266.030   -16828159.21149 -13093318.48346  22130265.176    22130273.628
       231.000         184.000
  21087970.637   -17175579.70249 -13356644.86647  21087969.842    21087977.038
       240.000         207.000
  20550107.115   -24992400.69749 -19460386.47047  20550106.977    20550113.230
       242.000         209.000
  20572283.427   -22721781.29449 -17667640.16847  20572282.895    20572289.617
       242.000         212.000
  21389126.384   -19081426.54349 -14849553.53447  21389125.906    21389131.861
       241.000         201.000
  22790502.555   -13876721.26149 -10766329.40146  22790502.723    22790508.390
       226.000         175.000
  21532545.804   -17466784.30549 -13577556.22047  21532545.899    21532552.717
       232.000         190.000
 03  2  8  1 39  0.0000000  0  8G30G15G17G 6G23G18G29G26
  24507051.085    -6351292.78449  -4930280.73545  24507051.351    24507064.153
       210.000         146.000
  22119475.533   -16884863.74849 -13137503.77346  22119474.986    22119481.958
       232.000         185.000
  21083909.592   -17196920.07749 -13373273.69247  21083908.884    21083915.975
       241.000         206.000
  20557692.305   -24952540.33549 -19429326.45347  20557692.086    20557698.586
       242.000         209.000
  20575318.024   -22705834.19749 -17655213.82947  20575317.424    20575323.937
       242.000         212.000
  21377874.714   -19140554.30749 -14895627.05547  21377874.036    21377880.209
       239.000         201.000
  22796334.257   -13846075.44549 -10742449.51346  22796334.226    22796340.615
       225.000         175.000
  21532083.034   -17469216.04349 -13579451.04747  21532083.109    21532089.303
       233.000         190.000
 03  2  8  1 39 30.0000000  0  8G30G15G17G 6G23G18G29G26
  24525440.657    -6254656.32749  -4854979.87645  24525440.831    24525453.541
       210.000         144.000
  22108703.889   -16941469.54049 -13181612.11346  22108703.203    22108710.899
       233.000         186.000
  21079872.625   -17218134.21949 -13389804.15847  21079871.968    21079878.990
       241.000         207.000
  20565370.481   -24912191.11349 -19397885.51447  20565370.340    20565376.858
       242.000         209.000
  20578429.500   -22689483.07249 -17642472.66547  20578429.090    20578435.390
       243.000         212.000
  21366696.711   -19199294.55949 -14941398.61947  21366696.124    21366702.187
       240.000         201.000
  22802265.860   -13814904.64949 -10718160.56546  22802265.590    22802271.965
       225.000         175.000
  21531743.392   -17471000.85149 -13580841.77347  21531743.414    21531749.598
       233.000         190.000
 03  2  8  1 40  0.0000000  0  8G30G15G17G 6G23G18G29G26
  24543808.910    -6158131.81349  -4779766.23845  24543810.284    24543820.572
       210.000         143.000
  22097951.040   -16997975.89449 -13225642.95346  22097949.978    22097958.188
       232.000         187.000
  21075859.732   -17239222.08249 -13406236.22347  21075859.306    21075866.066
       241.000         207.000
  20573141.809   -24871352.82249 -19366063.47047  20573141.860    20573148.000
       243.000         210.000
  20581617.731   -22672728.98449 -17629417.50947  20581617.173    20581623.602
       243.000         212.000
  21355592.705   -19257646.38749 -14986867.52647  21355591.961    21355597.992
       240.000         201.000
  22808297.253   -13783209.04949 -10693462.66346  22808296.845    22808303.301
       224.000         175.000
  21531527.038   -17472137.66049 -13581727.57147  21531527.264    21531533.217
       234.000         190.000
 03  2  8  1 40 30.0000000  0  8G30G15G17G 6G23G18G29G26
  24562155.389    -6061721.26949  -4704641.45745  24562155.334    24562165.738
       211.000         142.000
  22087217.175   -17054382.42649 -13269596.01646  22087216.148    22087224.592
       232.000         187.000
  21071871.037   -17260182.66449 -13422569.11547  21071870.598    21071877.523
       242.000         207.000
  20581006.162   -24830025.45649 -19333860.32347  20581005.926    20581012.438
       243.000         210.000
  20584882.321   -22655573.11149 -17616049.26947  20584881.613    20584888.224
       242.000         212.000
  21344562.833   -19315608.58849 -15032032.81947  21344562.207    21344568.351
       240.000         201.000
  22814428.465   -13750989.13749 -10668356.21546  22814427.930    22814434.507
       226.000         175.000
  21531434.170   -17472625.59349 -13582107.74347  21531434.298    21531440.776
       234.000         190.000
 03  2  8  1 41  0.0000000  0  8G30G15G17G 6G23G18G29G26
  24580479.625    -5965427.84449  -4629607.92245  24580480.777    24580491.618
       211.000         143.000
  22076502.176   -17110689.76949 -13313471.78847  22076501.536    22076509.484
       232.000         188.000
  21067906.574   -17281016.22349 -13438803.02247  21067906.082    21067912.892
       242.000         207.000
  20588963.329   -24788210.21449 -19301277.01647  20588963.287    20588969.561
       243.000         210.000
  20588222.963   -22638017.87849 -17602369.84047  20588222.620    20588228.873
       243.000         212.000
  21333607.019   -19373181.50649 -15076894.78047  21333606.771    21333612.228
       240.000         202.000
  22820659.173   -13718246.55349 -10642842.49246  22820658.697    22820665.210
       227.000         175.000
  21531464.793   -17472464.72849 -13581982.36547  21531464.757    21531470.769
       234.000         190.000
 03  2  8  1 41 30.0000000  0  8G30G15G17G 6G23G18G29G26
  24598781.296    -5869253.63549  -4554667.28145  24598781.968    24598794.220
       211.000         144.000
  22065806.198   -17166897.38449 -13357269.84547  22065805.631    22065813.244
       232.000         188.000
  21063966.265   -17301722.58749 -13454937.81847  21063965.820    21063972.441
       241.000         207.000
  20597013.377   -24745907.23249 -19268313.65347  20597013.314    20597019.685
       243.000         211.000
  20591639.462   -22620064.44849 -17588380.12948  20591638.965    20591645.309
       243.000         213.000
  21322725.529   -19430364.10249 -15121452.59347  21322725.085    21322731.075
       240.000         202.000
  22826989.228   -13684981.69249 -10616921.81546  22826990.074    22826995.807
       225.000         175.000
  21531619.019   -17471654.19149 -13581350.74947  21531619.180    21531625.494
       234.000         190.000
 03  2  8  1 42  0.0000000  0  8G30G15G17G 6G23G18G29G26
  24617059.836    -5773201.60849  -4479821.86345  24617060.674    24617072.639
       210.000         144.000
  22055129.117   -17223005.41949 -13400990.32446  22055128.312    22055135.745
       233.000         187.000
  21060050.305   -17322300.83149 -13470972.77847  21060049.661    21060056.763
       241.000         207.000
  20605156.072   -24703117.31149 -19234970.85847  20605155.977    20605162.364
       243.000         211.000
  20595131.231   -22601714.84749 -17574081.71147  20595130.738    20595136.986
       243.000         212.000
  21311918.291   -19487156.37649 -15165706.25647  21311917.986    21311923.742
       241.000         202.000
  22833418.511   -13651195.65149 -10590595.00446  22833417.894    22833424.299
       224.000         175.000
  21531896.897   -17470193.99549 -13580212.90547  21531896.998    21531903.620
       234.000         190.000
 03  2  8  1 42 30.0000000  0  8G30G15G17G 6G23G18G29G26
  24635314.638    -5677274.25149  -4405073.62045  24635315.876    24635328.580
       210.000         143.000
  22044471.085   -17279013.82949 -13444633.17847  22044470.541    22044477.414
       234.000         188.000
  21056158.645   -17342751.96649 -13486908.69747  21056158.235    21056165.136
       242.000         208.000
  20613391.204   -24659841.29849 -19201249.28947  20613390.946    20613397.235
       243.000         210.000
  20598698.084   -22582970.92449 -17559476.03247  20598697.668    20598703.845
       243.000         212.000
  21301185.422   -19543557.97249 -15209655.50147  21301184.817    21301190.644
       241.000         203.000
  22839946.635   -13616889.71249 -10563863.08346  22839946.924    22839952.238
       226.000         174.000
  21532298.492   -17468083.85449 -13578568.60247  21532298.510    21532304.845
       234.000         190.000
 03  2  8  1 43  0.0000000  0  8G30G15G17G 6G23G18G29G26
  24653545.419    -5581473.59149  -4330424.13045  24653546.315    24653558.585
       211.000         143.000
  22033832.148   -17334921.90449 -13488197.85047  22033831.206    22033838.695
       234.000         188.000
  21052291.336   -17363075.35749 -13502745.06847  21052291.002    21052297.721
       242.000         208.000
  20621718.858   -24616079.28549 -19167149.01847  20621718.611    20621725.171
       243.000         210.000
  20602339.772   -22563833.78549 -17544563.95048  20602339.247    20602345.586
       242.000         213.000
  21290527.034   -19599567.88149 -15253299.53147  21290526.445    21290532.048
       241.000         203.000
  22846573.729   -13582064.24949 -10536726.34746  22846573.266    22846579.523
       225.000         174.000
  21532823.904   -17465322.80149 -13576417.10747  21532823.926    21532829.757
       234.000         189.000
 03  2  8  1 43 30.0000000  0  8G30G15G17G 6G23G18G29G26
  24671751.594    -5485802.04749  -4255875.22545  24671753.880    24671763.622
       212.000         142.000
  22023212.204   -17390729.47549 -13531684.20346  22023211.058    22023218.657
       233.000         187.000
  21048448.585   -17383269.52449 -13518480.75547  21048448.233    21048454.725
       242.000         209.000
  20630138.932   -24571831.54149 -19132670.26047  20630138.612    20630145.307
       243.000         210.000
  20606055.941   -22544305.02049 -17529346.70247  20606055.385    20606061.582
       243.000         212.000
  21279943.293   -19655185.63049 -15296637.98347  21279942.992    21279948.686
       241.000         203.000
  22853299.395   -13546720.18149 -10509185.49646  22853299.470    22853305.378
       226.000         175.000
  21533473.226   -17461910.51049 -13573758.13747  21533472.857    21533479.411
       233.000         190.000
 03  2  8  1 44  0.0000000  0  8G30G15G17G 6G23G18G29G26
  24689932.694    -5390262.50549  -4181429.18745  24689933.475    24689946.018
       211.000         141.000
  22012611.356   -17446436.76149 -13575092.41346  22012610.727    22012617.961
       232.000         187.000
  21044630.288   -17403335.13649 -13534116.26147  21044629.626    21044636.345
       242.000         208.000
  20638651.162   -24527099.31749 -19097813.98847  20638650.829    20638657.448
       243.000         210.000
  20609846.238   -22524386.78049 -17513825.96947  20609845.601    20609852.048
       242.000         212.000
  21269434.162   -19710411.31649 -15339670.92747  21269433.737    21269439.333
       242.000         204.000
  22860123.578   -13510859.03249 -10481241.71946  22860123.916    22860129.318
       225.000         175.000
  21534246.416   -17457847.20949 -13570591.88747  21534246.172    21534252.783
       233.000         190.000
 03  2  8  1 44 30.0000000  0  7G15G17G 6G23G18G29G26
  22002032.369   -17502029.25349 -13618411.16546  22002031.501    22002038.887
       232.000         187.000
  21040839.100   -17423257.54049 -13549640.17847  21040838.361    21040844.886
       242.000         207.000
  20647258.264   -24481868.65149 -19062569.31847  20647258.141    20647264.492
       243.000         209.000
  20613713.063   -22504066.37949 -17497991.86147  20613712.444    20613718.921
       242.000         212.000
  21259002.504   -19765230.01549 -15382386.74847  21259002.129    21259007.613
       242.000         205.000
  22867048.695   -13474467.15449 -10452884.38346  22867048.282    22867054.952
       225.000         174.000
  21535146.282   -17453118.05649 -13566906.80047  21535146.628    21535152.155
       233.000         190.000
 03  2  8  1 45  0.0000000  0  7G15G17G 6G23G18G29G26
  21991471.943   -17557523.89149 -13661653.66546  21991470.862    21991479.009
       231.000         187.000
  21037071.934   -17443053.66949 -13565065.69547  21037071.379    21037077.689
       241.000         207.000
  20655956.770   -24436157.66449 -19026950.37047  20655956.559    20655962.993
       243.000         209.000
  20617652.729   -22483362.91549 -17481859.25847  20617652.226    20617658.714
       242.000         212.000
  21248645.077   -19819658.57949 -15424798.56047  21248644.569    21248650.278
       242.000         205.000
  22874071.223   -13437563.24949 -10424128.07046  22874070.800    22874077.361
       226.000         175.000
  21536169.621   -17447740.30049 -13562716.29647  21536169.490    21536175.764
       233.000         190.000
 03  2  8  1 45 30.0000000  0  7G15G17G 6G23G18G29G26
  21980930.085   -17612921.47249 -13704820.55146  21980929.889    21980936.996
       233.000         187.000
  21033328.772   -17462723.76049 -13580393.00147  21033328.080    21033334.908
       242.000         208.000
  20664746.399   -24389967.79349 -18990958.26947  20664746.354    20664752.527
       241.000         208.000
  20621664.851   -22462278.85349 -17465430.09047  20621664.379    20621670.470
       242.000         212.000
  21238361.828   -19873697.28949 -15466906.59547  21238361.448    21238366.736
       243.000         205.000
  22881190.906   -13400148.86149 -10394973.97146  22881189.972    22881197.549
       225.000         174.000
  21537316.281   -17441714.23349 -13558020.61447  21537316.256    21537322.356
       234.000         190.000
 03  2  8  1 46  0.0000000  0  7G15G17G 6G23G18G29G26
  21970407.141   -17668219.88849 -13747910.17046  21970406.154    21970413.214
       233.000         187.000
  21029609.955   -17482266.25949 -13595620.88647  21029609.454    21029616.331
       242.000         208.000
  20673627.395   -24343297.80749 -18954592.04747  20673627.076    20673633.539
       241.000         208.000
  20625749.400   -22440814.17049 -17448704.33547  20625748.721    20625755.246
       242.000         212.000
  21228153.122   -19927344.25849 -15508709.37847  21228152.466    21228158.330
       243.000         205.000
  22888407.849   -13362223.41949 -10365421.66146  22888408.584    22888414.475
       226.000         174.000
  21538586.637   -17435038.18549 -13552818.45947  21538586.537    21538592.597
       234.000         190.000
 03  2  8  1 46 30.0000000  0  7G15G17G 6G23G18G29G26
  21959903.336   -17723417.46849 -13790921.21746  21959902.536    21959910.305
       233.000         187.000
  21025915.780   -17501679.22549 -13610747.84147  21025915.232    21025922.358
       242.000         209.000
  20682599.849   -24296147.00549 -18917851.16547  20682599.684    20682606.044
       242.000         208.000
  20629906.313   -22418969.16749 -17431682.22547  20629905.614    20629912.230
       242.000         211.000
  21218019.316   -19980597.41749 -15550205.29347  21218018.671    21218024.567
       243.000         205.000
  22895722.175   -13323786.61349 -10335470.86646  22895722.021    22895728.642
       226.000         175.000
  21539981.015   -17427710.38649 -13547108.44747  21539980.931    21539987.275
       233.000         191.000
 03  2  8  1 47  0.0000000  0  7G15G17G 6G23G18G29G26
  21949418.726   -17778514.07349 -13833853.56946  21949417.864    21949425.310
       233.000         187.000
  21022246.234   -17520962.36049 -13625773.61747  21022245.472    21022252.474
       241.000         209.000
  20691663.720   -24248516.03249 -18880736.12047  20691663.639    20691669.813
       241.000         207.000
  20634135.250   -22396745.74749 -17414365.24647  20634134.876    20634141.077
       242.000         212.000
  21207960.523   -20033456.63149 -15591394.23947  21207960.095    21207965.772
       243.000         205.000
  22903133.536   -13284839.43349 -10305122.38346  22903133.581    22903139.171
       226.000         174.000
  21541499.399   -17419730.88049 -13540890.59747  21541499.350    21541505.596
       234.000         191.000
 03  2  8  1 47 30.0000000  0  7G15G17G 6G23G18G29G26
  21938953.484   -17833508.88549 -13876706.60746  21938952.439    21938959.975
       232.000         187.000
  21018601.562   -17540114.70549 -13640697.48547  21018600.775    21018607.637
       241.000         208.000
  20700818.927   -24200405.16649 -18843247.13847  20700818.582    20700825.009
       241.000         207.000
  20638436.012   -22374144.99149 -17396754.24247  20638435.428    20638441.806
       242.000         212.000
  21197976.830   -20085920.93949 -15632275.46547  21197975.897    21197982.132
       242.000         205.000
  22910641.973   -13245382.54849 -10274376.72746  22910642.212    22910647.868
       225.000         175.000
  21543142.010   -17411098.92049 -13534164.36047  21543141.733    21543148.486
       235.000         191.000
 03  2  8  1 48  0.0000000  0  7G15G17G 6G23G18G29G26
  21928507.757   -17888401.22849 -13919479.80546  21928506.891    21928514.749
       233.000         187.000
  21014981.952   -17559135.32849 -13655518.71047  21014981.141    21014987.914
       242.000         208.000
  20710065.389   -24151814.67849 -18805384.42647  20710065.260    20710071.654
       241.000         207.000
  20642808.337   -22351168.21049 -17378850.22647  20642807.901    20642814.213
       243.000         212.000
  21188068.413   -20137989.55049 -15672848.35547  21188067.966    21188073.631
       243.000         205.000
  22918247.181   -13205416.64949 -10243234.42646  22918247.108    22918253.237
       227.000         175.000
  21544908.831   -17401814.03849 -13526929.35247  21544908.830    21544915.545
       234.000         191.000
 03  2  8  1 48 30.0000000  0  7G15G17G 6G23G18G29G26
  21918081.609   -17943190.78849 -13962172.90346  21918080.559    21918088.265
       232.000         187.000
  21011387.530   -17578023.75249 -13670236.92747  21011386.930    21011393.703
       242.000         208.000
  20719402.970   -24102745.38749 -18767148.62147  20719402.716    20719409.127
       241.000         207.000
  20647251.926   -22327817.14049 -17360654.56547  20647251.455    20647257.629
       243.000         212.000
  21178235.406   -20189662.23249 -15713112.73947  21178234.923    21178240.600
       242.000         205.000
  22925949.063   -13164942.89149 -10211696.41846  22925949.346    22925954.998
       227.000         174.000
  21546799.917   -17391876.07649 -13519185.44347  21546799.981    21546806.235
       234.000         190.000
 03  2  8  1 49  0.0000000  0  7G15G17G 6G23G18G29G26
  21907674.793   -17997878.33249 -14004786.50247  21907673.653    21907681.869
       233.000         189.000
  21007818.215   -17596780.62749 -13684852.64047  21007817.481    21007824.758
       243.000         209.000
  20728831.386   -24053198.87749 -18728540.95647  20728831.129    20728837.660
       241.000         207.000
  20651766.180   -22304094.44949 -17342169.32547  20651765.670    20651772.073
       243.000         212.000
  21168477.644   -20240939.41749 -15753068.93447  21168476.918    21168482.632
       242.000         204.000
  22933747.281   -13123963.07449 -10179764.06546  22933746.797    22933753.210
       224.000         174.000
  21548815.098   -17381285.97149 -13510933.38247  21548815.186    21548821.168
       234.000         190.000
 03  2  8  1 49 30.0000000  0  7G15G17G 6G23G18G29G26
  21897287.788   -18052462.28449 -14047319.38847  21897287.403    21897294.238
       233.000         189.000
  21004274.258   -17615404.25349 -13699364.52147  21004273.964    21004280.593
       241.000         209.000
  20738350.613   -24003174.86149 -18689561.20947  20738350.379    20738356.585
       241.000         207.000
  20656351.020   -22280000.80749 -17323395.03248  20656350.426    20656356.892
       243.000         213.000
  21158795.380   -20291819.73749 -15792715.88447  21158794.701    21158800.503
       242.000         204.000
  22941641.614   -13082477.62949 -10147437.72146  22941642.551    22941648.333
       225.000         174.000
  21550954.615   -17370042.61549 -13502172.29047  21550954.744    21550960.639
       234.000         190.000
 03  2  8  1 50  0.0000000  0  7G15G17G 6G23G18G29G26
  21886920.548   -18106942.30949 -14089771.28847  21886919.771    21886927.007
       232.000         188.000
  21000755.748   -17633894.10349 -13713772.16447  21000755.210    21000762.046
       241.000         209.000
  20747960.651   -23952673.84349 -18650209.76947  20747960.616    20747966.845
       241.000         207.000
  20661006.211   -22255537.81449 -17304332.93748  20661005.783    20661011.954
       243.000         213.000
  21149188.689   -20342302.81349 -15832053.30147  21149188.302    21149193.966
       242.000         205.000
  22949632.051   -13040487.46049 -10114718.08346  22949631.840    22949637.930
       226.000         174.000
  21553218.460   -17358145.92849 -13492902.11147  21553218.537    21553224.859
       234.000         190.000
 03  2  8  1 50 30.0000000  0  7G15G17G 6G23G18G29G26
  21876572.992   -18161318.31149 -14132142.12746  21876572.014    21876578.669
       233.000         187.000
  20997262.691   -17652249.99049 -13728075.41047  20997261.968    20997268.982
       241.000         209.000
  20757661.274   -23901697.02449 -18610487.57447  20757661.030    20757667.478
       241.000         207.000
  20665731.293   -22230707.40949 -17284984.54448  20665730.782    20665736.989
       243.000         213.000
  21139657.667   -20392388.45349 -15871081.01847  21139657.000    21139662.930
       241.000         205.000
  22957718.280   -12997993.98949 -10081606.25646  22957718.172    22957723.988
       224.000         173.000
  21555606.591   -17345596.07649 -13483122.97447  21555606.564    21555612.191
       233.000         190.000
 03  2  8  1 51  0.0000000  0  7G15G17G 6G23G18G29G26
  21866245.301   -18215590.44449 -14174432.04146  21866244.884    21866251.778
       235.000         187.000
  20993795.056   -17670472.06849 -13742274.39347  20993794.179    20993801.295
       241.000         209.000
  20767452.244   -23850245.20049 -18570395.25147  20767451.832    20767458.418
       241.000         206.000
  20670525.871   -22205511.69349 -17265351.49648  20670525.303    20670531.433
       243.000         213.000
  21130202.192   -20442076.61949 -15909799.01647  21130201.726    21130207.411
       242.000         205.000
  22965900.020   -12954998.57749 -10048103.30046  22965900.558    22965905.346
       225.000         173.000
  21558118.958   -17332393.50249 -13472835.22147  21558118.885    21558125.000
       234.000         190.000
 03  2  8  1 51 30.0000000  0  7G15G17G 6G23G18G29G26
  21855937.518   -18269758.49449 -14216640.85147  21855937.329    21855944.360
       235.000         189.000
  20990352.965   -17688560.05849 -13756368.89847  20990352.501    20990359.241
       241.000         209.000
  20777333.356   -23798319.56749 -18529933.71847  20777333.052    20777339.441
       241.000         206.000
  20675389.563   -22179952.64549 -17245435.33348  20675389.106    20675395.629
       243.000         213.000
  21120822.410   -20491367.45649 -15948207.41847  21120821.879    21120827.787
       242.000         206.000
  22974176.881   -12911502.77849 -10014210.44346  22974176.149    22974182.973
       224.000         173.000
  21560755.485   -17318538.49849 -13462039.08847  21560755.500    21560761.479
       234.000         190.000
 03  2  8  1 52  0.0000000  0  7G15G17G 6G23G18G29G26
  21845649.609   -18323821.95649 -14258768.16147  21845649.112    21845656.187
       236.000         190.000
  20986936.659   -17706512.95549 -13770358.13647  20986936.276    20986942.885
       241.000         209.000
  20787304.522   -23745920.76049 -18489103.48047  20787304.239    20787310.693
       241.000         206.000
  20680322.133   -22154031.72249 -17225237.18848  20680321.681    20680327.853
       243.000         213.000
  21111518.373   -20540260.40649 -15986305.76847  21111517.940    21111523.971
       242.000         206.000
  22982548.720   -12867507.87949  -9979928.67546  22982548.393    22982555.114
       223.000         172.000
  21563516.117   -17304031.06549 -13450734.55747  21563516.228    21563521.741
       234.000         190.000
 03  2  8  1 52 30.0000000  0  7G15G17G 6G23G18G29G26
  21835381.660   -18377780.43049 -14300813.66147  21835380.950    21835388.191
       236.000         191.000
  20983546.091   -17724330.46049 -13784241.87447  20983545.504    20983552.486
       240.000         209.000
  20797365.494   -23693049.81449 -18447905.34947  20797365.094    20797371.525
       240.000         206.000
  20685323.268   -22127750.79749 -17204758.51948  20685322.609    20685328.857
       243.000         213.000
  21102290.098   -20588755.09049 -16024093.78147  21102289.639    21102295.235
       242.000         206.000
  22991015.446   -12823014.96049  -9945258.83946  22991015.161    22991021.721
       222.000         172.000
  21566400.885   -17288871.42849 -13438921.82647  21566401.281    21566406.803
       234.000         190.000
 03  2  8  1 53  0.0000000  0  7G15G17G 6G23G18G29G26
  21825133.806   -18431633.35549 -14342776.91447  21825133.055    21825140.476
       235.000         192.000
  20980181.304   -17742012.19449 -13798019.80747  20980180.573    20980188.010
       241.000         209.000
  20807516.203   -23639707.37749 -18406339.82047  20807516.156    20807522.386
       241.000         206.000
  20690392.531   -22101111.39149 -17184000.51647  20690392.040    20690398.181
       243.000         212.000
  21093137.683   -20636851.33349 -16061571.33347  21093137.395    21093142.697
       243.000         207.000
  22999576.577   -12778025.21649  -9910201.85246  22999576.814    22999582.890
       223.000         171.000
  21569409.798   -17273059.52349 -13426600.82847  21569409.818    21569415.622
       234.000         190.000
 03  2  8  1 53 30.0000000  0  7G15G17G 6G23G18G29G26
  21814905.997   -18485380.73949 -14384657.92547  21814905.155    21814912.487
       234.000         191.000
  20976842.529   -17759557.48749 -13811691.42247  20976841.785    20976849.167
       240.000         209.000
  20817756.496   -23585894.63649 -18364407.81447  20817756.557    20817762.413
       241.000         206.000
  20695529.611   -22074115.74649 -17162964.92447  20695529.283    20695535.233
       243.000         212.000
  21084061.109   -20684549.05149 -16098738.34247  21084060.639    21084066.362
       242.000         207.000
  23008232.114   -12732540.30149  -9874759.05046  23008231.823    23008239.340
       223.000         171.000
  21572542.679   -17256596.15649 -13413772.20247  21572542.709    21572548.495
       234.000         190.000
 03  2  8  1 54  0.0000000  0  7G15G17G 6G23G18G29G26
  21804698.239   -18539022.20949 -14426456.39847  21804696.982    21804704.681
       233.000         191.000
  20973529.760   -17776966.29649 -13825256.69047  20973529.228    20973536.128
       242.000         209.000
  20828086.061   -23531612.38549 -18322109.96247  20828085.816    20828092.245
       240.000         206.000
  20700734.158   -22046765.52649 -17141653.04047  20700733.590    20700739.749
       242.000         212.000
  21075060.319   -20731848.18649 -16135594.75547  21075059.520    21075065.596
       242.000         207.000
  23016981.522   -12686561.57549  -9838931.43646  23016981.415    23016987.272
       223.000         171.000
  21575799.496   -17239481.27949 -13400435.89347  21575799.415    21575805.256
       233.000         190.000
 03  2  8  1 54 30.0000000  0  7G15G17G 6G23G18G29G26
  21794510.754   -18592556.99849 -14468171.75047  21794509.285    21794516.854
       234.000         190.000
  20970243.265   -17794237.09149 -13838714.41647  20970242.813    20970249.501
       241.000         209.000
  20838504.807   -23476861.05349 -18279446.59947  20838504.504    20838511.056
       240.000         205.000
  20706005.912   -22019062.02249 -17120065.86547  20706005.231    20706011.457
       242.000         212.000
  21066135.578   -20778747.79149 -16172139.85347  21066135.208    21066140.913
       242.000         207.000
  23025824.877   -12640089.70649  -9802719.56646  23025824.094    23025830.684
       223.000         171.000
  21579180.329   -17221714.69649 -13386591.76947  21579180.174    21579186.486
       234.000         190.000
 03  2  8  1 55  0.0000000  0  7G15G17G 6G23G18G29G26
  21784343.738   -18645984.93749 -14509803.84647  21784343.053    21784349.798
       235.000         190.000
  20966982.992   -17811369.75049 -13852064.50247  20966982.360    20966989.004
       241.000         209.000
  20849012.679   -23421641.89149 -18236418.68747  20849012.529    20849019.016
       241.000         206.000
  20711344.507   -21991007.30849 -17098205.02247  20711343.995    20711350.258
       243.000         211.000
  21057286.805   -20825248.25449 -16208373.93047  21057286.204    21057291.873
       242.000         207.000
  23034761.640   -12593126.25849  -9766124.64146  23034760.697    23034767.062
       223.000         171.000
  21582685.022   -17203297.08349 -13372240.34747  21582684.958    21582691.599
       234.000         190.000
 03  2  8  1 55 30.0000000  0  7G15G17G 6G23G18G29G26
  21774197.119   -18699305.84049 -14551352.54147  21774196.188    21774203.517
       234.000         190.000
  20963749.044   -17828363.95549 -13865306.70547  20963748.199    20963754.769
       241.000         208.000
  20859609.378   -23365956.12449 -18193027.18147  20859609.263    20859615.803
       241.000         206.000
  20716749.556   -21962603.45749 -17076072.12047  20716749.013    20716755.461
       242.000         211.000
  21048513.953   -20871349.69549 -16244297.07547  21048513.347    21048519.235
       242.000         207.000
  23043791.686   -12545673.01649  -9729148.07146  23043791.795    23043797.973
       224.000         171.000
  21586313.472   -17184229.04649 -13357382.10147  21586313.556    21586319.626
       232.000         189.000
 03  2  8  1 56  0.0000000  0  7G15G17G 6G23G18G29G26
  21764070.770   -18752519.45849 -14592817.62147  21764069.408    21764077.041
       233.000         190.000
  20960541.423   -17845219.81549 -13878441.10647  20960540.660    20960547.498
       241.000         208.000
  20870294.584   -23309805.18749 -18149273.21447  20870294.406    20870300.687
       240.000         205.000
  20722220.595   -21933852.55849 -17053668.79647  20722220.016    20722226.375
       242.000         211.000
  21039817.078   -20917051.85849 -16279909.10447  21039816.638    21039822.505
       242.000         207.000
  23052914.617   -12497731.68949  -9691791.17346  23052913.670    23052921.406
       222.000         172.000
  21590065.583   -17164511.30749 -13342017.59347  21590065.369    21590072.076
       233.000         189.000
 03  2  8  1 56 30.0000000  0  7G15G17G 6G23G18G29G26
  21753965.017   -18805624.55249 -14634198.14247  21753964.094    21753971.604
       233.000         190.000
  20957360.370   -17861935.86949 -13891466.55947  20957359.832    20957366.651
       241.000         209.000
  20881068.222   -23253189.23249 -18105156.89247  20881067.897    20881074.441
       240.000         205.000
  20727757.512   -21904755.82449 -17030995.98747  20727756.912    20727763.245
       242.000         211.000
  21031196.337   -20962353.93249 -16315209.36347  21031195.776    21031201.501
       242.000         207.000
  23062130.316   -12449303.03149  -9654054.53246  23062130.939    23062135.861
       223.000         171.000
  21593941.408   -17144143.39549 -13326146.45947  21593941.625    21593948.078
       234.000         190.000
 03  2  8  1 57  0.0000000  0  7G15G17G 6G23G18G29G26
  21743879.948   -18858621.81149 -14675494.63247  21743879.316    21743886.638
       234.000         191.000
  20954205.844   -17878512.82749 -13904383.63547  20954205.385    20954212.355
       241.000         209.000
  20891930.029   -23196110.19249 -18060679.72847  20891929.918    20891936.085
       241.000         205.000
  20733359.711   -21875315.89049 -17008055.75447  20733359.254    20733365.454
       242.000         211.000
  21022651.522   -21007256.91449 -16350198.64547  21022651.091    21022656.626
       242.000         207.000
  23071438.294   -12400389.34649  -9615939.95446  23071438.086    23071443.780
       222.000         171.000
  21597940.622   -17123126.91049 -13309769.94647  21597940.587    21597946.229
       233.000         189.000
 03  2  8  1 57 30.0000000  0  7G15G17G 6G23G18G29G26
  21733815.494   -18911510.70149 -14716706.68847  21733814.623    21733822.072
       234.000         192.000
  20951078.073   -17894949.40149 -13917191.31847  20951077.681    20951084.390
       242.000         210.000
  20902879.792   -23138568.82649 -18015842.30247  20902879.568    20902885.853
       240.000         205.000
  20739026.935   -21845534.39049 -16984849.36347  20739026.351    20739032.630
       242.000         211.000
  21014182.753   -21051760.53249 -16384876.73747  21014182.374    21014188.065
       242.000         207.000
  23080838.308   -12350991.78449  -9577448.32746  23080838.408    23080844.846
       223.000         171.000
  21602063.280   -17101462.03749 -13292888.19147  21602063.333    21602069.608
       232.000         189.000
 03  2  8  1 58  0.0000000  0  7G15G17G 6G23G18G29G26
  21723771.727   -18964290.68549 -14757833.88447  21723771.006    21723777.871
       235.000         192.000
  20947977.158   -17911245.01649 -13929889.15847  20947976.747    20947983.026
       242.000         210.000
  20913917.308   -23080566.20449 -17970645.44947  20913916.997    20913923.469
       240.000         205.000
  20744758.755   -21815413.05449 -16961378.15947  20744758.263    20744764.333
       242.000         211.000
  21005790.002   -21095864.37949 -16419243.31147  21005789.295    21005795.187
       241.000         207.000
  23090330.187   -12301111.67449  -9538580.69146  23090330.317    23090336.392
       222.000         171.000
  21606309.267   -17079148.98549 -13275501.35647  21606309.263    21606315.649
       233.000         189.000
 03  2  8  1 58 30.0000000  0  7G15G17G 6G23G18G29G26
  21713748.782   -19016961.32549 -14798875.89747  21713748.045    21713755.360
       236.000         193.000
  20944903.083   -17927399.51149 -13942477.04447  20944902.556    20944908.908
       242.000         210.000
  20925042.424   -23022103.35149 -17925089.98947  20925042.145    20925048.457
       240.000         204.000
  20750554.953   -21784953.73149 -16937643.59247  20750554.630    20750560.592
       242.000         211.000
  20997473.351   -21139568.41749 -16453298.34847  20997472.842    20997478.387
       242.000         207.000
  23099913.468   -12250750.70749  -9499338.36246  23099912.763    23099920.061
       221.000         170.000
  21610678.461   -17056188.49249 -13257610.03147  21610678.529    21610684.524
       233.000         189.000
 03  2  8  1 59  0.0000000  0  7G15G17G 6G23G18G29G26
  21703746.862   -19069521.98549 -14839832.20547  21703746.399    21703753.224
       235.000         193.000
  20941856.022   -17943411.76249 -13954954.09047  20941855.495    20941861.940
       242.000         209.000
  20936254.903   -22963181.29549 -17879176.70147  20936254.772    20936261.071
       241.000         205.000
  20756415.244   -21754158.06549 -16913646.94447  20756414.733    20756420.830
       242.000         211.000
  20989232.905   -21182872.43249 -16487041.68347  20989232.327    20989238.021
       242.000         208.000
  23109588.159   -12199910.04349  -9459722.24646  23109587.905    23109594.175
       222.000         170.000
  21615170.843   -17032580.84049 -13239214.42547  21615170.919    21615176.533
       233.000         189.000
 03  2  8  1 59 30.0000000  0  7G15G17G 6G23G18G29G26
  21693765.731   -19121973.10749 -14880703.15447  21693764.659    21693772.245
       235.000         194.000
  20938836.006   -17959281.83549 -13967320.34447  20938835.536    20938841.712
       242.000         209.000
  20947554.457   -22903801.88549 -17832907.02847  20947554.340    20947560.875
       240.000         205.000
  20762338.866   -21723028.83049 -16889390.36947  20762338.092    20762344.441
       242.000         211.000
  20981068.351   -21225777.36549 -16520474.04447  20981067.839    20981073.379
       242.000         208.000
  23119353.648   -12148592.13249  -9419734.24246  23119353.405    23119359.298
       222.000         170.000
  21619786.031   -17008327.54149 -13220315.70947  21619786.223    21619791.794
       233.000         189.000
 03  2  8  2  0  0.0000000  0  7G15G17G 6G23G18G29G26
  21683805.528   -19174313.82449 -14921488.07047  21683804.714    21683812.010
       237.000         194.000
  20935843.242   -17975009.12349 -13979575.34147  20935842.918    20935849.282
       243.000         209.000
  20958940.849   -22843965.86549 -17786281.56247  20958940.547    20958947.159
       240.000         204.000
  20768325.755   -21691567.27849 -16864874.84347  20768325.338    20768331.509
       243.000         211.000
  20972979.879   -21268282.47749 -16553594.85847  20972979.528    20972984.601
       243.000         208.000
  23129209.755   -12096798.01049  -9379375.17146  23129209.681    23129215.886
       222.000         169.000
  21624524.136   -16983428.86749 -13200914.11047  21624524.113    21624530.128
       233.000         189.000
 03  2  8  2  0 30.0000000  0  7G15G17G 6G23G18G29G26
  21673866.610   -19226543.34349 -14962186.33947  21673866.025    21673872.864
       237.000         195.000
  20932877.869   -17990592.77849 -13991718.41647  20932877.460    20932883.702
       242.000         209.000
  20970414.039   -22783673.92749 -17739300.83347  20970413.965    20970420.284
       240.000         204.000
  20774375.685   -21659774.92049 -16840101.54647  20774375.359    20774381.318
       243.000         211.000
  20964967.570   -21310387.55149 -16586403.95847  20964967.065    20964972.761
       243.000         209.000
  23139156.235   -12044528.97149  -9338646.02246  23139155.956    23139162.457
       222.000         169.000
  21629384.930   -16957885.12849 -13181009.86447  21629384.918    21629391.010
       233.000         189.000
 03  2  8  2  1  0.0000000  0  7G15G17G 6G23G18G29G26
  21663949.074   -19278660.63649 -15002797.16647  21663948.770    21663956.039
       237.000         196.000
  20929940.073   -18006031.07749 -14003748.22047  20929939.434    20929946.057
       241.000         209.000
  20981973.932   -22722926.73749 -17691965.36047  20981973.932    20981980.062
       240.000         204.000
  20780488.320   -21627653.04949 -16815071.48847  20780487.708    20780493.808
       243.000         211.000
  20957031.444   -21352092.00749 -16618900.88347  20957030.779    20957035.919
       242.000         209.000
  23149192.858   -11991785.91849  -9297547.51046  23149193.127    23149198.297
       222.000         169.000
  21634368.533   -16931696.19949 -13160602.87147  21634368.458    21634374.937
       233.000         189.000
 03  2  8  2  1 30.0000000  0  7G15G17G 6G23G18G29G26
  21654052.707   -19330666.70349 -15043321.32047  21654051.782    21654058.729
       236.000         196.000
  20927029.629   -18021325.32449 -14015665.77347  20927028.839    20927035.378
       241.000         209.000
  20993619.914   -22661726.85449 -17644277.14347  20993619.670    20993626.129
       240.000         204.000
  20786662.913   -21595204.93349 -16789787.20947  20786662.353    20786668.628
       243.000         211.000
  20949171.271   -21393396.93649 -16651086.49347  20949170.851    20949176.147
       243.000         209.000
  23159319.150   -11938571.88649  -9256082.01246  23159318.947    23159324.861
       221.000         168.000
  21639474.412   -16904864.38249 -13139694.92347  21639474.374    21639480.149
       234.000         189.000
 03  2  8  2  2  0.0000000  0  7G15G17G 6G23G18G29G26
  21644177.554   -19382560.52549 -15083758.01147  21644176.438    21644183.547
       236.000         195.000
  20924146.882   -18036473.96349 -14027469.86847  20924146.215    20924152.684
       242.000         209.000
  21005351.817   -22600075.11149 -17596236.82447  21005351.508    21005358.069
       240.000         203.000
  20792899.400   -21562432.03749 -16764249.86147  20792898.966    20792904.801
       243.000         211.000
  20941387.250   -21434302.15549 -16682960.64647  20941386.979    20941391.980
       244.000         210.000
  23169534.809   -11884887.95449  -9214250.34446  23169534.525    23169540.181
       222.000         168.000
  21644702.644   -16877389.90949 -13118286.21747  21644703.174    21644708.796
       234.000         189.000
 03  2  8  2  2 30.0000000  0  7G15G17G 6G23G18G29G26
  21634323.827   -19434341.48249 -15124106.75347  21634322.890    21634329.806
       235.000         194.000
  20921292.039   -18051476.56749 -14039160.17247  20921291.531    20921297.536
       242.000         209.000
  21017169.563   -22537972.18949 -17547844.94147  21017169.356    21017175.708
       239.000         203.000
  20799197.389   -21529335.99549 -16738460.70947  20799196.886    20799202.934
       243.000         212.000
  20933679.410   -21474807.14549 -16714522.92747  20933678.656    20933684.188
       243.000         210.000
  23179839.692   -11830735.48349  -9172053.58646  23179839.141    23179845.361
       221.000         168.000
  21650053.107   -16849273.24049 -13096377.08947  21650052.970    21650059.468
       233.000         189.000
 03  2  8  2  3  0.0000000  0  7G15G17G 6G23G18G29G26
  21624491.762   -19486008.75449 -15164366.90647  21624490.866    21624498.021
       236.000         194.000
  20918465.076   -18066332.55849 -14050736.22947  20918464.249    20918470.498
       242.000         209.000
  21029072.943   -22475419.47549 -17499102.56747  21029072.616    21029078.935
       239.000         203.000
  20805556.471   -21495918.69749 -16712421.23047  20805555.813    20805561.922
       243.000         211.000
  20926047.633   -21514912.26649 -16745773.62447  20926047.199    20926052.347
       244.000         210.000
  23190233.460   -11776116.15049  -9129493.04146  23190233.995    23190239.563
       222.000         168.000
  21655525.494   -16820515.31849 -13073968.28447  21655525.771    21655531.046
       233.000         188.000
 03  2  8  2  3 30.0000000  0  7G15G17G 6G23G18G29G26
  21614681.244   -19537563.10249 -15204539.06747  21614680.398    21614687.464
       236.000         194.000
  20915665.832   -18081042.28749 -14062198.31947  20915664.906    20915671.388
       242.000         209.000
  21041061.408   -22412419.54349 -17450011.71747  21041060.927    21041067.699
       239.000         202.000
  20811976.074   -21462183.11849 -16686133.73647  20811975.359    20811981.585
       243.000         211.000
  20918491.745   -21554618.60349 -16776713.58247  20918491.170    20918496.564
       243.000         210.000
  23200715.489   -11721032.96649  -9086571.05346  23200715.339    23200721.582
       221.000         169.000
  21661119.627   -16791118.17849 -13051061.40247  21661119.749    21661125.625
       234.000         188.000
 03  2  8  2  4  0.0000000  0  7G15G17G 6G23G18G29G26
  21604892.374   -19589003.57149 -15244622.48647  21604891.155    21604898.823
       236.000         195.000
  20912894.707   -18095604.11349 -14073545.15847  20912893.805    20912900.401
       241.000         209.000
  21053134.929   -22348972.70249 -17400572.62247  21053134.678    21053141.180
       239.000         201.000
  20818456.110   -21428130.32749 -16659599.06747  20818455.733    20818461.609
       243.000         211.000
  20911011.810   -21593925.51649 -16807342.29747  20911011.258    20911016.380
       243.000         209.000
  23211285.524   -11665486.58149  -9043288.12646  23211286.081    23211290.959
       221.000         168.000
  21666835.325   -16761081.88749 -13027656.46747  21666834.872    21666840.998
       234.000         188.000
 03  2  8  2  4 30.0000000  0  7G15G17G 6G23G18G29G26
  21595125.347   -19640329.19649 -15284616.42147  21595124.426    21595131.941
       236.000         195.000
  20910151.850   -18110017.29449 -14084776.16847  20910150.944    20910157.504
       241.000         209.000
  21065293.281   -22285080.03249 -17350786.12747  21065292.941    21065299.548
       238.000         201.000
  20824996.146   -21393762.11749 -16632818.61347  20824995.556    20825001.522
       242.000         211.000
  20903607.978   -21632832.93749 -16837659.71447  20903607.434    20903612.593
       243.000         209.000
  23221943.541   -11609478.56249  -8999645.50646  23221943.523    23221948.682
       222.000         168.000
  21672672.547   -16730406.97649 -13003753.91347  21672672.551    21672678.482
       233.000         188.000
 03  2  8  2  5  0.0000000  0  7G15G17G 6G23G18G29G26
  21585380.229   -19691540.20149 -15324521.04747  21585379.343    21585386.564
       237.000         195.000
  20907437.306   -18124281.77249 -14095891.31147  20907436.593    20907442.951
       241.000         209.000
  21077536.099   -22220743.65849 -17300653.88647  21077535.926    21077542.218
       239.000         202.000
  20831595.675   -21359080.92449 -16605794.27947  20831594.797    20831601.236
       242.000         210.000
  20896279.941   -21671341.64649 -16867666.45747  20896279.457    20896284.661
       243.000         209.000
  23232688.974   -11553011.34349  -8955645.05546  23232688.684    23232694.960
       220.000         168.000
  21678630.898   -16699095.18649 -12979355.09446  21678630.596    21678636.415
       233.000         187.000
 03  2  8  2  5 30.0000000  0  7G15G17G 6G23G18G29G26
  21575657.085   -19742635.68349 -15364335.64447  21575656.204    21575663.260
       237.000         195.000
  20904751.182   -18138396.88449 -14106890.06647  20904750.362    20904756.920
       241.000         209.000
  21089863.135   -22155964.38749 -17250176.53847  21089863.032    21089869.390
       238.000         202.000
  20838254.457   -21324088.29249 -16578527.26647  20838253.877    20838260.091
       242.000         210.000
  20889027.826   -21709451.26049 -16897362.21347  20889027.087    20889032.448
       242.000         209.000
  23243521.373   -11496086.29749  -8911287.85946  23243521.895    23243527.012
       221.000         168.000
  21684710.410   -16667147.09549 -12954460.45347  21684710.747    21684716.327
       232.000         188.000
 03  2  8  2  6  0.0000000  0  7G15G17G 6G23G18G29G26
  21565955.970   -19793615.06349 -15404059.77747  21565954.770    21565961.882
       237.000         194.000
  20902093.603   -18152362.08849 -14117772.00447  20902092.972    20902099.782
       241.000         209.000
  21102274.293   -22090743.50649 -17199355.08047  21102273.990    21102280.620
       238.000         201.000
  20844972.220   -21288786.17449 -16551019.09347  20844971.836    20844977.746
       242.000         210.000
  20881851.632   -21747161.96249 -16926747.12147  20881851.045    20881856.496
       242.000         209.000
  23254440.677   -11438704.99149  -8866575.12546  23254440.636    23254446.976
       219.000         167.000
  21690910.806   -16634563.61249 -12929070.69946  21690910.635    21690916.658
       232.000         187.000
 03  2  8  2  6 30.0000000  0  7G15G17G 6G23G18G29G26
  21556276.923   -19844478.06349 -15443693.22147  21556275.671    21556282.926
       237.000         194.000
  20899464.809   -18166176.50949 -14128536.45347  20899464.272    20899470.898
       242.000         210.000
  21114769.104   -22025082.63649 -17148190.77347  21114768.980    21114775.565
       238.000         201.000
  20851748.463   -21253176.81349 -16523271.51247  20851747.745    20851754.107
       241.000         210.000
  20874751.367   -21784474.13149 -16955821.48347  20874750.791    20874756.118
       242.000         209.000
  23265446.302   -11380869.55449  -8821508.53946  23265446.047    23265452.510
       220.000         167.000
  21697231.851   -16601346.27149 -12903187.03246  21697232.149    21697237.963
       233.000         187.000
 03  2  8  2  7  0.0000000  0  7G15G17G 6G23G18G29G26
  21546620.396   -19895223.01649 -15483234.67947  21546620.015    21546626.770
       238.000         195.000
  20896865.090   -18179838.31749 -14139181.98147  20896864.682    20896870.890
       242.000         210.000
  21127347.687   -21958982.06849 -17096683.84547  21127347.702    21127354.128
       239.000         201.000
  20858582.953   -21217260.92649 -16495285.07447  20858582.024    20858588.533
       241.000         209.000
  20867727.055   -21821386.75249 -16984584.51147  20867726.504    20867731.820
       242.000         209.000
  23276538.319   -11322580.75449  -8776088.67946  23276538.128    23276543.878
       220.000         167.000
  21703673.572   -16567494.73349 -12876809.19246  21703673.519    21703679.523
       232.000         187.000
 03  2  8  2  7 30.0000000  0  7G15G17G 6G23G18G29G26
  21536986.290   -19945851.02449 -15522685.02047  21536985.915    21536991.937
       239.000         196.000
  20894294.183   -18193348.75549 -14149709.55947  20894293.781    20894299.590
       242.000         210.000
  21140009.298   -21892444.86749 -17044836.68447  21140008.986    21140015.517
       238.000         201.000
  20865475.039   -21181042.26749 -16467062.71347  20865474.642    20865480.881
       241.000         209.000
  20860778.402   -21857901.85749 -17013037.79047  20860777.944    20860783.365
       242.000         210.000
  23287715.919   -11263841.83449  -8730318.07346  23287715.350    23287721.822
       220.000         167.000
  21710235.368   -16533011.84949 -12849939.39046  21710235.167    21710241.125
       232.000         187.000
 03  2  8  2  8  0.0000000  0  7G15G17G 6G23G18G29G26
  21527374.595   -19996361.14949 -15562043.49647  21527373.489    21527380.280
       238.000         196.000
  20891752.245   -18206706.75549 -14160118.34847  20891751.601    20891757.743
       242.000         210.000
  21152753.767   -21825472.17049 -16992650.16647  21152753.583    21152759.960
       238.000         201.000
  20872424.651   -21144522.08049 -16438605.39947  20872424.251    20872430.386
       241.000         210.000
  20853905.494   -21894018.96349 -17041180.92747  20853904.932    20853910.447
       242.000         210.000
  23298978.853   -11204654.35149  -8684197.93846  23298978.943    23298985.663
       219.000         167.000
  21716917.299   -16497898.17749 -12822578.06246  21716917.211    21716923.114
       232.000         187.000
 03  2  8  2  8 30.0000000  0  7G15G17G 6G23G18G29G26
  21517785.384   -20046752.04449 -15601309.05847  21517783.848    21517791.278
       237.000         195.000
  20889239.605   -18219910.73749 -14170407.12747  20889238.951    20889245.392
       243.000         210.000
  21165580.986   -21758064.56849 -16940124.76647  21165580.773    21165587.333
       239.000         201.000
  20879431.393   -21107701.44549 -16409913.96647  20879430.851    20879436.930
       241.000         209.000
  20847108.478   -21929737.39049 -17069013.41347  20847108.127    20847113.400
       243.000         210.000
  23310326.976   -11145019.13849  -8637728.91946  23310327.106    23310333.472
       218.000         166.000
  21723719.063   -16462154.43149 -12794725.76546  21723719.172    21723724.954
       232.000         187.000
 03  2  8  2  9  0.0000000  0  7G15G17G 6G23G18G29G26
  21508218.887   -20097023.25349 -15640481.35847  21508218.040    21508224.972
       238.000         195.000
  20886756.496   -18232959.69149 -14180575.10347  20886756.070    20886762.250
       243.000         210.000
  21178490.770   -21690223.39549 -16887261.51047  21178490.616    21178496.805
       239.000         201.000
  20886494.810   -21070582.34149 -16380989.96347  20886493.991    20886500.665
       241.000         209.000
  20840387.246   -21965057.76549 -17096535.72847  20840386.571    20840391.806
       242.000         210.000
  23321759.929   -11084938.10449  -8590912.50946  23321759.722    23321765.617
       218.000         166.000
  21730640.572   -16425781.48949 -12766383.17346  21730640.930    21730646.816
       232.000         187.000
 03  2  8  2  9 30.0000000  0  7G15G17G 6G23G18G29G26
  21498675.336   -20147174.89249 -15679560.50147  21498674.657    21498681.143
       240.000         196.000
  20884302.863   -18245853.94549 -14190622.53747  20884302.238    20884308.736
       243.000         210.000
  21191482.614   -21621950.88749 -16834062.15347  21191482.542    21191488.660
       239.000         201.000
  20893614.611   -21033167.38849 -16351835.43347  20893614.302    20893620.349
       242.000         209.000
  20833741.535   -21999980.72449 -17123748.37147  20833741.131    20833746.199
       243.000         210.000
  23333277.238   -11024413.94349  -8543750.80746  23333277.058    23333284.093
       217.000         166.000
  21737681.485   -16388781.24049 -12737551.78846  21737681.406    21737687.247
       232.000         187.000
 03  2  8  2 10  0.0000000  0  7G15G17G 6G23G18G29G26
  21489154.814   -20197205.84649 -15718545.60747  21489154.328    21489160.556
       240.000         197.000
  20881878.823   -18258592.13249 -14200548.35947  20881878.027    20881884.438
       242.000         210.000
  21204556.383   -21553248.00449 -16780527.43647  21204556.281    21204562.869
       239.000         201.000
  20900790.536   -20995458.22749 -16322451.65147  20900790.104    20900796.131
       242.000         210.000
  20827171.566   -22034506.08549 -17150651.19847  20827171.179    20827176.422
       243.000         211.000
  23344878.648   -10963448.03149  -8496244.88346  23344878.427    23344884.893
       219.000         166.000
  21744841.545   -16351154.64349 -12708232.33246  21744841.440    21744847.729
       232.000         187.000
 03  2  8  2 10 30.0000000  0  7G15G17G 6G23G18G29G26
  21479657.222   -20247116.28749 -15757436.80147  21479656.513    21479663.288
       240.000         197.000
  20879484.351   -18271174.38049 -14210352.66847  20879483.434    20879489.877
       241.000         209.000
  21217711.605   -21484116.88449 -16726659.02847  21217711.414    21217717.885
       240.000         201.000
  20908021.863   -20957457.30549 -16292840.51747  20908021.098    20908027.345
       242.000         210.000
  20820677.069   -22068634.77749 -17177244.92747  20820676.506    20820681.827
       242.000         211.000
  23356563.713   -10902042.72949  -8448396.57746  23356563.258    23356570.145
       218.000         166.000
  21752120.461   -16312903.43949 -12678426.16646  21752121.090    21752126.674
       232.000         187.000
 03  2  8  2 11  0.0000000  0  7G15G17G 6G23G18G29G26
  21470182.556   -20296905.81849 -15796233.76947  21470181.453    21470188.598
       239.000         198.000
  20877119.569   -18283600.54949 -14220035.35847  20877118.821    20877124.785
       241.000         209.000
  21230947.946   -21414559.56449 -16672458.51047  21230947.911    21230953.987
       239.000         200.000
  20915308.222   -20919167.03649 -16263003.91547  20915307.764    20915313.686
       242.000         210.000
  20814257.876   -22102367.51649 -17203530.12447  20814257.439    20814262.697
       243.000         211.000
  23368331.918   -10840200.57949  -8400207.86146  23368331.221    23368337.979
       219.000         166.000
  21759517.890   -16274029.37249 -12648134.66046  21759517.749    21759523.400
       231.000         186.000
 03  2  8  2 11 30.0000000  0  7G15G17G 6G23G18G29G26
  21460731.027   -20346573.49449 -15834935.78247  21460730.076    21460737.129
       239.000         198.000
  20874784.875   -18295869.10349 -14229595.23647  20874784.248    20874790.283
       241.000         209.000
  21244265.178   -21344577.10349 -16617926.71747  21244264.931    21244271.576
       240.000         200.000
  20922649.412   -20880588.80249 -16232942.93247  20922649.111    20922654.941
       243.000         210.000
  20807914.158   -22135703.99649 -17229506.55547  20807913.561    20807918.824
       243.000         211.000
  23380182.952   -10777922.94649  -8351679.82246  23380182.826    23380189.071
       218.000         166.000
  21767033.740   -16234533.28349 -12617358.45346  21767033.966    21767039.793
       232.000         186.000
 03  2  8  2 12  0.0000000  0  7G15G17G 6G23G18G29G26
  21451302.967   -20396117.69849 -15873541.59347  21451302.173    21451308.772
       240.000         199.000
  20872480.632   -18307978.16549 -14239030.83347  20872480.432    20872486.229
       241.000         209.000
  21257663.201   -21274169.84249 -16563063.91147  21257662.956    21257669.344
       237.000         200.000
  20930045.304   -20841723.49149 -16202658.25347  20930044.991    20930050.737
       242.000         210.000
  20801645.899   -22168643.55549 -17255173.69147  20801645.111    20801650.588
       241.000         210.000
  23392116.718   -10715210.39749  -8302812.87646  23392116.815    23392122.795
       217.000         165.000
  21774667.894   -16194415.45349 -12586097.77346  21774668.421    21774673.777
       231.000         186.000
 03  2  8  2 12 30.0000000  0  7G15G17G 6G23G18G29G26
  21441898.519   -20445538.71749 -15912051.41447  21441897.863    21441904.154
       241.000         199.000
  20870206.696   -18319928.05349 -14248342.39847  20870206.147    20870212.493
       242.000         209.000
  21271141.627   -21203340.28049 -16507872.04247  21271141.745    21271148.128
       238.000         200.000
  20937495.189   -20802573.99449 -16172152.12447  20937494.444    20937500.539
       243.000         210.000
  20795452.952   -22201187.42049 -17280532.49747  20795452.508    20795457.728
       243.000         211.000
  23404132.568   -10652066.04349  -8253609.46046  23404131.987    23404138.483
       218.000         164.000
  21782419.925   -16153678.17749 -12554354.41046  21782420.004    21782425.632
       231.000         185.000
 03  2  8  2 13  0.0000000  0  7G15G17G 6G23G18G29G26
  21432517.523   -20494836.36449 -15950465.11247  21432516.548    21432522.982
       240.000         198.000
  20867963.065   -18331718.47849 -14257529.70147  20867962.380    20867968.682
       241.000         209.000
  21284700.048   -21132090.26849 -16452352.55547  21284700.009    21284706.483
       237.000         199.000
  20944998.670   -20763142.48949 -16141426.24847  20944997.980    20945004.207
       243.000         210.000
  20789335.243   -22233336.05549 -17305583.33147  20789334.583    20789340.038
       242.000         211.000
  23416230.330   -10588492.03549  -8204071.27046  23416229.811    23416236.117
       218.000         164.000
  21790289.545   -16112323.01749 -12522129.57946  21790289.377    21790295.754
       230.000         185.000
 03  2  8  2 13 30.0000000  0  7G15G17G 6G23G18G29G26
  21423160.064   -20544009.69949 -15988781.93447  21423159.365    21423165.684
       240.000         197.000
  20865749.924   -18343348.24249 -14266591.81547  20865749.282    20865755.300
       242.000         209.000
  21298338.213   -21060421.19249 -16396506.52047  21298337.987    21298344.341
       237.000         199.000
  20952555.622   -20723430.64449 -16110481.92847  20952555.178    20952561.004
       243.000         210.000
  20783292.631   -22265089.72049 -17330326.39347  20783292.056    20783297.195
       242.000         210.000
  23428409.460   -10524490.17949  -8154199.67046  23428410.019    23428415.415
       217.000         164.000
  21798276.478   -16070351.29949 -12489424.31846  21798276.597    21798281.989
       232.000         185.000
 03  2  8  2 14  0.0000000  0  7G15G17G 6G23G18G29G26
  21413826.454   -20593057.73949 -16027001.12747  21413825.687    21413832.003
       239.000         198.000
  20863567.562   -18354816.58649 -14275528.15247  20863567.063    20863573.197
       242.000         209.000
  21312055.845   -20988334.47949 -16340335.05547  21312055.591    21312062.013
       236.000         197.000
  20960165.598   -20683440.14949 -16079320.48447  20960165.110    20960170.787
       243.000         210.000
  20777325.208   -22296448.54349 -17354761.78947  20777324.657    20777330.139
       243.000         211.000
  23440669.677   -10460062.30349  -8103996.10546  23440669.342    23440676.166
       217.000         164.000
  21806380.623   -16027764.09449 -12456239.46746  21806380.977    21806386.774
       232.000         186.000
 03  2  8  2 14 30.0000000  0  7G15G17G 6G23G18G29G26
  21404516.861   -20641979.99949 -16065122.31047  21404516.112    21404522.963
       239.000         199.000
  20861416.021   -18366122.77149 -14284338.12747  20861415.453    20861421.567
       242.000         209.000
  21325852.596   -20915831.94449 -16283839.57447  21325852.250    21325858.958
       235.000         196.000
  20967828.125   -20643173.12749 -16047943.55747  20967827.265    20967833.236
       243.000         210.000
  20771432.859   -22327412.97349 -17378889.86347  20771432.147    20771437.442
       242.000         211.000
  23453010.426   -10395210.54249  -8053462.25146  23453010.119    23453016.769
       217.000         164.000
  21814601.468   -15984563.21449 -12422576.40746  21814601.616    21814607.412
       231.000         186.000
 03  2  8  2 15  0.0000000  0  7G15G17G 6G23G18G29G26
  21395231.324   -20690775.63649 -16103144.82247  21395230.130    21395237.273
       238.000         199.000
  20859295.545   -18377265.72949 -14293020.92247  20859294.961    20859301.049
       241.000         209.000
  21339728.189   -20842914.94549 -16227021.12447  21339727.784    21339734.561
       235.000         196.000
  20975542.950   -20602631.11249 -16016352.35347  20975542.244    20975548.421
       242.000         210.000
  20765615.471   -22357983.15949 -17402710.73147  20765614.974    20765619.989
       243.000         211.000
  23465431.590   -10329936.34949  -8002599.22746  23465431.030    23465437.331
       216.000         164.000
  21822938.895   -15940749.74849 -12388436.02246  21822938.754    21822944.457
       231.000         186.000
 03  2  8  2 15 30.0000000  0  7G15G17G 6G23G18G29G26
  21385969.734   -20739444.59249 -16141068.62547  21385968.702    21385975.457
       237.000         199.000
  20857206.233   -18388244.95749 -14301576.13447  20857205.587    20857211.632
       242.000         209.000
  21353682.309   -20769585.46549 -16169881.26947  21353682.223    21353688.680
       235.000         196.000
  20983309.678   -20561816.58749 -15984548.79947  20983309.087    20983315.113
       243.000         210.000
  20759873.044   -22388159.82149 -17426224.96547  20759872.659    20759877.565
       243.000         211.000
  23477932.785   -10264242.45349  -7951409.16746  23477932.226    23477939.336
       216.000         164.000
  21831392.518   -15896325.67949 -12353819.84246  21831392.242    21831398.252
       231.000         185.000
 03  2  8  2 16  0.0000000  0  7G15G17G 6G23G18G29G26
  21376732.527   -20787985.69749 -16178892.80947  21376731.137    21376738.395
       238.000         198.000
  20855148.220   -18399059.74849 -14310003.21147  20855147.572    20855153.560
       242.000         209.000
  21367714.667   -20695844.76549 -16112420.98447  21367714.129    21367721.086
       236.000         196.000
  20991127.955   -20520731.22049 -15952534.20347  20991127.165    20991133.319
       242.000         209.000
  20754205.501   -22417942.90349 -17449432.51147  20754204.783    20754210.050
       242.000         211.000
  23490513.539   -10198130.33449  -7899893.21946  23490513.166    23490519.567
       217.000         163.000
  21839962.069   -15851292.21549 -12318728.80846  21839961.929    21839967.835
       231.000         185.000
 03  2  8  2 16 30.0000000  0  7G15G17G 6G23G18G29G26
  21367519.847   -20836398.70649 -16216617.17947  21367519.024    21367525.749
       238.000         198.000
  20853121.646   -18409709.37849 -14318301.58947  20853121.095    20853126.961
       242.000         209.000
  21381824.905   -20621695.12749 -16054642.05047  21381824.911    21381831.096
       235.000         196.000
  20998997.273   -20479377.33649 -15920310.37547  20998996.687    20999002.550
       242.000         209.000
  20748612.585   -22447333.57649 -17472334.28347  20748612.185    20748617.126
       243.000         211.000
  23503173.296   -10131602.59749  -7848053.40946  23503173.372    23503179.643
       218.000         163.000
  21848647.258   -15805651.37149 -12283164.49646  21848647.186    21848652.844
       230.000         184.000
 03  2  8  2 17  0.0000000  0  7G15G17G 6G23G18G29G26
  21358331.688   -20884682.78849 -16254241.08947  21358330.895    21358337.546
       238.000         198.000
  20851126.697   -18420193.10049 -14326470.68847  20851126.126    20851132.347
       242.000         210.000
  21396012.678   -20547138.08049 -15996545.64947  21396012.469    21396018.722
       235.000         196.000
  21006917.381   -20437756.77349 -15887878.74047  21006916.664    21006922.708
       241.000         209.000
  20743094.386   -22476331.84449 -17494930.28847  20743093.935    20743098.832
       243.000         211.000
  23515911.789   -10064661.10049  -7795891.19346  23515911.763    23515918.163
       218.000         164.000
  21857447.607   -15759404.86049 -12247128.23046  21857447.204    21857452.765
       230.000         184.000
 03  2  8  2 17 30.0000000  0  7G15G17G 6G23G18G29G26
  21349168.120   -20932837.39749 -16291764.10747  21349167.439    21349173.815
       238.000         199.000
  20849163.478   -18430510.10849 -14334509.88747  20849162.845    20849168.755
       242.000         209.000
  21410277.557   -20472175.40749 -15938133.17247  21410277.463    21410283.813
       236.000         195.000
  21014887.809   -20395871.51549 -15855240.85247  21014887.126    21014893.349
       242.000         209.000
  20737650.712   -22504938.31349 -17517220.99447  20737650.004    20737655.183
       243.000         211.000
  23528728.675    -9997308.06849  -7743408.28346  23528728.880    23528734.372
       219.000         164.000
  21866363.000   -15712554.01549 -12210621.04946  21866363.212    21866368.508
       230.000         184.000
 03  2  8  2 18  0.0000000  0  7G15G17G 6G23G18G29G26
  21340029.266   -20980862.02149 -16329185.84247  21340028.086    21340035.480
       238.000         199.000
  20847231.864   -18440660.12649 -14342418.96247  20847230.892    20847237.215
       241.000         209.000
  21424619.292   -20396809.07649 -15879406.15847  21424619.295    21424625.322
       236.000         196.000
  21022908.236   -20353723.74249 -15822398.40947  21022907.804    21022913.810
       243.000         209.000
  20732281.419   -22533153.77949 -17539207.02647  20732281.110    20732285.935
       243.000         211.000
  23541623.508    -9929545.70349  -7690606.42246  23541623.883    23541629.460
       220.000         164.000
  21875393.013   -15665100.90349 -12173644.57846  21875392.121    21875398.305
       230.000         183.000
 03  2  8  2 18 30.0000000  0  7G15G17G 6G23G18G29G26
  21330915.182   -21028756.11949 -16366505.85647  21330913.946    21330920.673
       237.000         198.000
  20845332.221   -18450642.06949 -14350197.07647  20845331.257    20845338.190
       241.000         209.000
  21439037.528   -20321040.78049 -15820365.92447  21439037.273    21439043.604
       236.000         196.000
  21030978.309   -20311315.37449 -15789352.90547  21030978.067    21030983.849
       242.000         209.000
  20726986.514   -22560978.64049 -17560888.68947  20726985.696    20726991.042
       242.000         211.000
  23554595.864    -9861376.11449  -7637487.25146  23554595.573    23554601.985
       219.000         164.000
  21884537.192   -15617047.25949 -12136200.15646  21884536.720    21884542.600
       230.000         183.000
 03  2  8  2 19  0.0000000  0  7G15G17G 6G23G18G29G26
  21321826.258   -21076518.22049 -16403723.01847  21321825.557    21321832.004
       239.000         198.000
  20843464.805   -18460454.68449 -14357843.23947  20843464.390    20843470.806
       242.000         209.000
  21453532.034   -20244871.65949 -15761013.35947  21453532.059    21453538.265
       236.000         196.000
  21039097.715   -20268647.65949 -15756105.30947  21039097.106    21039103.026
       241.000         209.000
  20721765.929   -22588412.71949 -17582265.84147  20721765.410    20721770.372
       242.000         211.000
  23567645.168    -9792800.97149  -7584052.05646  23567645.089    23567651.156
       218.000         163.000
  21893795.592   -15568394.08549 -12098288.57046  21893795.541    21893800.756
       231.000         183.000
 03  2  8  2 19 30.0000000  0  7G15G17G 6G23G18G29G26
  21312762.618   -21124148.05349 -16440837.12847  21312762.022    21312768.368
       239.000         199.000
  20841629.906   -18470097.41049 -14365357.03147  20841629.630    20841635.595
       242.000         210.000
  21468102.495   -20168303.80549 -15701350.09147  21468102.422    21468108.929
       236.000         196.000
  21047265.907   -20225722.97949 -15722657.48447  21047265.341    21047271.264
       241.000         208.000
  20716619.574   -22615456.84249 -17603339.14247  20716619.023    20716624.069
       242.000         211.000
  23580771.430    -9723822.34549  -7530302.46346  23580771.502    23580777.667
       219.000         164.000
  21903167.653   -15519143.46049 -12059911.43846  21903167.563    21903173.683
       230.000         182.000
 03  2  8  2 20  0.0000000  0  7G15G17G 6G23G18G29G26
  21303724.144   -21171645.49549 -16477848.06947  21303723.369    21303730.059
       239.000         199.000
  20839827.422   -18479569.83249 -14372738.10847  20839826.858    20839833.047
       242.000         210.000
  21482748.271   -20091339.84049 -15641378.17047  21482748.303    21482754.339
       236.000         196.000
  21055482.571   -20182544.07549 -15689011.56247  21055481.993    21055488.071
       242.000         208.000
  20711547.147   -22642112.13349 -17624109.44847  20711546.295    20711551.566
       242.000         210.000
  23593973.853    -9654443.43849  -7476240.97046  23593973.162    23593979.891
       219.000         163.000
  21912652.890   -15469297.85349 -12021070.68246  21912652.696    21912658.297
       230.000         183.000
 03  2  8  2 20 30.0000000  0  7G15G17G 6G23G18G29G26
  21294711.220   -21219008.50049 -16514754.24847  21294710.259    21294717.424
       239.000         200.000
  20838057.711   -18488869.79749 -14379984.80347  20838057.003    20838063.034
       242.000         209.000
  21497469.380   -20013979.87849 -15581097.67947  21497469.072    21497475.601
       236.000         195.000
  21063747.579   -20139111.43149 -15655167.92047  21063747.091    21063753.121
       242.000         208.000
  20706548.898   -22668377.69449 -17644576.06947  20706548.425    20706553.304
       242.000         210.000
  23607252.286    -9584664.79249  -7421867.98246  23607252.439    23607258.377
       219.000         163.000
  21922251.354   -15418857.53749 -11981766.52146  21922250.911    21922257.042
       229.000         182.000
 03  2  8  2 21  0.0000000  0  7G15G17G 6G23G18G29G26
  21285723.910   -21266236.94149 -16551555.56547  21285723.260    21285730.073
       240.000         200.000
  20836320.773   -18497997.15649 -14387097.00347  20836319.976    20836326.121
       241.000         209.000
  21512265.335   -19936226.58749 -15520510.70247  21512265.209    21512271.484
       236.000         195.000
  21072060.420   -20095427.47649 -15621128.45347  21072059.767    21072065.870
       242.000         208.000
  20701624.628   -22694254.65449 -17664739.88847  20701624.124    20701628.950
       242.000         211.000
  23620606.340    -9514489.24449  -7367185.73445  23620606.245    23620612.032
       219.000         162.000
  21931962.459   -15367825.08049 -11942000.94246  21931962.628    21931968.410
       229.000         182.000
 03  2  8  2 21 30.0000000  0  7G15G17G 6G23G18G29G26
  21276762.360   -21313330.57149 -16588251.84947  21276761.894    21276767.806
       241.000         201.000
  20834616.728   -18506951.49949 -14394074.38647  20834616.015    20834622.434
       241.000         209.000
  21527135.649   -19858082.13649 -15459618.92847  21527135.394    21527141.649
       236.000         195.000
  21080420.498   -20051494.56049 -15586894.98647  21080419.629    21080425.852
       241.000         208.000
  20696774.121   -22719744.23149 -17684601.84547  20696773.632    20696778.707
       242.000         211.000
  23634035.292    -9443919.34949  -7312196.17245  23634034.608    23634040.031
       218.000         161.000
  21941785.819   -15316202.71149 -11901775.70146  21941785.748    21941791.465
       228.000         182.000
 03  2  8  2 22  0.0000000  0  7G15G17G 6G23G18G29G26
  21267826.554   -21360288.74849 -16624842.59347  21267825.741    21267831.964
       240.000         201.000
  20832945.739   -18515732.25049 -14400916.51047  20832945.242    20832951.795
       242.000         209.000
  21542080.108   -19779548.40949 -15398423.81447  21542079.898    21542086.400
       235.000         195.000
  21088827.526   -20007314.73149 -15552469.12347  21088826.709    21088833.179
       241.000         208.000
  20691997.200   -22744846.86049 -17704162.28547  20691996.679    20692001.562
       242.000         211.000
  23647538.809    -9372957.20349  -7256900.98845  23647538.999    23647544.612
       218.000         160.000
  21951721.057   -15263992.34449 -11861092.28846  21951720.750    21951726.954
       229.000         182.000
 03  2  8  2 22 30.0000000  0  7G15G17G 6G23G18G29G26
  21258916.665   -21407110.10849 -16661326.72047  21258915.789    21258922.476
       240.000         201.000
  20831308.210   -18524337.83449 -14407622.13247  20831307.776    20831313.932
       241.000         209.000
  21557098.382   -19700626.75449 -15336926.42347  21557098.361    21557104.848
       235.000         194.000
  21097281.343   -19962889.28649 -15517851.87247  21097281.036    21097286.668
       242.000         208.000
  20687293.888   -22769562.62049 -17723421.27447  20687293.595    20687298.373
       242.000         211.000
  23661116.807    -9301604.56249  -7201301.51645  23661116.750    23661122.728
       217.000         160.000
  21961768.042   -15211195.21249 -11819951.65046  21961767.844    21961774.423
       229.000         182.000
 03  2  8  2 23  0.0000000  0  7G15G17G 6G23G18G29G26
  21250033.089   -21453793.24949 -16697703.14447  21250032.369    21250038.880
       240.000         201.000
  20829704.257   -18532766.77849 -14414190.10847  20829703.646    20829709.564
       241.000         209.000
  21572190.284   -19621318.34649 -15275127.65547  21572190.213    21572196.413
       234.000         194.000
  21105781.791   -19918219.49049 -15483044.21847  21105781.502    21105786.888
       242.000         208.000
  20682664.252   -22793891.32249 -17742378.65747  20682663.780    20682668.735
       242.000         211.000
  23674768.756    -9229862.85349  -7145398.87745  23674768.249    23674773.384
       217.000         159.000
  21971926.342   -15157812.61949 -11778354.80846  21971926.672    21971931.817
       229.000         182.000
 03  2  8  2 23 30.0000000  0  7G15G17G 6G23G18G29G26
  21241175.942   -21500337.76349 -16733971.54047  21241175.480    21241181.538
       240.000         202.000
  20828133.961   -18541018.77349 -14420620.20647  20828133.213    20828139.292
       241.000         209.000
  21587355.352   -19541625.51349 -15213029.34047  21587354.795    21587361.647
       235.000         193.000
  21114328.224   -19873307.94849 -15448048.19247  21114327.565    21114333.660
       241.000         208.000
  20678108.135   -22817833.93749 -17761035.19847  20678107.924    20678112.494
       243.000         212.000
  23688494.407    -9157734.94049  -7089195.30845  23688494.127    23688499.908
       218.000         159.000
  21982195.668   -15103846.94849 -11736303.61646  21982195.882    21982201.702
       229.000         181.000
 03  2  8  2 24  0.0000000  0  7G15G17G 6G23G18G29G26
  21232344.899   -21546745.24649 -16770133.16847  21232344.524    21232350.712
       241.000         202.000
  20826597.002   -18549095.00849 -14426913.35647  20826596.088    20826602.234
       240.000         208.000
  21602592.748   -19461552.48749 -15150634.78147  21602592.406    21602598.439
       235.000         192.000
  21122919.739   -19828158.80749 -15412867.01947  21122919.077    21122925.301
       241.000         208.000
  20673624.879   -22841393.51649 -17779393.26747  20673624.078    20673629.078
       242.000         212.000
  23702292.516    -9085225.13849  -7032694.16345  23702292.105    23702297.901
       215.000         158.000
  21992575.161   -15049302.50149 -11693801.43746  21992575.027    21992581.320
       227.000         182.000
 03  2  8  2 24 30.0000000  0  7G15G17G 6G23G18G29G26
  21223540.464   -21593012.55849 -16806185.57447  21223539.799    21223545.848
       241.000         202.000
  20825094.030   -18556992.59049 -14433067.29447  20825093.288    20825099.847
       240.000         208.000
  21617902.576   -19381098.92549 -15087943.69047  21617902.388    21617908.632
       235.000         192.000
  21131556.585   -19782771.65849 -15377500.38647  21131556.068    21131562.036
       242.000         208.000
  20669214.802   -22864568.37849 -17797451.55647  20669214.341    20669219.233
       243.000         212.000
  23716163.250    -9012333.39049  -6975895.38045  23716163.562    23716169.673
       218.000         158.000
  22003064.784   -14994178.90349 -11650847.95846  22003064.675    22003070.434
       229.000         181.000
 03  2  8  2 25  0.0000000  0  7G15G17G 6G23G18G29G26
  21214762.801   -21639139.33249 -16842128.47047  21214761.996    21214768.336
       240.000         202.000
  20823625.180   -18564710.98149 -14439081.60047  20823624.725    20823631.199
       241.000         209.000
  21633284.299   -19300267.11849 -15024957.87247  21633283.839    21633290.719
       234.000         192.000
  21140238.261   -19737148.97449 -15341950.22547  21140237.968    21140243.524
       242.000         208.000
  20664877.744   -22887359.71149 -17815210.99647  20664877.273    20664882.194
       243.000         212.000
  23730106.328    -8939062.28649  -6918801.00645  23730105.830    23730112.176
       215.000         158.000
  22013664.260   -14938478.59749 -11607445.11546  22013664.137    22013669.886
       228.000         181.000
 03  2  8  2 25 30.0000000  0  7G15G17G 6G23G18G29G26
  21206012.131   -21685123.88349 -16877960.54547  21206011.414    21206017.725
       241.000         202.000
  20822191.009   -18572248.01249 -14444954.58947  20822190.727    20822196.843
       242.000         209.000
  21648737.861   -19219057.98249 -14961678.02747  21648737.601    21648744.154
       235.000         192.000
  21148964.671   -19691291.62149 -15306217.21147  21148964.147    21148969.971
       242.000         208.000
  20660613.767   -22909766.78849 -17832671.01347  20660613.295    20660618.124
       243.000         212.000
  23744121.115    -8865413.28649  -6861412.17645  23744121.127    23744126.405
       218.000         157.000
  22024373.232   -14882202.54549 -11563593.62846  22024372.814    22024379.315
       229.000         181.000
 03  2  8  2 26  0.0000000  0  7G15G17G 6G23G18G29G26
  21197288.621   -21730966.46949 -16913682.00547  21197288.263    21197294.379
       242.000         203.000
  20820791.239   -18579604.12949 -14450686.60647  20820790.846    20820796.939
       242.000         209.000
  21664262.659   -19137474.34549 -14898106.36147  21664262.713    21664269.105
       235.000         192.000
  21157735.161   -19645202.42449 -15270303.53347  21157734.425    21157740.309
       242.000         208.000
  20656422.636   -22931791.24149 -17849832.88847  20656422.167    20656426.985
       243.000         212.000
  23758207.421    -8791389.38549  -6803731.20345  23758207.385    23758213.065
       218.000         157.000
  22035191.236   -14825353.72749 -11519295.83346  22035191.484    22035196.956
       230.000         181.000
 03  2  8  2 26 30.0000000  0  7G15G17G 6G23G18G29G26
  21188592.201   -21776666.43749 -16949292.32447  21188591.553    21188598.086
       241.000         203.000
  20819426.004   -18586778.43049 -14456276.95047  20819425.292    20819431.896
       241.000         209.000
  21679858.427   -19055518.28449 -14834244.49047  21679858.067    21679864.738
       234.000         191.000
  21166549.284   -19598883.56949 -15234210.90347  21166548.503    21166554.799
       242.000         207.000
  20652304.156   -22953434.00049 -17866697.33747  20652303.768    20652308.536
       242.000         212.000
  23772364.532    -8716993.15449  -6745760.12245  23772364.515    23772370.602
       214.000         157.000
  22046117.694   -14767934.37349 -11474553.46746  22046117.331    22046123.495
       228.000         181.000
 03  2  8  2 27  0.0000000  0  7G15G17G 6G23G18G29G26
  21179922.989   -21822223.55149 -16984791.33047  21179922.005    21179928.315
       240.000         203.000
  20818095.415   -18593770.30949 -14461725.14647  20818094.693    20818101.077
       242.000         210.000
  21695524.520   -18973192.43949 -14770094.47947  21695524.381    21695530.859
       234.000         191.000
  21175406.671   -19552337.41449 -15197941.15547  21175405.932    21175412.385
       241.000         207.000
  20648257.995   -22974696.43849 -17883265.43447  20648257.289    20648262.339
       242.000         212.000
  23786591.932    -8642227.30049  -6687500.99745  23786592.095    23786597.111
       217.000         156.000
  22057152.298   -14709947.06649 -11429368.54046  22057152.661    22057158.153
       229.000         181.000
 03  2  8  2 27 30.0000000  0  7G15G17G 6G23G18G29G26
  21171281.242   -21867635.44849 -17020177.17547  21171280.008    21171286.505
       240.000         202.000
  20816799.959   -18600577.79449 -14467029.65547  20816799.620    20816805.355
       242.000         210.000
  21711260.885   -18890497.55849 -14705656.91247  21711260.637    21711266.988
       233.000         190.000
  21184307.248   -19505564.60649 -15161494.79647  21184306.919    21184312.653
       242.000         207.000
  20644284.342   -22995577.91549 -17899536.67847  20644283.900    20644288.698
       243.000         212.000
  23800889.525    -8567092.92549  -6628954.73345  23800889.497    23800894.620
       215.000         156.000
  22068294.859   -14651392.96949 -11383741.95646  22068295.167    22068300.338
       229.000         181.000
 03  2  8  2 28  0.0000000  0  8G15G17G 6G23G18G 3G29G26
  21162662.272   -21912927.91149 -17055469.96247  21162661.664    21162667.528
       241.000         202.000
  20815534.759   -18607226.83349 -14472210.69547  20815534.465    20815540.392
       243.000         210.000
  21727061.986   -18807462.02749 -14640953.90047  21727061.378    21727068.154
       232.000         189.000
  21193245.599   -19458593.51649 -15124893.93447  21193245.232    21193250.881
       242.000         207.000
  20640378.045   -23016105.42349 -17915532.09847  20640377.274    20640382.395
       241.000         212.000
  24584823.087    -6274178.02049  -4862918.81145  24584821.952    24584832.161
       198.000         133.000
  23815251.739    -8491618.76549  -6570143.69545  23815251.624    23815258.160
       214.000         156.000
  22079539.781   -14592300.23249 -11337695.65246  22079540.082    22079545.003
       229.000         180.000
 03  2  8  2 28 30.0000000  0  8G15G17G 6G23G18G 3G29G26
  21154072.999   -21958064.71249 -17090641.45747  21154072.460    21154078.237
       242.000         203.000
  20814306.690   -18613680.77649 -14477239.71147  20814306.126    20814312.358
       243.000         211.000
  21742934.235   -18724052.38749 -14575959.37947  21742933.950    21742940.314
       232.000         189.000
  21202228.002   -19411390.62249 -15088112.44047  21202227.313    21202233.134
       241.000         207.000
  20636545.665   -23036244.24549 -17931224.64247  20636545.207    20636550.076
       241.000         212.000
  24566112.112    -6372503.09548  -4939535.59045  24566109.686    24566122.020
       192.000         132.000
  23829684.941    -8415771.43949  -6511041.87945  23829684.563    23829691.126
       214.000         156.000
  22090893.563   -14532635.71649 -11291203.80946  22090893.463    22090899.650
       229.000         181.000
